[[{"header":{"parameterUnit":"m.s-1","parameterCategory":1,"la1":31.0,"la2":29.5877,"lo1":-88.7671,"lo2":-86.6584,"dy":0.0162,"dx":0.0185,"nx":115,"ny":88,"refTime":"2024-09-02T18:00:00:Z","depth":0,"parameterNumber":2,"parameterNumberName":"U-component_of_WINDS"},"data":[0.0,0.0,0.0,0.0,0.0,0.0,0.0,0.0,0.0,0.0,0.0,0.0,0.0,0.0,0.0,0.0,0.0,0.0,0.0,0.0,0.0,0.0,0.0,0.0,0.0,0.0,0.0,0.0,0.0,0.0,0.0,0.0,0.0,0.0,0.0,0.0,0.0,0.0,0.0,0.0,0.0,0.0,0.0,0.0,0.0,0.0,0.0,0.0,0.0,0.0,0.0,0.0,0.0,0.0,0.0,0.0,0.0,0.0,0.0,0.0,0.0,0.0,0.0,0.0,0.0,0.0,0.0,0.0,0.0,0.0,0.0,0.0,0.0,0.0,0.0,0.0,0.0,0.0,0.0,0.0,0.0,0.0,0.0,0.0,0.0,0.0,0.0,0.0,0.0,0.0,0.0,0.0,0.0,0.0,0.0,0.0,0.0,0.0,0.0,0.0,0.0,0.0,0.0,0.0,0.0,0.0,0.0,0.0,0.0,0.0,0.0,0.0,0.0,0.0,0.0,0.0,0.0,0.0,0.0,0.0,0.0,0.0,0.0,0.0,0.0,0.0,0.0,0.0,0.0,0.0,0.0,0.0,0.0,0.0,0.0,0.0,0.0,0.0,0.0,0.0,0.0,0.0,0.0,0.0,0.0,0.0,0.0,0.0,0.0,0.0,0.0,0.0,0.0,0.0,0.0,0.0,0.0,0.0,0.0,0.0,0.0,0.0,0.0,0.0,0.0,0.0,0.0,0.0,0.0,0.0,0.0,0.0,0.0,0.0,0.0,0.0,0.0,0.0,0.0,0.0,0.0,0.0,0.0,0.0,0.0,0.0,0.0,0.0,0.0,0.0,0.0,0.0,0.0,0.0,0.0,0.0,0.0,0.0,0.0,0.0,0.0,0.0,0.0,0.0,0.0,0.0,0.0,0.0,0.0,0.0,0.0,0.0,0.0,0.0,0.0,0.0,0.0,0.0,0.0,0.0,0.0,0.0,0.0,0.0,0.0,0.0,0.0,0.0,0.0,0.0,0.0,0.0,0.0,0.0,0.0,0.0,0.0,0.0,0.0,0.0,0.0,0.0,0.0,0.0,0.0,0.0,0.0,0.0,0.0,0.0,0.0,0.0,0.0,0.0,0.0,0.0,0.0,0.0,0.0,0.0,0.0,0.0,0.0,0.0,0.0,0.0,0.0,0.0,0.0,0.0,0.0,0.0,0.0,0.0,0.0,0.0,0.0,0.0,0.0,0.0,0.0,0.0,0.0,0.0,0.0,0.0,0.0,0.0,0.0,0.0,0.0,0.0,0.0,0.0,0.0,0.0,0.0,0.0,0.0,0.0,0.0,0.0,0.0,0.0,0.0,0.0,0.0,0.0,0.0,0.0,0.0,0.0,0.0,0.0,0.0,0.0,0.0,0.0,0.0,0.0,0.0,0.0,0.0,0.0,0.0,0.0,0.0,0.0,0.0,0.0,0.0,0.0,0.0,0.0,0.0,0.0,0.0,0.0,0.0,0.0,0.0,0.0,0.0,0.0,0.0,0.0,0.0,0.0,0.0,0.0,0.0,0.0,0.0,0.0,0.0,0.0,0.0,0.0,0.0,0.0,0.0,0.0,0.0,0.0,0.0,0.0,0.0,0.0,0.0,0.0,0.0,0.0,0.0,0.0,0.0,0.0,0.0,0.0,0.0,0.0,0.0,0.0,0.0,0.0,0.0,0.0,0.0,0.0,0.0,0.0,0.0,0.0,0.0,0.0,0.0,0.0,0.0,0.0,0.0,0.0,0.0,0.0,0.0,0.0,0.0,0.0,0.0,0.0,0.0,0.0,0.0,0.0,0.0,0.0,0.0,0.0,0.0,0.0,0.0,0.0,0.0,0.0,0.0,0.0,0.0,0.0,0.0,0.0,0.0,0.0,0.0,0.0,0.0,0.0,0.0,0.0,0.0,0.0,0.0,0.0,0.0,0.0,0.0,0.0,0.0,0.0,0.0,0.0,0.0,0.0,0.0,0.0,0.0,0.0,0.0,0.0,0.0,0.0,0.0,0.0,0.0,0.0,0.0,0.0,0.0,0.0,0.0,0.0,0.0,0.0,0.0,0.0,0.0,0.0,0.0,0.0,0.0,0.0,0.0,0.0,0.0,0.0,0.0,0.0,0.0,0.0,0.0,0.0,0.0,0.0,0.0,0.0,0.0,0.0,0.0,0.0,0.0,0.0,0.0,0.0,0.0,0.0,0.0,0.0,0.0,0.0,0.0,0.0,0.0,0.0,0.0,0.0,0.0,0.0,0.0,0.0,0.0,0.0,0.0,0.0,0.0,0.0,0.0,0.0,0.0,0.0,0.0,0.0,0.0,0.0,0.0,0.0,0.0,0.0,0.0,0.0,0.0,0.0,0.0,0.0,0.0,0.0,0.0,0.0,0.0,0.0,0.0,0.0,0.0,0.0,0.0,0.0,0.0,0.0,0.0,0.0,0.0,0.0,0.0,0.0,0.0,0.0,0.0,0.0,0.0,0.0,0.0,0.0,0.0,0.0,0.0,0.0,0.0,0.0,0.0,0.0,0.0,0.0,0.0,0.0,0.0,0.0,0.0,0.0,0.0,0.0,0.0,0.0,0.0,0.0,0.0,0.0,0.0,0.0,0.0,0.0,0.0,0.0,0.0,0.0,0.0,0.0,0.0,0.0,0.0,0.0,0.0,0.0,0.0,0.0,0.0,0.0,0.0,0.0,0.0,0.0,0.0,0.0,0.0,0.0,0.0,0.0,0.0,0.0,0.0,0.0,0.0,0.0,0.0,0.0,0.0,0.0,0.0,0.0,0.0,0.0,0.0,0.0,0.0,0.0,0.0,0.0,0.0,0.0,0.0,0.0,0.0,0.0,0.0,0.0,0.0,0.0,0.0,0.0,0.0,0.0,0.0,0.0,0.0,0.0,0.0,0.0,0.0,0.0,0.0,0.0,0.0,0.0,0.0,0.0,0.0,0.0,0.0,0.0,0.0,0.0,0.0,0.0,0.0,0.0,0.0,0.0,0.0,0.0,0.0,0.0,0.0,0.0,0.0,0.0,0.0,0.0,0.0,0.0,0.0,0.0,0.0,0.0,0.0,0.0,0.0,0.0,0.0,0.0,0.0,0.0,0.0,0.0,0.0,0.0,0.0,0.0,0.0,0.0,0.0,0.0,0.0,0.0,0.0,0.0,0.0,0.0,0.0,0.0,0.0,0.0,0.0,0.0,0.0,0.0,0.0,0.0,0.0,0.0,0.0,0.0,0.0,0.0,0.0,0.0,0.0,0.0,0.0,0.0,0.0,0.0,0.0,0.0,0.0,0.0,0.0,0.0,0.0,0.0,0.0,0.0,0.0,0.0,0.0,0.0,0.0,0.0,0.0,0.0,0.0,0.0,0.0,0.0,0.0,0.0,0.0,0.0,0.0,0.0,0.0,0.0,0.0,0.0,0.0,0.0,0.0,0.0,0.0,0.0,0.0,0.0,0.0,0.0,0.0,0.0,0.0,0.0,0.0,0.0,0.0,0.0,0.0,0.0,0.0,0.0,0.0,0.0,0.0,0.0,0.0,0.0,0.0,0.0,0.0,0.0,0.0,0.0,0.0,0.0,0.0,0.0,0.0,0.0,0.0,0.0,0.0,0.0,0.0,0.0,0.0,0.0,0.0,0.0,0.0,0.0,0.0,0.0,0.0,0.0,0.0,0.0,0.0,0.0,0.0,0.0,0.0,0.0,0.0,0.0,0.0,0.0,0.0,0.0,0.0,0.0,0.0,0.0,0.0,0.0,0.0,0.0,0.0,0.0,0.0,0.0,0.0,0.0,0.0,0.0,0.0,0.0,0.0,0.0,0.0,0.0,0.0,0.0,0.0,0.0,0.0,0.0,0.0,0.0,0.0,0.0,0.0,0.0,0.0,0.0,0.0,0.0,0.0,0.0,0.0,0.0,0.0,0.0,0.0,0.0,0.0,0.0,0.0,0.0,0.0,0.0,0.0,0.0,0.0,0.0,0.0,0.0,0.0,0.0,0.0,0.0,0.0,0.0,0.0,0.0,0.0,0.0,0.0,0.0,0.0,0.0,0.0,0.0,0.0,0.0,0.0,0.0,0.0,0.0,0.0,0.0,0.0,0.0,0.0,0.0,0.0,0.0,0.0,0.0,0.0,0.0,0.0,0.0,0.0,0.0,0.0,0.0,0.0,0.0,0.0,0.0,0.0,0.0,0.0,0.0,0.0,0.0,0.0,0.0,0.0,0.0,0.0,0.0,0.0,0.0,0.0,0.0,1.3259,0.0,0.0,0.0,0.0,0.0,0.0,0.0,0.0,0.0,0.0,0.0,0.0,0.0,0.0,0.0,0.0,0.0,0.0,0.0,0.0,0.0,0.0,0.0,0.0,0.0,0.0,0.0,0.0,0.0,0.0,0.0,0.0,0.0,0.0,0.0,0.0,0.0,0.0,0.0,0.0,0.0,0.0,0.0,0.0,0.0,0.0,0.0,0.0,0.0,0.0,0.0,0.0,0.0,0.0,0.0,0.0,0.0,0.0,0.0,0.0,0.0,0.0,0.0,0.0,0.0,0.0,0.0,0.0,0.0,0.0,0.0,0.0,0.0,0.0,0.0,0.0,0.0,0.0,0.0,0.0,0.0,0.0,0.0,0.0,0.0,0.0,0.0,0.0,0.0,0.0,0.0,0.0,0.0,0.0,0.0,0.0,0.0,0.0,0.0,0.0,0.0,0.0,0.0,0.0,0.0,0.0,0.0,0.0,0.0,0.0,1.5019,1.4785,1.4507,1.4152,1.3667,0.0,0.0,0.0,0.0,0.0,0.0,0.0,0.0,0.0,0.0,0.0,0.0,0.0,0.0,0.0,0.0,0.0,0.0,0.0,0.0,0.0,0.0,0.0,0.0,0.0,0.0,0.0,0.0,0.0,0.0,0.0,0.0,0.0,0.0,0.0,0.0,0.0,0.0,0.0,0.0,0.0,0.0,0.0,0.0,0.0,0.0,0.0,0.0,0.0,0.0,0.0,0.0,0.0,0.0,0.0,0.0,0.0,0.0,0.0,0.0,0.0,0.0,0.0,0.0,0.0,0.0,0.0,0.0,0.0,0.0,0.0,0.0,0.0,0.0,0.0,0.0,0.0,0.0,0.0,0.0,0.0,0.0,0.0,0.0,0.0,0.0,0.0,0.0,0.0,0.0,0.0,0.0,0.0,0.0,0.0,0.0,0.0,0.0,0.0,0.0,0.0,0.0,0.0,0.0,0.0,0.0,0.0,0.0,0.0,0.0,0.0,0.0,1.4819,1.4447,1.3835,0.0,0.0,0.0,0.0,0.0,0.0,0.0,0.0,0.0,0.0,0.0,0.0,0.0,0.0,0.0,0.0,0.0,0.0,0.0,0.0,0.0,0.0,0.0,0.0,0.0,0.0,0.0,0.0,0.0,0.0,0.0,0.0,0.0,0.0,0.0,0.0,0.0,0.0,0.0,0.0,0.0,0.0,0.0,0.0,0.0,0.0,0.0,0.0,0.0,0.0,0.0,0.0,0.0,0.0,0.0,0.0,0.0,0.0,0.0,0.0,0.0,0.0,0.0,0.0,0.0,0.0,0.0,0.0,0.0,0.0,0.0,0.0,0.0,0.0,0.0,0.0,0.0,0.0,0.0,0.0,0.0,0.0,0.0,0.0,0.0,0.0,0.0,0.0,0.0,0.0,0.0,0.0,0.0,0.0,0.0,0.0,0.0,0.0,0.0,0.0,0.0,0.0,0.0,0.0,0.0,0.0,0.0,0.0,0.0,0.0,1.5391,1.5352,1.5196,0.0,1.3534,0.0,0.0,0.0,0.0,0.0,0.0,0.0,0.0,0.0,0.0,0.0,0.0,0.0,0.0,0.0,0.0,0.0,0.0,0.0,0.0,0.0,0.0,0.0,0.0,0.0,0.0,0.0,0.0,0.0,0.0,0.0,0.0,0.0,0.0,0.0,0.0,0.0,0.0,0.0,0.0,0.0,0.0,0.0,0.0,0.0,0.0,0.0,0.0,0.0,0.0,0.0,0.0,0.0,0.0,0.0,0.0,0.0,0.0,0.0,0.0,0.0,0.0,0.0,0.0,0.0,0.0,0.0,0.0,0.0,0.0,0.0,0.0,0.0,0.0,0.0,0.0,0.0,0.0,0.0,0.0,0.0,0.0,0.0,0.0,0.0,0.0,0.0,0.0,0.0,0.0,0.0,0.0,0.0,0.0,0.0,0.0,0.0,0.0,0.0,0.0,0.0,0.0,0.0,0.0,0.0,0.0,0.0,0.0,0.0,0.0,1.542,1.542,1.5196,1.4571,0.0,0.0,0.0,0.0,0.0,0.0,0.0,0.0,0.0,0.0,0.0,0.0,0.0,0.0,0.0,0.0,0.0,0.0,0.0,0.0,0.0,0.0,0.0,0.0,0.0,0.0,0.0,0.0,0.0,0.0,0.0,0.0,0.0,0.0,0.0,0.0,0.0,0.0,0.0,0.0,0.0,0.0,0.0,0.0,0.0,0.0,0.0,0.0,0.0,0.0,0.0,0.0,0.0,0.0,0.0,0.0,0.0,0.0,0.0,0.0,0.0,0.0,0.0,0.0,0.0,0.0,0.0,0.0,0.0,0.0,0.0,0.0,0.0,0.0,0.0,0.0,0.0,0.0,0.0,0.0,0.0,0.0,0.0,0.0,0.0,0.0,0.0,0.0,0.0,0.0,0.0,0.0,0.0,0.0,0.0,0.0,0.0,0.0,0.0,0.0,0.0,0.0,0.0,0.0,0.0,0.0,0.0,0.0,0.0,0.0,1.5469,1.5468,1.5359,1.5191,1.458,1.3496,0.0,0.0,0.0,0.0,0.0,0.0,0.0,0.0,0.0,0.0,0.0,0.0,0.0,0.0,0.0,0.0,0.0,0.0,0.0,0.0,0.0,0.0,0.0,0.0,0.0,0.0,0.0,0.0,0.0,0.0,0.0,0.0,0.0,0.0,0.0,0.0,0.0,0.0,0.0,0.0,0.0,0.0,0.0,0.0,0.0,0.0,0.0,0.0,0.0,0.0,0.0,0.0,0.0,0.0,0.0,0.0,0.0,0.0,0.0,0.0,0.0,0.0,0.0,0.0,0.0,0.0,0.0,0.0,0.0,0.0,0.0,0.0,0.0,0.0,0.0,0.0,0.0,0.0,0.0,0.0,0.0,0.0,0.0,0.0,0.0,0.0,0.0,0.0,0.0,0.0,0.0,0.0,0.0,0.0,0.0,0.0,0.0,0.0,0.0,0.0,0.0,0.0,0.0,0.0,0.0,0.0,0.0,0.0,1.54,1.565,1.5619,1.5321,1.529,1.4664,0.0,0.0,0.0,0.0,0.0,0.0,0.0,0.0,0.0,0.0,0.0,0.0,0.0,0.0,0.0,0.0,0.0,0.0,0.0,0.0,0.0,0.0,0.0,0.0,0.0,0.0,0.0,0.0,0.0,0.0,0.0,0.0,0.0,0.0,0.0,0.0,0.0,0.0,0.0,0.0,0.0,0.0,0.0,0.0,0.0,0.0,0.0,0.0,0.0,0.0,0.0,0.0,0.0,0.0,0.0,0.0,0.0,0.0,0.0,0.0,0.0,0.0,0.0,0.0,0.0,0.0,0.0,0.0,0.0,0.0,0.0,0.0,0.0,0.0,0.0,0.0,0.0,0.0,0.0,0.0,0.0,0.0,0.0,0.0,0.0,0.0,0.0,0.0,0.0,0.0,0.0,0.0,0.0,0.0,0.0,0.0,0.0,0.0,0.0,0.0,0.0,0.0,0.0,0.0,0.0,0.0,0.0,0.0,0.0,1.566,1.5899,1.593,1.57,1.5417,1.4743,0.0,0.0,0.0,0.0,0.0,0.0,0.0,0.0,0.0,0.0,0.0,0.0,0.0,0.0,0.0,0.0,0.0,0.0,0.0,0.0,0.0,0.0,0.0,0.0,0.0,0.0,0.0,0.0,0.0,0.0,0.0,0.0,0.0,0.0,0.0,0.0,0.0,0.0,0.0,0.0,0.0,0.0,0.0,0.0,0.0,0.0,0.0,0.0,0.0,0.0,0.0,0.0,0.0,0.0,0.0,0.0,0.0,0.0,0.0,0.0,0.0,0.0,0.0,0.0,0.0,0.0,0.0,0.0,0.0,0.0,0.0,0.0,0.0,0.0,0.0,0.0,0.0,0.0,0.0,0.0,0.0,0.0,0.0,0.0,0.0,0.0,0.0,0.0,0.0,0.0,0.0,0.0,0.0,0.0,0.0,0.0,0.0,0.0,0.0,0.0,0.0,0.0,0.0,0.0,0.0,0.0,0.0,0.0,0.0,1.6205,0.0,1.6323,0.0,1.5794,1.506,0.0,0.0,0.0,0.0,0.0,0.0,0.0,0.0,0.0,0.0,0.0,0.0,0.0,0.0,0.0,0.0,0.0,0.0,0.0,0.0,0.0,0.0,0.0,0.0,0.0,0.0,0.0,0.0,0.0,0.0,0.0,0.0,0.0,0.0,0.0,0.0,0.0,0.0,0.0,0.0,0.0,0.0,0.0,0.0,0.0,0.0,0.0,0.0,0.0,0.0,0.0,0.0,0.0,0.0,0.0,0.0,0.0,0.0,0.0,0.0,0.0,0.0,0.0,0.0,0.0,0.0,0.0,0.0,0.0,0.0,0.0,0.0,0.0,0.0,0.0,0.0,0.0,0.0,0.0,0.0,0.0,0.0,0.0,0.0,0.0,0.0,0.0,0.0,0.0,0.0,0.0,0.0,0.0,0.0,0.0,0.0,0.0,0.0,0.0,0.0,0.0,0.0,0.0,0.0,0.0,0.0,0.0,0.0,1.6252,1.7042,1.6908,1.6788,1.6586,1.6394,1.5572,0.0,0.0,0.0,0.0,0.0,0.0,0.0,0.0,0.0,0.0,0.0,0.0,0.0,0.0,0.0,0.0,0.0,0.0,0.0,0.0,0.0,0.0,0.0,0.0,0.0,0.0,0.0,0.0,0.0,0.0,0.0,0.0,0.0,0.0,0.0,0.0,0.0,0.0,0.0,0.0,0.0,0.0,0.0,0.0,0.0,0.0,0.0,0.0,0.0,0.0,0.0,0.0,0.0,0.0,0.0,0.0,0.0,0.0,0.0,0.0,0.0,0.0,0.0,0.0,0.0,0.0,0.0,0.0,0.0,0.0,0.0,0.0,0.0,0.0,0.0,0.0,0.0,0.0,0.0,0.0,0.0,0.0,0.0,0.0,0.0,0.0,0.0,0.0,0.0,0.0,0.0,0.0,0.0,0.0,0.0,0.0,0.0,0.0,0.0,0.0,0.0,0.0,0.0,0.0,0.0,0.0,0.0,0.0,0.0,1.7312,1.7522,1.7596,1.755,1.6997,1.6052,0.0,0.0,0.0,0.0,0.0,0.0,0.0,0.0,0.0,0.0,0.0,0.0,0.0,0.0,0.0,0.0,0.0,0.0,0.0,0.0,0.0,0.0,0.0,0.0,0.0,0.0,0.0,0.0,0.0,0.0,0.0,0.0,0.0,0.0,0.0,0.0,0.0,0.0,0.0,0.0,0.0,0.0,0.0,0.0,0.0,0.0,0.0,0.0,0.0,0.0,0.0,0.0,0.0,0.0,0.0,0.0,0.0,0.0,0.0,0.0,0.0,0.0,0.0,0.0,0.0,0.0,0.0,0.0,0.0,0.0,0.0,0.0,0.0,0.0,0.0,0.0,0.0,0.0,0.0,0.0,0.0,0.0,0.0,0.0,0.0,0.0,0.0,0.0,0.0,0.0,0.0,0.0,0.0,0.0,0.0,0.0,0.0,0.0,0.0,0.0,0.0,0.0,0.0,0.0,0.0,0.0,0.0,0.0,0.0,1.9033,1.8731,1.8533,1.846,1.7873,1.6879,1.5497,0.0,0.0,0.0,0.0,0.0,0.0,0.0,0.0,0.0,0.0,0.0,0.0,0.0,0.0,0.0,0.0,0.0,0.0,0.0,0.0,0.0,0.0,0.0,0.0,0.0,0.0,0.0,0.0,0.0,0.0,0.0,0.0,0.0,0.0,0.0,0.0,0.0,0.0,0.0,0.0,0.0,0.0,0.0,0.0,0.0,0.0,0.0,0.0,0.0,0.0,0.0,0.0,0.0,0.0,0.0,0.0,0.0,0.0,0.0,0.0,0.0,0.0,0.0,0.0,0.0,0.0,0.0,0.0,0.0,0.0,0.0,0.0,0.0,0.0,0.0,0.0,0.0,0.0,0.0,0.0,0.0,0.0,0.0,0.0,0.0,0.0,0.0,0.0,0.0,0.0,0.0,0.0,0.0,0.0,0.0,0.0,0.0,0.0,0.0,0.0,0.0,0.0,0.0,0.0,0.0,0.0,0.0,0.0,2.176,2.0383,1.9622,1.9449,1.8985,1.8051,0.0,0.0,0.0,0.0,0.0,0.0,0.0,0.0,0.0,0.0,0.0,0.0,0.0,0.0,0.0,0.0,0.0,0.0,0.0,0.0,0.0,0.0,0.0,0.0,0.0,0.0,0.0,0.0,0.0,0.0,0.0,0.0,0.0,0.0,0.0,0.0,0.0,0.0,0.0,0.0,0.0,0.0,0.0,0.0,0.0,0.0,0.0,0.0,0.0,0.0,0.0,0.0,0.0,0.0,0.0,0.0,0.0,0.0,0.0,0.0,0.0,0.0,0.0,0.0,0.0,0.0,0.0,0.0,0.0,0.0,0.0,0.0,0.0,0.0,0.0,0.0,0.0,0.0,0.0,0.0,0.0,0.0,0.0,0.0,0.0,0.0,0.0,0.0,0.0,0.0,0.0,0.0,0.0,0.0,0.0,0.0,0.0,0.0,0.0,0.0,0.0,0.0,0.0,0.0,0.0,0.0,0.0,0.0,0.0,2.1176,2.1828,2.2122,2.2058,2.0935,1.9555,0.0,0.0,0.0,0.0,0.0,0.0,0.0,0.0,0.0,0.0,0.0,0.0,0.0,0.0,0.0,0.0,0.0,0.0,0.0,0.0,0.0,0.0,0.0,0.0,0.0,0.0,0.0,0.0,0.0,0.0,0.0,0.0,0.0,0.0,0.0,0.0,0.0,0.0,0.0,0.0,0.0,0.0,0.0,0.0,0.0,0.0,0.0,0.0,0.0,0.0,0.0,0.0,0.0,0.0,0.0,0.0,0.0,0.0,0.0,0.0,0.0,0.0,0.0,0.0,0.0,0.0,0.0,0.0,0.0,0.0,0.0,0.0,0.0,0.0,0.0,0.0,0.0,0.0,0.0,0.0,0.0,0.0,0.0,0.0,0.0,0.0,0.0,0.0,0.0,0.0,0.0,0.0,0.0,0.0,0.0,0.0,0.0,0.0,0.0,0.0,0.0,0.0,0.0,0.0,0.0,0.0,0.0,0.0,2.1953,2.2139,2.3677,2.4184,2.3532,2.17,2.0218,0.0,0.0,0.0,0.0,0.0,0.0,0.0,0.0,0.0,0.0,0.0,0.0,0.0,0.0,0.0,0.0,0.0,0.0,0.0,0.0,0.0,0.0,0.0,0.0,0.0,0.0,0.0,0.0,0.0,0.0,0.0,0.0,0.0,0.0,0.0,0.0,0.0,0.0,0.0,0.0,0.0,0.0,0.0,0.0,0.0,0.0,0.0,0.0,0.0,0.0,0.0,0.0,0.0,0.0,0.0,0.0,0.0,0.0,0.0,0.0,0.0,0.0,0.0,0.0,0.0,0.0,0.0,0.0,0.0,0.0,0.0,0.0,0.0,0.0,0.0,0.0,0.0,0.0,0.0,0.0,0.0,0.0,0.0,0.0,0.0,0.0,0.0,0.0,0.0,0.0,0.0,0.0,0.0,0.0,0.0,0.0,0.0,0.0,0.0,0.0,0.0,0.0,0.0,0.0,0.0,0.0,0.0,0.0,2.2801,2.3923,2.5593,2.5738,2.4213,2.2034,2.0632,0.0,0.0,0.0,0.0,0.0,0.0,0.0,0.0,0.0,0.0,0.0,0.0,0.0,0.0,0.0,0.0,0.0,0.0,0.0,0.0,0.0,0.0,0.0,0.0,0.0,0.0,0.0,0.0,0.0,0.0,0.0,0.0,0.0,0.0,0.0,0.0,0.0,0.0,0.0,0.0,0.0,0.0,0.0,0.0,0.0,0.0,0.0,0.0,0.0,0.0,0.0,0.0,0.0,0.0,0.0,0.0,0.0,0.0,0.0,0.0,0.0,0.0,0.0,0.0,0.0,0.0,0.0,0.0,0.0,0.0,0.0,0.0,0.0,0.0,0.0,0.0,0.0,0.0,0.0,0.0,0.0,0.0,0.0,0.0,0.0,0.0,0.0,0.0,0.0,0.0,0.0,0.0,0.0,0.0,0.0,0.0,0.0,0.0,0.0,0.0,0.0,0.0,0.0,0.0,0.0,0.0,0.0,0.0,2.4116,2.4677,2.5845,2.5864,2.4598,2.3752,2.2416,0.0,0.0,0.0,0.0,0.0,0.0,0.0,0.0,0.0,0.0,0.0,0.0,0.0,0.0,0.0,0.0,0.0,0.0,0.0,0.0,0.0,0.0,0.0,0.0,0.0,0.0,0.0,0.0,0.0,0.0,0.0,0.0,0.0,0.0,0.0,0.0,0.0,0.0,0.0,0.0,0.0,0.0,0.0,0.0,0.0,0.0,0.0,0.0,1.4185,0.0,0.0,0.0,0.0,0.0,0.0,0.0,0.0,0.0,0.0,0.0,0.0,0.0,0.0,0.0,0.0,0.0,0.0,0.0,0.0,0.0,0.0,0.0,0.0,0.0,0.0,0.0,0.0,0.0,0.0,0.0,0.0,0.0,0.0,0.0,0.0,0.0,0.0,0.0,0.0,0.0,0.0,0.0,0.0,0.0,0.0,0.0,0.0,0.0,0.0,0.0,0.0,0.0,0.0,0.0,0.0,0.0,0.0,0.0,2.3132,2.4271,2.4671,2.4522,2.3908,2.3488,2.2412,0.0,0.0,0.0,0.0,0.0,0.0,0.0,0.0,0.0,0.0,0.0,0.0,0.0,0.0,0.0,0.0,0.0,0.0,0.0,0.0,0.0,0.0,0.0,0.0,0.0,0.0,0.0,0.0,0.0,0.0,0.0,0.0,0.0,0.0,0.0,0.0,0.0,0.0,0.0,0.0,0.0,0.0,0.0,0.0,0.0,0.0,0.0,0.0,0.0,0.0,0.0,0.0,0.0,0.0,0.0,0.0,0.0,0.0,0.0,0.0,0.0,0.0,0.0,0.0,0.0,0.0,0.0,0.0,0.0,0.0,0.0,0.0,0.0,0.0,0.0,0.0,0.0,0.0,0.0,0.0,0.0,0.0,0.0,0.0,0.0,0.0,0.0,0.0,0.0,0.0,0.0,0.0,0.0,0.0,0.0,0.0,0.0,0.0,0.0,0.0,0.0,0.0,0.0,0.0,0.0,0.0,0.0,2.1272,2.1845,2.3716,2.3476,2.3191,2.3023,2.2502,2.1702,2.0567,0.0,0.0,0.0,0.0,0.0,0.0,0.0,0.0,0.0,0.0,0.0,0.0,0.0,0.0,0.0,0.0,0.0,0.0,0.0,0.0,0.0,0.0,0.0,0.0,0.0,0.0,0.0,0.0,0.0,0.0,0.0,0.0,0.0,0.0,0.0,0.0,0.0,0.0,1.5011,1.5273,0.0,0.0,0.0,0.0,0.0,0.0,0.0,0.0,1.4097,0.0,0.0,0.0,0.0,0.0,0.0,0.0,0.0,0.0,0.0,0.0,0.0,0.0,0.0,0.0,0.0,0.0,0.0,0.0,0.0,0.0,0.0,0.0,0.0,0.0,0.0,0.0,0.0,0.0,0.0,0.0,0.0,0.0,0.0,0.0,0.0,0.0,0.0,0.0,0.0,0.0,0.0,0.0,0.0,0.0,0.0,0.0,0.0,0.0,0.0,0.0,0.0,0.0,0.0,0.0,0.0,2.1486,2.22,2.3203,2.4471,2.4471,2.3966,2.3063,2.2341,2.1208,1.9571,0.0,0.0,0.0,0.0,0.0,0.0,0.0,0.0,0.0,0.0,0.0,0.0,0.0,0.0,0.0,0.0,0.0,0.0,0.0,0.0,0.0,0.0,0.0,0.0,0.0,0.0,0.0,0.0,0.0,0.0,0.0,0.0,0.0,0.0,0.0,0.0,0.0,0.0,0.0,1.5444,1.585,0.0,0.0,0.0,0.0,0.0,0.0,0.0,0.0,1.4595,0.0,0.0,0.0,0.0,0.0,0.0,0.0,0.0,0.0,0.0,0.0,0.0,0.0,0.0,0.0,0.0,0.0,0.0,0.0,0.0,0.0,0.0,0.0,0.0,0.0,0.0,0.0,0.0,0.0,0.0,0.0,0.0,0.0,0.0,0.0,0.0,0.0,0.0,0.0,0.0,0.0,0.0,0.0,0.0,0.0,0.0,0.0,0.0,0.0,0.0,0.0,0.0,0.0,0.0,0.0,2.1395,2.1637,2.2335,2.3741,2.3191,2.2918,2.2958,2.1596,2.0581,0.0,0.0,0.0,0.0,0.0,0.0,0.0,0.0,0.0,0.0,0.0,0.0,0.0,0.0,0.0,0.0,0.0,0.0,0.0,0.0,0.0,0.0,0.0,0.0,0.0,0.0,0.0,0.0,0.0,0.0,0.0,0.0,0.0,0.0,0.0,0.0,0.0,0.0,0.0,0.0,1.5778,1.6082,1.6064,0.0,0.0,0.0,0.0,0.0,0.0,1.5628,1.5293,0.0,0.0,0.0,0.0,0.0,0.0,0.0,0.0,0.0,0.0,0.0,0.0,0.0,0.0,0.0,0.0,0.0,0.0,0.0,0.0,0.0,0.0,0.0,0.0,0.0,0.0,0.0,0.0,0.0,0.0,0.0,0.0,0.0,0.0,0.0,0.0,0.0,0.0,0.0,0.0,0.0,0.0,0.0,0.0,0.0,0.0,0.0,0.0,0.0,0.0,0.0,0.0,0.0,0.0,0.0,2.1128,2.0747,2.1194,2.254,2.171,2.1623,2.247,2.0747,1.9892,0.0,0.0,0.0,0.0,0.0,0.0,0.0,0.0,0.0,0.0,0.0,0.0,0.0,0.0,0.0,0.0,0.0,0.0,0.0,0.0,0.0,0.0,0.0,0.0,0.0,0.0,0.0,0.0,0.0,0.0,0.0,0.0,0.0,0.0,0.0,0.0,0.0,0.0,0.0,0.0,0.0,1.6252,1.6211,1.6642,0.0,0.0,0.0,0.0,1.647,1.6284,0.0,0.0,0.0,0.0,0.0,0.0,0.0,0.0,0.0,0.0,0.0,0.0,0.0,0.0,0.0,0.0,0.0,0.0,0.0,0.0,0.0,0.0,0.0,0.0,0.0,0.0,0.0,0.0,0.0,0.0,0.0,0.0,0.0,0.0,0.0,0.0,0.0,0.0,0.0,0.0,0.0,0.0,0.0,0.0,0.0,0.0,0.0,0.0,0.0,0.0,0.0,0.0,0.0,0.0,0.0,0.0,1.9797,2.0292,2.0775,2.1373,2.1268,2.1121,2.094,2.0088,1.9134,0.0,0.0,0.0,0.0,0.0,0.0,0.0,0.0,0.0,0.0,0.0,0.0,0.0,0.0,0.0,0.0,0.0,0.0,0.0,0.0,0.0,0.0,0.0,0.0,0.0,0.0,0.0,0.0,0.0,0.0,0.0,0.0,0.0,0.0,0.0,0.0,0.0,0.0,0.0,0.0,0.0,1.6497,1.6621,1.6941,1.7123,0.0,0.0,1.6844,1.7353,1.7219,0.0,0.0,0.0,0.0,0.0,0.0,0.0,0.0,0.0,0.0,0.0,0.0,0.0,0.0,0.0,0.0,0.0,0.0,0.0,0.0,0.0,0.0,0.0,0.0,0.0,0.0,0.0,0.0,0.0,0.0,0.0,0.0,0.0,0.0,0.0,0.0,0.0,0.0,0.0,0.0,0.0,0.0,0.0,0.0,0.0,0.0,0.0,0.0,0.0,0.0,0.0,0.0,0.0,0.0,0.0,1.7681,1.9236,1.9844,2.0454,2.1174,2.1211,2.1057,2.0735,1.9883,1.8916,0.0,0.0,0.0,0.0,0.0,0.0,0.0,0.0,0.0,0.0,0.0,0.0,0.0,0.0,0.0,0.0,0.0,0.0,0.0,0.0,0.0,0.0,0.0,0.0,0.0,0.0,0.0,0.0,0.0,0.0,0.0,0.0,0.0,0.0,0.0,0.0,0.0,0.0,0.0,0.0,0.0,0.0,1.7181,1.7748,0.0,0.0,0.0,1.7989,1.8083,0.0,0.0,0.0,0.0,0.0,0.0,0.0,0.0,0.0,0.0,0.0,0.0,0.0,0.0,0.0,0.0,0.0,0.0,0.0,0.0,0.0,0.0,0.0,0.0,0.0,0.0,0.0,0.0,0.0,0.0,0.0,0.0,0.0,0.0,0.0,0.0,0.0,0.0,0.0,0.0,0.0,0.0,0.0,0.0,0.0,0.0,0.0,0.0,0.0,0.0,0.0,0.0,0.0,0.0,0.0,0.0,0.0,1.8678,1.9406,2.0204,2.106,2.1153,2.1013,2.0596,1.9659,0.0,0.0,0.0,0.0,0.0,0.0,0.0,0.0,0.0,0.0,0.0,0.0,0.0,0.0,0.0,0.0,0.0,0.0,0.0,0.0,0.0,0.0,0.0,0.0,0.0,0.0,0.0,1.0615,0.0,0.0,0.0,0.0,0.0,0.0,0.0,0.0,0.0,0.0,0.0,0.0,0.0,0.0,1.7526,1.7621,1.8307,1.8671,0.0,0.0,1.8701,1.8731,1.8177,1.7466,0.0,0.0,0.0,0.0,0.0,0.0,0.0,0.0,0.0,0.0,0.0,0.0,0.0,0.0,0.0,0.0,0.0,0.0,0.0,0.0,0.0,0.0,0.0,0.0,0.0,0.0,0.0,0.0,0.0,0.0,0.0,0.0,0.0,0.0,0.0,0.0,0.0,0.0,0.0,0.0,0.0,0.0,0.0,0.0,0.0,0.0,0.0,0.0,0.0,0.0,0.0,0.0,0.0,0.0,1.6943,1.7896,1.9141,2.0079,2.0694,2.1024,2.0903,2.0219,1.933,1.8218,0.0,0.0,0.0,0.0,0.0,0.0,0.0,0.0,0.0,0.0,0.0,0.0,0.0,0.0,0.0,0.0,0.0,0.0,0.0,0.0,0.0,0.0,0.0,0.0,0.0,0.0,0.0,0.0,0.0,0.0,0.0,0.0,0.0,0.0,0.0,0.0,0.0,0.0,0.0,0.0,0.0,1.7618,1.793,1.8237,1.8706,0.0,1.8783,1.8377,1.9208,1.8029,1.6797,1.6054,0.0,0.0,0.0,0.0,0.0,0.0,0.0,0.0,0.0,0.0,0.0,0.0,0.0,0.0,0.0,0.0,0.0,0.0,0.0,0.0,0.0,0.0,0.0,0.0,0.0,0.0,0.0,0.0,0.0,0.0,0.0,0.0,0.0,0.0,0.0,0.0,0.0,0.0,0.0,0.0,0.0,0.0,0.0,0.0,0.0,0.0,0.0,0.0,0.0,0.0,0.0,0.0,0.0,1.6582,1.7598,1.867,1.9696,2.063,2.0673,2.043,1.9964,1.9055,1.7882,0.0,0.0,0.0,0.0,0.0,0.0,0.0,0.0,0.0,0.0,0.0,0.0,0.0,0.0,0.0,0.0,0.0,0.0,0.0,0.0,0.0,0.0,0.0,0.0,0.0,0.0,0.0,0.0,1.1496,1.1829,1.2124,0.0,0.0,0.0,0.0,0.0,0.0,0.0,0.0,0.0,0.0,1.614,1.6514,1.6637,0.0,0.0,1.6769,1.6547,1.682,1.6239,1.5551,1.4999,1.4077,0.0,0.0,0.0,0.0,0.0,0.0,0.0,0.0,0.0,0.0,0.0,0.0,0.0,0.0,0.0,0.0,0.0,0.0,0.0,0.0,0.0,0.0,0.0,0.0,0.0,0.0,0.0,0.0,0.0,0.0,0.0,0.0,0.0,0.0,0.0,0.0,0.0,0.0,0.0,0.0,0.0,0.0,0.0,0.0,0.0,0.0,0.0,0.0,0.0,0.0,0.0,0.0,1.6066,1.6713,1.8177,1.9208,1.9695,2.0009,1.9942,1.954,1.8717,1.7652,0.0,0.0,0.0,0.0,0.0,0.0,0.0,0.0,0.0,0.0,0.0,0.0,0.0,0.0,0.0,0.0,0.0,0.0,0.0,0.0,0.0,0.0,0.0,0.0,0.0,0.0,0.0,0.0,1.1227,1.1585,1.1917,0.0,0.0,0.0,0.0,0.0,0.0,0.0,0.0,0.0,0.0,1.4947,1.5314,1.5271,1.5388,1.5642,1.5352,1.5089,1.5155,1.4568,1.4036,1.3834,0.0,0.0,0.0,0.0,0.0,0.0,0.0,0.0,0.0,0.0,0.0,0.0,0.0,0.0,0.0,0.0,0.0,0.0,0.0,0.0,0.0,0.0,0.0,0.0,0.0,0.0,0.0,1.5942,0.0,0.0,1.617,0.0,0.0,0.0,0.0,0.0,0.0,0.0,0.0,0.0,0.0,0.0,0.0,0.0,0.0,0.0,0.0,0.0,0.0,0.0,0.0,0.0,0.0,1.5419,1.4977,1.7503,1.843,1.7609,1.9004,1.941,1.8865,1.8303,1.7533,1.6534,0.0,0.0,0.0,0.0,0.0,0.0,0.0,0.0,0.0,0.0,0.0,0.0,0.0,0.0,0.0,0.0,0.0,0.0,0.0,0.0,0.0,0.0,0.0,0.0,0.0,0.0,1.0541,1.1057,1.1467,0.0,0.0,0.0,0.0,0.0,0.0,0.0,0.0,0.0,1.3075,1.3742,1.4264,1.4471,1.4508,1.4702,1.5669,1.4788,1.4287,1.4696,1.3302,1.225,0.0,0.0,0.0,0.0,0.0,0.0,0.0,0.0,0.0,0.0,0.0,0.0,0.0,0.0,0.0,0.0,0.0,0.0,0.0,0.0,0.0,0.0,0.0,0.0,0.0,0.0,0.0,1.843,1.8365,0.0,0.0,0.0,0.0,0.0,0.0,0.0,0.0,0.0,0.0,0.0,1.8712,1.8674,0.0,0.0,0.0,0.0,0.0,0.0,0.0,0.0,0.0,0.0,0.0,0.0,1.4226,1.4487,1.5504,1.6069,1.6209,1.6434,1.6492,1.6314,1.5743,1.4867,1.3655,0.0,0.0,0.0,0.0,0.0,0.0,0.0,0.0,0.0,0.0,0.0,0.0,0.0,0.0,0.0,0.0,0.0,0.0,0.0,0.0,0.0,0.0,0.0,0.0,0.0,1.0205,0.0,0.0,0.0,0.0,0.0,0.0,0.0,0.0,0.0,0.0,0.0,1.178,1.2102,1.2174,1.2203,1.2295,1.1942,1.1826,0.0,0.0,0.0,0.0,0.0,0.0,0.0,0.0,0.0,0.0,0.0,0.0,0.0,0.0,0.7963,0.8904,0.8723,0.812,0.6998,0.0,0.0,0.0,0.0,0.0,0.0,0.0,0.0,0.0,0.0,0.0,0.0,0.0,0.0,1.9973,0.0,2.0242,0.0,0.0,0.0,0.0,0.0,0.0,0.0,0.0,1.9486,1.9654,1.9741,1.933,1.8847,0.0,1.7739,1.6546,0.0,0.0,0.0,0.0,0.0,0.0,0.0,0.0,1.3423,1.3581,1.4272,1.4568,1.4551,1.478,1.4828,1.4702,1.4115,1.3337,1.2352,1.1609,1.0982,0.0,0.0,0.0,0.0,0.0,0.0,0.0,0.0,0.0,0.0,0.0,0.0,0.0,0.0,0.0,0.0,0.0,0.0,0.0,0.0,0.0,0.0,0.0,0.9667,0.0,0.0,0.0,0.0,0.0,0.0,0.0,0.0,0.0,1.1146,1.1143,1.1152,1.1314,1.1056,1.0754,1.0495,0.0,0.0,0.0,0.0,0.0,0.0,0.0,0.7734,0.749,0.7526,0.7711,0.7844,0.8112,0.821,0.8001,0.0,0.0,0.7997,0.7506,0.6494,0.5474,0.4942,0.4406,0.3436,0.313,0.3073,0.0,0.0,0.0,0.0,0.0,0.0,0.0,0.0,2.0219,2.0483,0.0,2.0737,0.0,0.0,0.0,0.0,0.0,1.9609,0.0,0.0,1.9948,2.0131,1.9891,1.873,1.8171,1.8111,1.7237,1.596,1.4364,1.3755,0.0,0.0,0.0,0.0,0.0,0.0,1.2992,1.234,1.3701,1.388,1.2724,1.3825,1.4314,1.3981,1.3451,1.3057,1.2704,1.1933,1.1161,1.0346,1.0084,0.0,0.0,0.0,0.0,0.0,0.0,0.0,0.0,0.0,0.0,0.0,0.0,0.0,0.0,0.0,0.0,0.0,0.0,0.0,0.0,0.8594,0.0,0.0,0.0,0.0,0.0,0.0,0.0,0.0,0.0,0.0,1.0204,1.0524,1.0675,1.0578,0.0,0.0,0.0,0.0,0.877,0.8141,0.7749,0.7239,0.6639,0.6156,0.5751,0.5184,0.0,0.0,0.4803,0.4591,0.4452,0.4375,0.4379,0.4754,0.6302,0.4934,0.3496,0.3366,0.2983,0.2524,0.239,0.2125,0.2001,2.2196,0.0,0.0,0.0,0.0,2.0621,2.1226,2.2338,2.2068,2.202,2.2131,2.2088,0.0,0.0,0.0,0.0,0.0,0.0,1.9775,1.9014,1.9388,1.9093,1.8128,1.7786,1.7509,1.731,1.6838,1.5988,1.4863,1.3627,1.2905,1.2714,0.0,0.0,0.0,0.0,1.1779,1.1518,1.1705,1.1639,1.1262,1.1639,1.1772,1.1664,1.1558,1.13,1.1116,1.0767,1.0501,1.0236,0.9813,0.0,0.0,0.0,0.0,0.0,0.0,0.0,0.0,0.0,0.0,0.0,0.0,0.0,0.0,0.0,0.0,0.0,0.0,0.0,0.8271,0.7973,0.7946,0.0,0.0,0.0,0.0,0.0,0.0,0.0,0.0,0.0,0.6927,0.7944,0.8577,0.0,0.0,0.8045,0.7741,0.7046,0.6527,0.6613,0.5641,0.0,0.4954,0.4402,0.3904,0.3459,0.3677,0.4047,0.4388,0.4654,0.4757,0.4756,0.3837,0.321,0.3629,0.3957,0.3596,0.2752,0.233,0.1905,0.0962,0.0669,0.0596,2.2253,2.1105,2.1566,2.1958,2.235,2.2231,2.2494,2.3005,2.2737,2.2663,2.2768,2.2652,2.2319,2.1867,2.1126,0.0,0.0,0.0,1.8748,1.8052,1.8394,1.8154,1.7378,1.6921,1.6546,1.6211,1.5903,1.5088,1.3881,1.3417,1.2827,1.2177,0.0,0.0,1.1874,1.1476,1.1295,1.1338,1.1003,1.0802,1.0802,1.0729,1.0692,1.0688,1.0627,1.0542,1.0387,1.0262,1.0096,0.9978,0.9677,0.9481,0.0,0.0,0.0,0.0,0.0,0.0,0.0,0.0,0.0,0.0,0.0,0.9319,0.916,0.0,0.0,0.0,0.8009,0.7604,0.7522,0.7145,0.0,0.0,0.0,0.0,0.0,0.0,0.0,0.5251,0.5142,0.4904,0.4536,0.5213,0.5992,0.6565,0.644,0.6213,0.5896,0.0,0.4783,0.4774,0.3844,0.3207,0.3245,0.2747,0.224,0.1727,0.1899,0.2152,0.2324,0.2576,0.2664,0.2429,0.1646,0.1019,0.1019,0.1607,0.1955,0.1364,0.1291,0.0914,-0.0077,-0.0231,-0.0307,2.1055,2.1318,2.3596,2.4005,2.3265,2.3545,2.3137,2.2316,2.23,2.2387,2.2545,2.2308,2.2229,2.2314,2.0587,0.0,1.8103,1.7628,1.7246,1.692,1.7153,1.7208,1.7032,1.5983,1.5278,1.4966,1.4636,1.3615,1.2157,1.313,1.2969,1.1631,1.0916,1.0905,1.143,1.1228,1.1286,1.1618,1.1183,1.098,1.0964,1.0785,1.0684,1.0668,1.0521,1.0366,1.0334,1.0229,0.9981,0.9648,0.9643,0.9406,0.8956,0.0,0.0,0.0,0.0,0.0,0.0,0.0,0.0,0.0,0.0,0.0,0.0,0.0,0.0,0.0,0.7305,0.0,0.6221,0.6139,0.0,0.0,0.0,0.5477,0.4822,0.464,0.4342,0.3854,0.0,0.0,0.2672,0.2606,0.3126,0.454,0.4756,0.4509,0.3801,0.3649,0.3373,0.2824,0.2309,0.1946,0.1667,0.1302,0.085,0.0234,-0.0079,-0.0157,-0.0392,-0.0471,-0.0785,-0.0942,-0.1257,-0.1256,-0.1257,-0.1097,-0.1021,-0.0157,-0.0078,-0.0235,-0.0549,-0.0627,-0.0784,2.1825,2.1859,2.2459,2.2282,2.1598,2.1679,2.1296,2.0559,2.0461,2.0117,1.9719,1.9452,1.926,1.9021,1.8339,1.7848,1.7568,1.746,1.6879,1.5959,1.6015,1.551,1.457,1.4277,1.3978,1.367,1.3567,1.3067,1.223,1.2418,1.209,1.1196,1.074,1.075,1.1269,1.1208,1.1077,1.0932,1.0839,1.0813,1.0972,1.0789,1.0631,1.0501,1.0399,1.0302,1.0026,0.9973,0.9851,0.9583,0.938,0.92,0.9059,0.8606,0.0,0.0,0.0,0.0,0.0,0.0,0.0,0.0,0.0,0.8576,0.8428,0.0,0.7859,0.0,0.6254,0.5408,0.5486,0.4981,0.0,0.0,0.4582,0.4289,0.3528,0.3205,0.2871,0.2324,0.1906,0.156,0.1143,0.1147,0.115,0.1237,0.221,0.2859,0.2626,0.2175,0.1808,0.16,0.0993,0.0537,0.0466,0.0078,-0.0235,-0.0393,-0.0707,-0.1021,-0.1099,-0.1099,-0.1178,-0.1257,-0.1335,-0.1335,-0.1335,-0.1335,-0.1257,-0.1021,-0.1021,-0.1021,-0.1099,-0.1178,-0.1178,1.9814,1.9877,2.0132,2.001,1.9715,2.0441,2.049,1.9986,1.9586,1.9208,1.8816,1.8604,1.8309,1.7846,1.7144,1.6738,1.6568,1.6042,1.5391,1.4748,1.4753,1.4396,1.3688,1.3569,1.3324,1.296,1.223,1.1933,1.1941,1.0842,1.0371,1.0472,0.969,0.9407,0.9502,1.0146,1.0442,1.0277,0.9905,0.9584,0.9313,0.9158,0.9263,0.9515,0.9265,0.9264,0.9444,0.9193,0.9026,0.8886,0.871,0.8547,0.8398,0.7937,0.7519,0.0,0.0,0.0,0.0,0.0,0.0,0.0,0.0,0.0,0.0,0.0,0.6635,0.6083,0.5211,0.4726,0.4797,0.4339,0.3931,0.3717,0.3429,0.301,0.2456,0.1999,0.1531,0.1204,0.0835,0.0536,0.031,0.0311,0.0234,0.0,0.0699,0.1232,0.1232,0.0924,0.0694,0.0621,0.0311,-0.0078,-0.0235,-0.0628,-0.0942,-0.0942,-0.1099,-0.1335,-0.1571,-0.1571,-0.1649,-0.1807,-0.1807,-0.212,-0.2746,-0.2981,-0.3137,-0.3841,-0.4076,-0.345,-0.1963,-0.2119,-0.2745,1.6569,1.6667,1.7249,1.7571,1.7748,1.9154,1.9658,1.9556,1.89,1.8496,1.8386,1.8227,1.7876,1.7362,1.6298,1.565,1.5363,1.4276,1.3731,1.3726,1.3583,1.3449,1.3384,1.296,1.2535,1.2109,1.0714,1.0475,1.122,0.9015,0.8468,0.9377,0.8343,0.7614,0.737,0.8483,0.9267,0.9508,0.8772,0.7994,0.7288,0.7166,0.7485,0.8281,0.7836,0.7904,0.8602,0.815,0.7909,0.7889,0.7839,0.7668,0.7357,0.7067,0.6733,0.0,0.5736,0.0,0.0,0.0,0.0,0.0,0.0,0.0,0.0,0.5964,0.5326,0.4516,0.4296,0.4128,0.4085,0.3812,0.3418,0.2906,0.2404,0.1899,0.1604,0.0964,0.0528,0.054,0.0234,0.0,0.0,0.0,0.0,0.0,0.0,0.0,0.0,0.0,0.0078,-0.0079,-0.0157,-0.0392,-0.0628,-0.1099,-0.1492,-0.1649,-0.1884,-0.1963,-0.2747,-0.2747,-0.2826,-0.314,-0.3297,-0.3687,-0.5093,-0.5327,-0.5796,-0.6969,-0.7125,-0.6264,-0.3764,-0.3841,-0.4856,1.4508,1.4423,1.4549,1.5079,1.5864,1.5629,1.6304,1.7485,1.6662,1.5904,1.5229,1.5127,1.5082,1.4985,1.4737,1.4619,1.4552,1.4142,1.3953,1.3944,1.2915,1.223,1.1679,1.0834,0.9983,0.9128,0.8827,0.8647,0.865,0.816,0.7858,0.7858,0.7375,0.695,0.6585,0.0,0.0,0.0,0.7957,0.7645,0.747,0.7293,0.7304,0.7497,0.7441,0.0,0.7486,0.7428,0.7298,0.7191,0.693,0.0,0.0,0.0,0.0,0.0,0.0,0.0,0.0,0.0,0.0,0.0,0.3791,0.4077,0.4753,0.4631,0.4325,0.3743,0.3444,0.3194,0.3008,0.2703,0.2336,0.1975,0.186,0.1531,0.0899,0.0684,0.0462,0.0156,0.0,0.0,0.0,0.0,0.0,0.0,0.0,0.0,0.0,0.0,0.0,-0.0393,-0.0785,-0.1021,-0.1178,-0.1571,-0.2433,-0.3371,-0.4075,-0.4779,-0.5952,-0.6266,-0.6342,-0.6424,-0.658,-0.6578,-0.6967,-0.7045,-0.7201,-0.7515,-0.7593,-0.7281,-0.6577,-0.6655,-0.6967,1.2958,1.2929,1.3257,1.3664,0.0,1.3718,1.411,1.4958,1.5201,1.4982,1.4473,1.4473,1.4416,1.4249,1.3739,1.3546,1.3483,1.2882,1.259,1.2519,1.1615,1.1009,1.0696,0.9636,0.8866,0.8307,0.7516,0.7368,0.7797,0.6578,0.6151,0.6639,0.5847,0.536,0.5177,0.4991,0.5419,0.6396,0.6299,0.6047,0.5702,0.5573,0.5684,0.6144,0.5937,0.0,0.0,0.0,0.0,0.0,0.0,0.0,0.0,0.0,0.0,0.4355,0.3945,0.3518,0.3135,0.3038,0.2937,0.2829,0.2708,0.2849,0.3416,0.3258,0.3087,0.2892,0.2736,0.2519,0.2237,0.2045,0.1855,0.1527,0.132,0.0967,0.0685,0.0461,0.0233,0.0,0.0,0.0,0.0,0.0,0.0,0.0,-0.0157,-0.0393,-0.0314,-0.0314,-0.0471,-0.0864,-0.1335,-0.1885,-0.2667,-0.3137,-0.3999,-0.5481,-0.6106,-0.6577,-0.7359,-0.7515,-0.7515,-0.7515,-0.7667,-0.7976,-0.8913,-0.9148,-0.9537,-1.0083,-1.0236,-1.0161,-1.0006,-0.9306,-0.8759,1.1519,1.1446,1.2041,1.2342,1.2382,1.2386,1.2433,1.2734,0.0,0.0,0.0,1.4102,1.4007,1.3789,1.2953,1.2504,1.2504,1.158,1.1124,1.093,1.0193,0.9732,0.9472,0.8363,0.7752,0.7559,0.6217,0.6113,0.7092,0.4996,0.4439,0.5356,0.4439,0.3888,0.3888,0.3888,0.4195,0.4679,0.469,0.4412,0.3919,0.382,0.4106,0.4838,0.4438,0.4479,0.5007,0.4631,0.4327,0.4043,0.4002,0.3973,0.3961,0.3704,0.3513,0.3504,0.3158,0.2789,0.2513,0.2363,0.2235,0.1937,0.2007,0.2161,0.2431,0.2224,0.214,0.2108,0.2085,0.1982,0.165,0.1666,0.1537,0.111,0.0818,0.0602,0.046,0.0232,0.0,0.0,0.0,0.0,0.0,0.0,-0.0549,0.0,-0.1412,-0.1647,-0.1648,-0.1648,-0.157,-0.1962,-0.2746,-0.3529,-0.4544,-0.5169,-0.6106,-0.7591,-0.7905,-0.8059,-0.837,-0.8526,-0.8528,-0.8915,-0.8908,-0.9684,-1.0856,-1.1402,-1.2024,-1.2962,-1.32,-1.3123,-1.2733,-1.164,-1.0707,0.9453,0.9336,0.9406,0.9945,1.0762,1.0762,1.1157,1.196,1.2153,1.2212,1.2188,1.2188,1.2177,1.2154,1.2022,1.1888,1.188,1.1614,1.1095,1.0432,0.9352,0.8209,0.7058,0.6032,0.5262,0.4681,0.4428,0.4336,0.4453,0.4159,0.4011,0.4134,0.4011,0.3888,0.3888,0.3888,0.395,0.4011,0.4002,0.3974,0.3921,0.3902,0.3986,0.428,0.397,0.3936,0.4219,0.3977,0.375,0.3644,0.3458,0.3291,0.3256,0.2775,0.251,0.2518,0.2258,0.2061,0.2113,0.2068,0.1908,0.1695,0.1661,0.1809,0.2205,0.2235,0.2072,0.184,0.178,0.165,0.1308,0.1239,0.1022,0.066,0.0597,0.0454,0.0,0.0,0.0,0.0,0.0,0.0,0.0,-0.1646,-0.2662,-0.2897,-0.3913,-0.5475,-0.54,-0.4776,-0.3995,-0.4229,-0.556,-0.6655,-0.6967,-0.7123,-0.7825,-0.9382,-0.9695,-1.0239,-1.1563,-1.1872,-1.1953,-1.2652,-1.2491,-1.28,-1.3116,-1.3274,-1.3428,-1.3663,-1.3663,-1.3586,-1.3432,-1.3116,-1.2965,0.9158,0.9054,0.8981,0.919,0.9614,0.9547,0.9749,1.0152,1.0076,1.0704,1.1758,1.1824,1.1824,1.1762,1.1167,1.0902,1.0899,0.9842,0.9156,0.875,0.7454,0.6517,0.5921,0.5037,0.4435,0.417,0.4113,0.4085,0.4078,0.3962,0.3684,0.3183,0.2601,0.2837,0.3826,0.3393,0.3331,0.3702,0.3826,0.3813,0.3665,0.3634,0.3604,0.3458,0.3312,0.3169,0.3145,0.2992,0.2877,0.268,0.2582,0.2475,0.2479,0.22,0.2105,0.2139,0.2033,0.1997,0.204,0.1866,0.1761,0.1597,0.1409,0.1423,0.1582,0.1592,0.1541,0.1357,0.1369,0.1305,0.0875,0.0146,-0.0511,-0.0957,-0.1721,-0.2348,-0.2598,-0.2714,-0.2743,-0.2743,-0.2899,-0.3056,-0.3055,-0.4069,-0.4849,-0.4927,-0.6022,-0.6805,-0.7277,-0.7431,-0.7117,-0.6419,-0.6889,-0.7827,-0.8606,-0.8837,-0.9615,-1.1095,-1.1563,-1.203,-1.3042,-1.3274,-1.3509,-1.3663,-1.3898,-1.4053,-1.4053,-1.428,-1.428,-1.413,-1.4053,-1.4053,-1.3818,-1.3895,-1.3898,0.9253,0.9171,0.9171,0.9103,0.8984,0.8861,0.8796,0.8761,0.8738,0.9543,1.0969,1.1101,1.1101,1.0969,1.0177,0.9845,0.9646,0.8248,0.7381,0.7114,0.5982,0.5312,0.5108,0.4523,0.4237,0.4163,0.3914,0.3755,0.375,0.3446,0.2973,0.2206,0.1246,0.1546,0.296,0.2466,0.2404,0.296,0.3455,0.3579,0.3393,0.3353,0.3211,0.2906,0.2816,0.2613,0.2312,0.226,0.2142,0.1897,0.1902,0.1917,0.1939,0.1947,0.191,0.1887,0.1899,0.185,0.1813,0.1642,0.1464,0.1345,0.108,0.0752,0.0419,0.0351,0.0354,0.043,0.0435,0.0219,-0.0656,-0.1675,-0.2487,-0.2889,-0.3974,-0.4553,-0.4839,-0.4977,-0.5169,-0.5169,-0.548,-0.5713,-0.5867,-0.649,-0.7191,-0.7736,-0.7974,-0.8288,-0.8684,-0.9773,-0.985,-0.9151,-0.8606,-0.9151,-1.0397,-1.063,-1.1253,-1.2501,-1.2888,-1.32,-1.3432,-1.3663,-1.3895,-1.4045,-1.428,-1.4515,-1.4592,-1.4737,-1.4814,-1.4588,-1.4511,-1.4438,-1.4122,-1.428,-1.4361,0.9296,0.9288,0.9283,0.9223,0.9109,0.8917,0.8878,0.8783,0.8755,0.8755,0.8995,0.8917,0.8989,0.8853,0.8851,0.8784,0.8717,0.7848,0.7116,0.6451,0.5716,0.5045,0.4441,0.43,0.4298,0.4088,0.3175,0.2759,0.2691,0.1684,0.115,0.101,0.044,0.0125,0.0432,0.0862,0.117,0.1231,0.2465,0.3085,0.3022,0.3019,0.3017,0.3017,0.2703,0.2501,0.2348,0.2136,0.2016,0.1932,0.1952,0.1969,0.1974,0.1996,0.1824,0.1578,0.1534,0.1425,0.1117,0.1133,0.094,0.0674,0.0408,-0.0276,-0.1747,-0.1981,-0.1863,-0.1593,-0.1454,-0.2184,-0.393,-0.4293,-0.4461,-0.4514,-0.4945,-0.4856,-0.5222,-0.5285,-0.5557,-0.5557,-0.6336,-0.6256,-0.6802,-0.805,-0.9765,-1.1092,-1.125,-1.1327,-1.1485,-1.1721,-1.2034,-1.1876,-1.1956,-1.1879,-1.2189,-1.2579,-1.273,-1.3042,-1.3355,-1.374,-1.4053,-1.4207,-1.4438,-1.4584,-1.4814,-1.4895,-1.4891,-1.4964,-1.4968,-1.4891,-1.4891,-1.4891,-1.4887,-1.4968,-1.4814,0.9304,0.9304,0.9304,0.9277,0.922,0.9038,0.9033,0.8984,0.891,0.881,0.8704,0.8696,0.8658,0.859,0.8587,0.8387,0.7917,0.7183,0.6449,0.5781,0.5045,0.4238,0.343,0.3362,0.3026,0.2419,0.1938,0.1732,0.1462,0.0131,-0.0324,0.0,-0.1531,-0.1908,-0.0884,-0.1002,-0.0935,-0.0561,0.0,0.0246,0.0308,0.1788,0.2591,0.2407,0.2284,0.2216,0.2143,0.2031,0.1971,0.196,0.197,0.1922,0.1688,0.1698,0.1589,0.1228,0.1247,0.0796,-0.02,-0.0402,-0.0941,-0.1947,-0.2312,-0.2827,-0.3493,-0.3682,-0.4016,-0.464,-0.3999,-0.3856,-0.4729,-0.5528,-0.6139,-0.6363,-0.7267,-0.8038,-0.8285,-0.8695,-0.8993,-0.8993,-0.9379,-0.9534,-0.9767,-1.0546,-1.156,-1.2421,-1.2501,-1.2501,-1.2501,-1.2501,-1.2579,-1.2811,-1.2811,-1.2891,-1.2891,-1.2965,-1.3197,-1.3428,-1.3818,-1.4207,-1.4361,-1.4665,-1.4818,-1.4968,-1.4968,-1.5045,-1.4968,-1.5045,-1.5045,-1.5122,-1.5045,-1.5045,-1.5045,-1.5424,-1.5578,0.8285,0.8724,0.9085,0.9304,0.9296,0.9217,0.9163,0.9054,0.8968,0.8793,0.8547,0.8512,0.8314,0.8099,0.82,0.7917,0.7116,0.618,0.5443,0.4841,0.3901,0.3026,0.2285,0.2285,0.1815,0.1142,0.0806,0.0403,-0.0134,-0.1331,-0.1774,-0.1688,-0.3435,-0.375,-0.2569,-0.2864,-0.2787,-0.2341,-0.1942,-0.1808,-0.1683,0.0062,0.1119,0.0926,0.0925,0.0925,0.0863,0.0925,0.0866,0.0869,0.0807,0.0625,0.0316,0.0254,0.0,-0.0264,-0.0334,-0.0874,-0.1948,-0.2216,-0.2824,-0.3848,-0.4307,-0.4711,-0.5057,-0.5266,-0.6116,-0.7472,-0.6759,-0.6179,-0.6108,-0.705,-0.7829,-0.81,-0.9542,-1.0477,-1.0635,-1.121,-1.134,-1.1495,-1.1488,-1.2037,-1.2037,-1.2189,-1.2424,-1.2501,-1.2501,-1.2501,-1.2501,-1.2579,-1.2811,-1.3042,-1.32,-1.3278,-1.3278,-1.3432,-1.3586,-1.3818,-1.4284,-1.4515,-1.4592,-1.4814,-1.4968,-1.4968,-1.5045,-1.5045,-1.5045,-1.5045,-1.5497,-1.5727,-1.5952,-1.6326,-1.6927,-1.716,-1.7459,0.5746,0.7197,0.8649,0.9085,0.923,0.9221,0.9159,0.8931,0.9057,0.8633,0.796,0.7729,0.7333,0.663,0.7024,0.7118,0.625,0.4701,0.3896,0.3628,0.2151,0.1277,0.1142,0.1209,0.1075,0.0739,-0.0135,-0.1278,-0.2824,-0.309,-0.347,-0.4083,-0.4802,-0.5096,-0.4847,-0.438,-0.4115,-0.3921,-0.295,-0.231,-0.231,-0.2118,-0.1899,-0.1857,-0.1787,-0.1605,-0.1665,-0.1787,-0.1798,-0.1886,-0.2011,-0.2341,-0.2568,-0.2796,-0.3032,-0.3409,-0.3755,-0.3958,-0.4092,-0.4163,-0.4319,-0.4579,-0.4919,-0.5267,-0.6746,-0.6978,-0.7756,-0.9516,-0.9368,-0.9224,-0.8938,-0.9155,-0.9691,-0.9982,-1.0482,-1.0981,-1.1219,-1.1631,-1.1879,-1.1882,-1.2192,-1.2424,-1.2421,-1.2501,-1.2501,-1.2501,-1.2501,-1.2501,-1.2579,-1.2814,-1.3042,-1.3278,-1.3432,-1.3663,-1.374,-1.3898,-1.4211,-1.4515,-1.4818,-1.5045,-1.4968,-1.4968,-1.5117,-1.5117,-1.5271,-1.5348,-1.5122,-1.5497,-1.6334,-1.7012,-1.8138,-1.8739,-1.888,-2.008,-2.0305,0.502,0.5528,0.6108,0.6326,0.6471,0.7415,0.783,0.7872,0.8809,0.8747,0.787,0.711,0.6058,0.4798,0.4293,0.4331,0.457,0.3357,0.2485,0.2083,0.1411,0.0739,0.0067,0.0067,-0.0336,-0.1076,-0.1816,-0.2757,-0.3831,-0.4371,-0.4763,-0.508,-0.5673,-0.6055,-0.5954,-0.5706,-0.5548,-0.5478,-0.4983,-0.4762,-0.4703,-0.4762,-0.4736,-0.4628,-0.2978,-0.2155,-0.2155,-0.2091,-0.2223,-0.2552,-0.2679,-0.2954,-0.3386,-0.3763,-0.4002,-0.4088,-0.4226,-0.4696,-0.5506,-0.5685,-0.6268,-0.7196,-0.7622,-0.7938,-0.8634,-0.9008,-0.9585,-1.0095,-1.0311,-1.0239,-1.0167,-1.0239,-1.042,-1.0655,-1.1021,-1.1422,-1.1648,-1.2034,-1.2269,-1.2269,-1.2427,-1.2501,-1.2501,-1.2501,-1.2501,-1.2501,-1.2501,-1.2656,-1.2888,-1.3042,-1.3428,-1.3818,-1.4053,-1.4588,-1.6029,-1.4891,-1.4515,-1.5049,-1.5424,-1.5654,-1.5654,-1.7164,-1.7692,-1.6177,-1.6029,-1.6707,-1.6931,-1.7981,-1.8587,-1.9257,-2.0311,-2.0761,-2.068,-2.1882,-2.2031,0.393,0.4002,0.4511,0.4583,0.4654,0.5596,0.6031,0.6031,0.6972,0.6941,0.6103,0.5285,0.4163,0.292,0.1791,0.1639,0.23,0.1616,0.1008,0.0538,0.0202,-0.0336,-0.1009,-0.1278,-0.175,-0.249,-0.3229,-0.39,-0.4637,-0.5178,-0.5515,-0.5783,-0.6254,-0.652,-0.651,-0.639,-0.6362,-0.6347,-0.6298,-0.6272,-0.6268,-0.6333,-0.6335,-0.607,-0.4633,-0.3637,-0.3544,-0.3604,-0.3807,-0.4077,-0.4337,-0.4691,-0.5282,-0.5536,-0.5767,-0.5832,-0.5899,-0.625,-0.7159,-0.7563,-0.8113,-0.8952,-0.959,-0.9921,-0.9965,-1.0263,-1.0521,-1.0603,-1.0678,-1.0675,-1.0815,-1.089,-1.0932,-1.1101,-1.1466,-1.1805,-1.2068,-1.2347,-1.2501,-1.2501,-1.2656,-1.2656,-1.2733,-1.2811,-1.2888,-1.2888,-1.2891,-1.312,-1.3883,-1.4264,-1.4725,-1.5722,-1.6262,-1.6864,-1.7697,-1.7245,-1.6864,-1.7317,-1.7321,-1.7093,-1.7245,-1.8905,-1.9278,-1.7687,-1.7459,-1.8285,-1.9338,-2.0455,-2.1204,-2.1727,-2.2404,-2.2936,-2.3159,-2.3529,-2.3758,0.2329,0.2475,0.3929,0.4146,0.3852,0.4068,0.3922,0.3703,0.3848,0.3702,0.3189,0.2441,0.1999,0.0994,0.0,-0.0482,-0.0411,-0.0407,-0.0472,-0.0606,-0.1481,-0.1953,-0.2087,-0.2623,-0.3094,-0.3362,-0.3966,-0.4705,-0.5381,-0.5515,-0.585,-0.6319,-0.6453,-0.652,-0.652,-0.651,-0.6512,-0.6506,-0.6496,-0.6504,-0.6518,-0.65,-0.6494,-0.6566,-0.6562,-0.6421,-0.6074,-0.6327,-0.6502,-0.6769,-0.7297,-0.8004,-0.8087,-0.8246,-0.8584,-0.8648,-0.8917,-0.9043,-0.9214,-0.9449,-0.9506,-0.9754,-1.0051,-1.0401,-1.0487,-1.0521,-1.0746,-1.0969,-1.1044,-1.1116,-1.1472,-1.1472,-1.151,-1.1554,-1.1823,-1.211,-1.2403,-1.2498,-1.2501,-1.2579,-1.2888,-1.3123,-1.3274,-1.3656,-1.3964,-1.4195,-1.4191,-1.4645,-1.5935,-1.6393,-1.7383,-1.8522,-1.8754,-1.8835,-1.9359,-1.9736,-1.9811,-1.9881,-1.9661,-1.9434,-1.9283,-2.0188,-2.0553,-1.9494,-1.9854,-2.068,-2.113,-2.2255,-2.3085,-2.3684,-2.4435,-2.4964,-2.5111,-2.5412,-2.5939,0.0729,0.0729,0.1239,0.1385,0.1457,0.2401,0.2763,0.2763,0.3488,0.349,0.2618,0.1594,0.072,-0.0143,-0.1205,-0.1749,-0.1719,-0.171,-0.1699,-0.1754,-0.2021,-0.2222,-0.2357,-0.2893,-0.3767,-0.4574,-0.491,-0.5446,-0.6051,-0.6185,-0.6319,-0.6453,-0.652,-0.652,-0.6587,-0.652,-0.652,-0.652,-0.652,-0.652,-0.652,-0.6719,-0.6853,-0.6853,-0.7187,-0.722,-0.7101,-0.7231,-0.7379,-0.7671,-0.7939,-0.822,-0.8581,-0.8853,-0.8981,-0.9117,-0.9389,-0.9582,-0.9709,-0.9948,-1.007,-1.0168,-1.0491,-1.0771,-1.0887,-1.1109,-1.1329,-1.1404,-1.14,-1.1476,-1.1544,-1.1616,-1.178,-1.1734,-1.1925,-1.2138,-1.2422,-1.2755,-1.2881,-1.2965,-1.3278,-1.3964,-1.4952,-1.5408,-1.5863,-1.6765,-1.6917,-1.7298,-1.8057,-1.836,-1.8673,-1.9504,-1.9811,-2.0569,-2.1095,-2.1619,-2.1843,-2.1918,-2.1769,-2.1538,-2.1383,-2.1607,-2.1826,-2.1969,-2.2404,-2.2775,-2.3301,-2.3905,-2.4737,-2.5412,-2.5939,-2.6392,-2.6692,-2.6918,-2.6991,-0.0438,-0.0438,-0.0438,-0.0511,-0.0583,0.0437,0.0728,0.0728,0.1381,0.1455,0.0728,-0.0073,-0.0725,-0.1224,-0.1937,-0.227,-0.2235,-0.2223,-0.2344,-0.2526,-0.2296,-0.2357,-0.2692,-0.3565,-0.4572,-0.558,-0.5783,-0.625,-0.7051,-0.7051,-0.7252,-0.7584,-0.7653,-0.7717,-0.765,-0.7653,-0.765,-0.7653,-0.7455,-0.7254,-0.7386,-0.7715,-0.7977,-0.811,-0.8778,-0.8981,-0.8587,-0.8584,-0.8456,-0.8256,-0.8323,-0.8587,-0.8787,-0.9123,-0.9407,-0.9582,-0.9808,-1.0017,-1.0188,-1.0442,-1.0544,-1.0679,-1.0992,-1.1185,-1.1329,-1.19,-1.2255,-1.1688,-1.2678,-1.3031,-1.2678,-1.3031,-1.3319,-1.3551,-1.2631,-1.2371,-1.255,-1.3432,-1.4099,-1.4491,-1.5178,-1.6164,-1.6998,-1.7531,-1.7905,-1.8885,-1.9036,-1.9489,-1.9951,-2.0322,-2.0708,-2.1164,-2.1918,-2.2521,-2.2974,-2.3426,-2.3877,-2.3877,-2.3877,-2.3487,-2.3178,-2.3857,-2.4301,-2.422,-2.4502,-2.4877,-2.5332,-2.5786,-2.6465,-2.6991,-2.6991,-2.6991,-2.6918,-2.6918,-2.7063,-0.1168,-0.1168,-0.1168,-0.1313,-0.1604,-0.153,-0.153,-0.1968,-0.1968,-0.1821,-0.1968,-0.1895,-0.2113,-0.2252,-0.2235,-0.2292,-0.2285,-0.2401,-0.2733,-0.2988,-0.2876,-0.2908,-0.3567,-0.4641,-0.558,-0.6252,-0.6518,-0.7049,-0.7779,-0.8046,-0.8576,-0.9247,-0.9313,-0.9576,-0.9443,-0.9576,-0.951,-0.9507,-0.9114,-0.8848,-0.8848,-0.9434,-0.976,-0.9829,-1.1149,-1.1494,-1.0601,-1.0691,-1.0009,-0.8528,-0.8731,-0.9082,-0.9201,-0.954,-0.9963,-1.026,-1.0402,-1.0544,-1.0814,-1.1074,-1.1362,-1.1425,-1.1671,-1.1832,-1.2327,-1.3317,-1.3595,-1.2606,-1.4369,-1.5358,-1.4583,-1.5075,-1.5956,-1.6097,-1.4424,-1.3398,-1.3516,-1.4859,-1.585,-1.6541,-1.7981,-1.9268,-1.9268,-1.965,-1.9962,-2.0338,-2.0408,-2.1164,-2.1843,-2.2366,-2.3048,-2.3426,-2.358,-2.3803,-2.4031,-2.4179,-2.4629,-2.5065,-2.5065,-2.483,-2.467,-2.5352,-2.5953,-2.5946,-2.6012,-2.6538,-2.6918,-2.7063,-2.7063,-2.6991,-2.6991,-2.6991,-2.7209,-2.7355,-2.7638,-0.0949,-0.1168,-0.1168,-0.124,-0.1386,-0.1386,-0.1459,-0.1532,-0.1823,-0.1968,-0.1968,-0.2187,-0.2333,-0.2332,-0.2325,-0.2311,-0.2509,-0.2924,-0.3183,-0.3435,-0.39,-0.4245,-0.4725,-0.518,-0.5852,-0.6591,-0.7386,-0.7781,-0.8043,-0.8909,-0.9443,-0.9579,-0.9908,-1.0038,-1.0293,-1.0492,-1.069,-1.1083,-1.1017,-1.0889,-1.0955,-1.1347,-1.1611,-1.1677,-1.2409,-1.2674,-1.2464,-1.2922,-1.1776,-0.9137,-0.908,-0.9393,-0.9737,-1.0088,-1.0499,-1.0675,-1.0901,-1.1109,-1.1271,-1.1466,-1.1956,-1.3005,-1.3174,-1.3808,-1.4862,-1.5217,-1.5287,-1.507,-1.6056,-1.6474,-1.6197,-1.6635,-1.7151,-1.7407,-1.6771,-1.6328,-1.6616,-1.7597,-1.828,-1.8507,-1.9197,-2.0258,-2.1083,-2.1538,-2.1924,-2.275,-2.3048,-2.3129,-2.3506,-2.3729,-2.4031,-2.4179,-2.4408,-2.4636,-2.4864,-2.5012,-2.538,-2.588,-2.5953,-2.58,-2.5719,-2.5873,-2.6399,-2.6619,-2.6538,-2.6845,-2.7202,-2.742,-2.7274,-2.7202,-2.7783,-2.8217,-2.8145,-2.8209,-2.857,-0.1459,-0.1678,-0.1678,-0.1678,-0.1678,-0.1678,-0.1678,-0.1678,-0.1896,-0.2041,-0.2041,-0.2187,-0.2479,-0.277,-0.277,-0.305,-0.332,-0.3821,-0.4449,-0.541,-0.65,-0.676,-0.6514,-0.6395,-0.7044,-0.7908,-0.8728,-0.9371,-0.9965,-1.0694,-1.1354,-1.189,-1.1824,-1.2084,-1.2545,-1.2475,-1.2606,-1.2939,-1.2804,-1.2606,-1.2664,-1.3128,-1.3445,-1.3743,-1.4372,-1.4926,-1.4782,-1.4498,-1.2986,-1.0877,-1.0528,-1.0678,-1.0216,-1.0629,-1.1189,-1.1788,-1.2146,-1.2568,-1.3259,-1.3369,-1.3837,-1.4628,-1.4796,-1.5217,-1.6061,-1.6695,-1.7263,-1.6409,-1.7809,-1.8374,-1.8201,-1.8828,-1.9558,-2.0061,-2.0258,-1.9863,-1.8723,-1.9483,-2.0171,-2.0558,-2.1239,-2.2073,-2.3129,-2.3129,-2.3655,-2.426,-2.4253,-2.4334,-2.4482,-2.4629,-2.4703,-2.4784,-2.4931,-2.5079,-2.5373,-2.5593,-2.5747,-2.6253,-2.6546,-2.6465,-2.6604,-2.6604,-2.6692,-2.6991,-2.6991,-2.7136,-2.742,-2.7703,-2.7703,-2.7992,-2.8794,-2.9154,-2.893,-2.9066,-2.9433,-0.226,-0.226,-0.226,-0.226,-0.226,-0.226,-0.2187,-0.226,-0.226,-0.226,-0.226,-0.226,-0.2625,-0.3355,-0.3063,-0.379,-0.4588,-0.4798,-0.6174,-0.7652,-0.896,-0.9209,-0.8346,-0.8212,-0.8916,-0.9841,-1.0592,-1.1437,-1.2113,-1.3009,-1.3901,-1.4261,-1.4589,-1.4838,-1.4678,-1.4875,-1.5068,-1.5035,-1.4724,-1.4522,-1.4579,-1.4983,-1.5318,-1.5761,-1.685,-1.7241,-1.6695,-1.5958,-1.4483,-1.2274,-1.2805,-1.2464,-1.1455,-1.16,-1.2446,-1.36,-1.3986,-1.4539,-1.5657,-1.568,-1.6047,-1.6277,-1.6343,-1.6554,-1.7183,-1.8385,-1.8745,-1.7884,-2.0132,-2.0653,-2.0489,-2.1562,-2.2272,-2.2572,-2.3388,-2.2416,-2.0853,-2.1072,-2.2055,-2.244,-2.3729,-2.4408,-2.4629,-2.4629,-2.4556,-2.4488,-2.471,-2.4784,-2.4857,-2.5005,-2.5072,-2.5219,-2.5373,-2.5446,-2.5807,-2.61,-2.6253,-2.6546,-2.6772,-2.691,-2.7332,-2.7332,-2.7129,-2.7136,-2.742,-2.7565,-2.771,-2.792,-2.8274,-2.8707,-2.9433,-2.9505,-2.9505,-2.9855,-3.0211,-0.2041,-0.226,-0.226,-0.226,-0.226,-0.226,-0.226,-0.226,-0.226,-0.226,-0.2333,-0.2333,-0.2551,-0.2698,-0.3061,-0.3351,-0.5094,-0.5963,-0.7336,-0.9651,-1.0069,-1.0827,-1.0731,-1.0328,-1.0348,-1.1145,-1.202,-1.2878,-1.3663,-1.4486,-1.4964,-1.5234,-1.5437,-1.5499,-1.5977,-1.6173,-1.6634,-1.6964,-1.6876,-1.665,-1.664,-1.684,-1.7144,-1.7636,-1.8418,-1.8637,-1.8564,-1.8759,-1.8063,-1.653,-1.5385,-1.4934,-1.454,-1.464,-1.5004,-1.5386,-1.5559,-1.5798,-1.6117,-1.6413,-1.67,-1.7835,-1.7975,-1.8535,-2.0005,-2.0289,-2.0717,-2.0705,-2.1615,-2.2125,-2.2307,-2.2692,-2.3327,-2.3773,-2.3948,-2.3883,-2.35,-2.3655,-2.3803,-2.4031,-2.426,-2.4629,-2.4629,-2.4629,-2.4636,-2.4636,-2.4784,-2.5005,-2.5152,-2.5299,-2.544,-2.5586,-2.5733,-2.588,-2.6743,-2.71,-2.739,-2.7543,-2.7623,-2.805,-2.8403,-2.8395,-2.8395,-2.8122,-2.792,-2.813,-2.8627,-2.9059,-2.9552,-2.9775,-3.0069,-3.0275,-3.0559,-3.0781,-3.0781,-0.2114,-0.226,-0.226,-0.226,-0.226,-0.226,-0.226,-0.226,-0.226,-0.226,-0.255,-0.3205,-0.3857,-0.4292,-0.5159,-0.6319,-0.7408,-0.8562,-0.9504,-1.0737,-1.1664,-1.2666,-1.2798,-1.2934,-1.3075,-1.3201,-1.413,-1.486,-1.5367,-1.5919,-1.6454,-1.6387,-1.6392,-1.6655,-1.6923,-1.7058,-1.7286,-1.7566,-1.7717,-1.7717,-1.7723,-1.7919,-1.8401,-1.8919,-1.9409,-1.9622,-1.9769,-2.0077,-1.9796,-1.9024,-1.8282,-1.7161,-1.619,-1.6135,-1.6409,-1.7052,-1.7193,-1.7619,-1.797,-1.8326,-1.8751,-1.9529,-1.9669,-2.037,-2.1207,-2.1622,-2.176,-2.2042,-2.2349,-2.2819,-2.341,-2.3658,-2.3944,-2.4203,-2.4315,-2.4408,-2.4556,-2.4629,-2.4629,-2.4629,-2.4556,-2.4629,-2.4629,-2.4636,-2.4636,-2.471,-2.4938,-2.5152,-2.5226,-2.5373,-2.5807,-2.5953,-2.6019,-2.6451,-2.7535,-2.8171,-2.8668,-2.8883,-2.9099,-2.9663,-3.0296,-3.0075,-2.979,-2.9592,-2.9393,-2.9528,-2.9949,-3.0455,-3.0889,-3.1101,-3.1392,-3.1463,-3.1613,-3.1894,-3.1692,-0.255,-0.226,-0.226,-0.226,-0.226,-0.226,-0.226,-0.2333,-0.2623,-0.2986,-0.3132,-0.4799,-0.5956,-0.6823,-0.7977,-0.9424,-1.0515,-1.1527,-1.1814,-1.1883,-1.3599,-1.4169,-1.4298,-1.5124,-1.5625,-1.5343,-1.6053,-1.6588,-1.6983,-1.7454,-1.7506,-1.7641,-1.7709,-1.7573,-1.7709,-1.7757,-1.7821,-1.7906,-1.7974,-1.8031,-1.8088,-1.836,-1.8993,-1.957,-2.0008,-2.0271,-2.0449,-2.0578,-2.0659,-2.0804,-2.0804,-1.9384,-1.7825,-1.6972,-1.7404,-1.8896,-1.903,-1.9454,-2.0225,-2.059,-2.0798,-2.1276,-2.1214,-2.1421,-2.1835,-2.2035,-2.2242,-2.248,-2.2746,-2.3187,-2.3708,-2.3995,-2.4216,-2.4462,-2.4549,-2.4629,-2.4629,-2.4629,-2.4629,-2.4629,-2.4636,-2.4636,-2.4636,-2.471,-2.471,-2.4784,-2.5079,-2.5373,-2.552,-2.6019,-2.6743,-2.7455,-2.781,-2.8236,-2.9162,-2.9655,-3.0083,-3.043,-3.0643,-3.1341,-3.2106,-3.2307,-3.2027,-3.135,-3.1217,-3.135,-3.1632,-3.207,-3.236,-3.2561,-3.2779,-3.2997,-3.2997,-3.3006,-3.2736,-0.3496,-0.226,-0.226,-0.2333,-0.2333,-0.2333,-0.2478,-0.2623,-0.4074,-0.4727,-0.4943,-0.6747,-0.7684,-0.7975,-0.8045,-0.9275,-1.1159,-1.2459,-1.3464,-1.3817,-1.4955,-1.5172,-1.5815,-1.6523,-1.6926,-1.6982,-1.7242,-1.756,-1.7876,-1.8073,-1.8103,-1.8024,-1.8093,-1.8098,-1.8152,-1.8196,-1.8314,-1.8426,-1.857,-1.8719,-1.8788,-1.907,-1.9496,-2.0079,-2.0358,-2.059,-2.0665,-2.0741,-2.0804,-2.1075,-2.1151,-2.1,-2.0497,-2.0213,-2.0427,-2.0717,-2.0855,-2.1063,-2.1421,-2.1559,-2.1628,-2.1697,-2.1697,-2.1835,-2.211,-2.231,-2.2516,-2.2733,-2.305,-2.34,-2.3734,-2.4068,-2.4335,-2.4543,-2.4636,-2.4703,-2.4777,-2.4844,-2.5058,-2.5419,-2.5139,-2.4784,-2.4931,-2.5005,-2.5072,-2.5433,-2.5939,-2.6232,-2.6458,-2.7455,-2.8596,-2.9306,-3.002,-3.0509,-3.1076,-3.135,-3.1702,-3.2036,-3.2386,-3.3065,-3.3836,-3.4533,-3.4474,-3.3785,-3.3378,-3.3439,-3.3656,-3.3743,-3.396,-3.4098,-3.4314,-3.453,-3.4255,-3.4038,-3.4245,-0.5452,-0.4727,-0.4727,-0.4727,-0.4725,-0.4727,-0.4727,-0.487,-0.5739,-0.6101,-0.6751,-0.8266,-0.9275,-0.9634,-1.0715,-1.1657,-1.2523,-1.3603,-1.4462,-1.503,-1.581,-1.631,-1.6815,-1.752,-1.7801,-1.7937,-1.8072,-1.8288,-1.8703,-1.8604,-1.8672,-1.8885,-1.8885,-1.8891,-1.8902,-1.898,-1.8982,-1.9058,-1.9198,-1.9332,-1.9332,-1.9686,-2.004,-2.0388,-2.0527,-2.0665,-2.0735,-2.0873,-2.1012,-2.1214,-2.1421,-2.1697,-2.1897,-2.1897,-2.176,-2.1835,-2.1835,-2.1835,-2.1766,-2.1766,-2.1835,-2.2035,-2.2035,-2.2242,-2.2523,-2.2654,-2.2722,-2.2959,-2.332,-2.3607,-2.3768,-2.4155,-2.4536,-2.481,-2.4857,-2.5279,-2.5991,-2.6137,-2.6488,-2.6772,-2.6071,-2.5653,-2.544,-2.5513,-2.5506,-2.5939,-2.6721,-2.7237,-2.76,-2.8955,-3.0376,-3.1076,-3.1781,-3.2342,-3.2761,-3.304,-3.3448,-3.3785,-3.4061,-3.4739,-3.5432,-3.6141,-3.6499,-3.6296,-3.6015,-3.5325,-3.5129,-3.5002,-3.5353,-3.5626,-3.5695,-3.5695,-3.5285,-3.5148,-3.5422,-0.7329,-0.6968,-0.6968,-0.6968,-0.6968,-0.6968,-0.6896,-0.704,-0.7476,-0.7763,-0.7979,-1.0003,-1.1155,-1.1589,-1.2742,-1.3829,-1.3971,-1.4604,-1.503,-1.5532,-1.6523,-1.7303,-1.7661,-1.8082,-1.8503,-1.8503,-1.8843,-1.9058,-1.8988,-1.903,-1.9326,-1.9373,-1.9529,-1.9611,-1.9535,-1.946,-1.9611,-1.9611,-1.9686,-1.968,-1.9895,-2.011,-2.0324,-2.0671,-2.0665,-2.0735,-2.0867,-2.1006,-2.1276,-2.1484,-2.176,-2.2035,-2.2379,-2.2448,-2.231,-2.2104,-2.2042,-2.2042,-2.2042,-2.2042,-2.2248,-2.2379,-2.2379,-2.2585,-2.2729,-2.2866,-2.2866,-2.2966,-2.3387,-2.3734,-2.3834,-2.4355,-2.507,-2.5646,-2.5719,-2.6064,-2.7628,-2.8413,-2.8693,-2.8341,-2.7223,-2.715,-2.7505,-2.6721,-2.6859,-2.8004,-2.886,-2.9011,-2.952,-3.0864,-3.2141,-3.277,-3.3406,-3.4038,-3.4452,-3.4718,-3.5266,-3.5811,-3.5947,-3.6354,-3.6981,-3.7693,-3.776,-3.7616,-3.7348,-3.6654,-3.6451,-3.6316,-3.6596,-3.6799,-3.6934,-3.6856,-3.6586,-3.6712,-3.7048,-0.8201,-0.704,-0.704,-0.6968,-0.7112,-0.7185,-0.7112,-0.7402,-0.9208,-1.0003,-1.0075,-1.2237,-1.325,-1.3464,-1.3611,-1.39,-1.4181,-1.4888,-1.5532,-1.6174,-1.7026,-1.7731,-1.8223,-1.8714,-1.8918,-1.8988,-1.9262,-1.9262,-1.9198,-1.9401,-1.9541,-1.9686,-1.968,-1.9611,-1.975,-1.975,-1.9611,-1.968,-1.9895,-2.0249,-2.0527,-2.0602,-2.0671,-2.0735,-2.0804,-2.1006,-2.1276,-2.1484,-2.1622,-2.2235,-2.2242,-2.2448,-2.2722,-2.2866,-2.2791,-2.2791,-2.2791,-2.2791,-2.2729,-2.266,-2.266,-2.2729,-2.2791,-2.2859,-2.2928,-2.2928,-2.2934,-2.2886,-2.3547,-2.4083,-2.4419,-2.4877,-2.5782,-2.6794,-2.7498,-2.8334,-2.9678,-3.0255,-3.061,-3.0972,-3.0129,-3.0201,-3.0484,-2.9274,-2.8493,-2.9782,-3.0776,-3.0926,-3.1358,-3.263,-3.3623,-3.4186,-3.459,-3.5148,-3.549,-3.5899,-3.6374,-3.7203,-3.7415,-3.7549,-3.7827,-3.8114,-3.8248,-3.8037,-3.7904,-3.796,-3.7883,-3.7816,-3.7904,-3.796,-3.814,-3.8083,-3.8037,-3.8293,-3.8528,-1.0236,-0.9582,-0.9579,-0.9579,-0.9654,-0.9867,-0.9939,-1.0227,-1.1234,-1.1739,-1.1954,-1.2964,-1.3686,-1.3971,-1.4252,-1.4537,-1.4746,-1.5673,-1.6457,-1.6885,-1.752,-1.8223,-1.8643,-1.8924,-1.9058,-1.9401,-1.9616,-1.9831,-1.9692,-1.9761,-1.997,-2.0173,-2.0173,-2.0243,-2.0173,-2.0243,-2.0243,-2.0312,-2.0521,-2.0937,-2.1214,-2.1289,-2.1358,-2.1358,-2.1352,-2.1822,-2.2428,-2.2097,-2.2503,-2.3119,-2.3058,-2.2729,-2.2928,-2.3065,-2.3201,-2.3201,-2.3413,-2.3277,-2.3003,-2.2996,-2.2996,-2.2928,-2.2996,-2.2996,-2.3065,-2.3277,-2.3413,-2.3557,-2.4915,-2.5509,-2.602,-2.7188,-2.829,-2.9131,-2.9409,-3.0618,-3.1606,-3.1808,-3.2307,-3.2743,-3.3101,-3.2961,-3.2674,-3.1614,-3.0697,-3.12,-3.2193,-3.2622,-3.3188,-3.4107,-3.4962,-3.5529,-3.585,-3.6112,-3.6384,-3.6654,-3.6924,-3.7549,-3.7837,-3.7904,-3.8048,-3.8248,-3.8381,-3.8636,-3.8692,-3.889,-3.9154,-3.8956,-3.8692,-3.8956,-3.9276,-3.922,-3.9154,-3.9352,-3.9604,-1.1832,-1.1763,-1.1619,-1.1616,-1.1619,-1.1907,-1.2051,-1.2194,-1.2542,-1.2824,-1.2968,-1.3325,-1.3753,-1.4181,-1.4746,-1.503,-1.5385,-1.6669,-1.7168,-1.759,-1.8082,-1.8643,-1.8988,-1.9128,-1.9477,-1.975,-2.011,-2.0324,-2.0388,-2.0388,-2.0527,-2.0735,-2.0735,-2.0735,-2.0735,-2.0873,-2.0943,-2.1012,-2.1214,-2.149,-2.1697,-2.1766,-2.2035,-2.2235,-2.2503,-2.3038,-2.4174,-2.3978,-2.4181,-2.4655,-2.4203,-2.3938,-2.4399,-2.4399,-2.467,-2.4865,-2.527,-2.5143,-2.4663,-2.4331,-2.3802,-2.3802,-2.4128,-2.4791,-2.4805,-2.4638,-2.4853,-2.5501,-2.6771,-2.7609,-2.8121,-2.9339,-3.0289,-3.0901,-3.1324,-3.2683,-3.3683,-3.3674,-3.3872,-3.4236,-3.4668,-3.4943,-3.4521,-3.3674,-3.3179,-3.304,-3.3544,-3.4186,-3.4815,-3.5441,-3.586,-3.6278,-3.6481,-3.6732,-3.7001,-3.727,-3.7549,-3.776,-3.8037,-3.8181,-3.8248,-3.8437,-3.8692,-3.9022,-3.9341,-3.9549,-3.9746,-3.9549,-3.9473,-3.967,-3.9931,-4.0127,-4.0192,-4.0464,-4.0398,-1.2474,-1.2122,-1.1763,-1.1616,-1.1616,-1.1619,-1.1907,-1.2338,-1.2685,-1.3043,-1.3325,-1.3686,-1.4248,-1.4817,-1.5172,-1.5603,-1.6178,-1.6951,-1.7379,-1.7801,-1.8358,-1.8918,-1.9267,-1.9686,-2.004,-2.0179,-2.0527,-2.0873,-2.1144,-2.1346,-2.1075,-2.0804,-2.1144,-2.1012,-2.1144,-2.1553,-2.1691,-2.176,-2.1897,-2.1897,-2.1966,-2.2035,-2.251,-2.344,-2.3842,-2.4581,-2.6247,-2.6113,-2.6247,-2.6788,-2.5927,-2.5734,-2.6254,-2.6128,-2.6329,-2.6922,-2.7254,-2.7254,-2.698,-2.6262,-2.5883,-2.6203,-2.6686,-2.7185,-2.7216,-2.7984,-2.829,-2.8146,-2.9031,-2.9685,-3.0015,-3.0553,-3.2193,-3.2735,-3.3309,-3.4089,-3.4952,-3.5236,-3.5441,-3.5801,-3.5938,-3.5996,-3.6122,-3.5207,-3.4992,-3.4855,-3.4855,-3.55,-3.5763,-3.6248,-3.6529,-3.6799,-3.6944,-3.7146,-3.7415,-3.7693,-3.7827,-3.7904,-3.8114,-3.8248,-3.8314,-3.8626,-3.8946,-3.9538,-3.9931,-4.0138,-4.0333,-4.0453,-4.0453,-4.0377,-4.0506,-4.0841,-4.0971,-4.1046,-4.0841,-1.2685,-1.2545,-1.2398,-1.233,-1.2327,-1.2545,-1.2757,-1.2904,-1.3329,-1.3539,-1.3686,-1.4324,-1.4746,-1.5168,-1.6094,-1.6527,-1.6956,-1.7661,-1.8012,-1.8358,-1.8848,-1.9203,-1.9622,-2.0179,-2.0602,-2.0804,-2.1144,-2.1421,-2.1559,-2.2297,-2.2764,-2.2565,-2.216,-2.1559,-2.1697,-2.2497,-2.2702,-2.264,-2.2914,-2.3188,-2.2516,-2.2516,-2.3119,-2.4467,-2.4595,-2.5927,-2.7726,-2.7453,-2.7908,-2.8172,-2.7652,-2.7784,-2.8106,-2.785,-2.8114,-2.8706,-2.8903,-2.9034,-2.8846,-2.8073,-2.7533,-2.7809,-2.8235,-2.8743,-2.9125,-2.9119,-2.9311,-2.9741,-3.1042,-3.1908,-3.2158,-3.339,-3.4768,-3.5002,-3.5285,-3.5704,-3.5928,-3.6142,-3.6278,-3.6413,-3.6413,-3.6393,-3.6606,-3.6732,-3.6664,-3.6664,-3.6742,-3.6742,-3.6799,-3.6866,-3.7001,-3.7203,-3.7348,-3.7425,-3.7626,-3.7837,-3.8048,-3.8114,-3.8248,-3.8447,-3.857,-3.889,-3.9276,-3.9931,-4.0658,-4.0917,-4.124,-4.1433,-4.1368,-4.11,-4.1293,-4.1753,-4.1753,-4.1689,-4.1421,-1.3039,-1.2968,-1.3039,-1.2968,-1.2824,-1.3039,-1.3182,-1.3321,-1.3543,-1.3829,-1.3971,-1.4675,-1.5172,-1.5673,-1.6598,-1.7449,-1.7731,-1.8223,-1.8638,-1.8988,-1.9267,-1.9692,-2.0179,-2.0665,-2.1012,-2.1352,-2.1628,-2.1766,-2.2035,-2.3379,-2.3856,-2.3917,-2.3842,-2.3638,-2.3434,-2.4106,-2.4513,-2.4385,-2.4791,-2.4933,-2.406,-2.446,-2.4865,-2.6136,-2.6529,-2.7916,-2.9518,-2.977,-2.9761,-2.9956,-2.9696,-2.9361,-2.9426,-2.9622,-2.9752,-3.0021,-3.029,-3.0419,-3.0234,-2.9852,-2.9642,-3.0237,-3.0562,-3.0729,-3.0659,-3.0822,-3.1589,-3.2081,-3.3378,-3.4167,-3.4293,-3.5472,-3.6035,-3.6044,-3.618,-3.6529,-3.6539,-3.6616,-3.6742,-3.6876,-3.6876,-3.6799,-3.7146,-3.7348,-3.728,-3.728,-3.7146,-3.7146,-3.7213,-3.728,-3.7348,-3.7549,-3.7693,-3.777,-3.7837,-3.8037,-3.8237,-3.8248,-3.8447,-3.8769,-3.8956,-3.9286,-3.9801,-4.0582,-4.124,-4.1765,-4.1893,-4.1881,-4.1817,-4.1689,-4.1956,-4.2148,-4.2136,-4.2009,-4.2073,-1.3611,-1.3325,-1.3686,-1.3468,-1.2968,-1.2824,-1.3039,-1.3468,-1.3611,-1.3825,-1.4256,-1.4893,-1.5603,-1.632,-1.7238,-1.7872,-1.8433,-1.8848,-1.9192,-1.9541,-1.9895,-2.0318,-2.0804,-2.1214,-2.149,-2.1697,-2.1973,-2.2173,-2.2572,-2.4256,-2.4865,-2.586,-2.6639,-2.6706,-2.609,-2.6632,-2.7179,-2.7453,-2.7718,-2.7121,-2.6396,-2.6855,-2.7395,-2.8048,-2.8772,-3.003,-3.1166,-3.168,-3.1671,-3.168,-3.1267,-3.1267,-3.1982,-3.1515,-3.1781,-3.2692,-3.2892,-3.3092,-3.3111,-3.2384,-3.2376,-3.2787,-3.2867,-3.3278,-3.3772,-3.4144,-3.4276,-3.4412,-3.5451,-3.6082,-3.6499,-3.6702,-3.6866,-3.6876,-3.6944,-3.7079,-3.7011,-3.6944,-3.7011,-3.728,-3.7213,-3.7213,-3.7559,-3.7827,-3.7693,-3.7626,-3.7549,-3.7549,-3.7626,-3.7626,-3.7693,-3.7893,-3.8104,-3.8293,-3.8304,-3.8304,-3.8437,-3.8447,-3.8702,-3.922,-3.9735,-4.0192,-4.0777,-4.1304,-4.1689,-4.2084,-4.2212,-4.2264,-4.2136,-4.2009,-4.2136,-4.2264,-4.2264,-4.2264,-4.2264,-1.3829,-1.3686,-1.3829,-1.4039,-1.4177,-1.3686,-1.3896,-1.4462,-1.4964,-1.5323,-1.5536,-1.6174,-1.681,-1.7444,-1.8007,-1.8638,-1.9128,-1.9622,-1.997,-2.1113,-2.1126,-2.1615,-2.2097,-2.2166,-2.2104,-2.2173,-2.2448,-2.3386,-2.4513,-2.5853,-2.737,-2.8558,-2.9426,-2.9361,-2.8361,-2.8361,-2.896,-2.8369,-2.8763,-2.896,-2.7784,-2.8106,-2.8763,-2.9557,-3.0207,-3.1203,-3.2412,-3.2858,-3.2975,-3.2921,-3.2438,-3.2956,-3.3292,-3.2765,-3.3209,-3.3733,-3.3859,-3.4047,-3.4246,-3.4073,-3.4452,-3.463,-3.4664,-3.4923,-3.5187,-3.5306,-3.5721,-3.6242,-3.6693,-3.6961,-3.6934,-3.7203,-3.728,-3.7146,-3.7213,-3.7348,-3.7348,-3.7146,-3.7146,-3.7559,-3.7693,-3.7827,-3.8094,-3.8559,-3.8549,-3.8426,-3.835,-3.816,-3.816,-3.8104,-3.8037,-3.8237,-3.8503,-3.8769,-3.889,-3.9022,-3.9154,-3.9276,-3.9604,-4.0062,-4.0582,-4.0971,-4.1368,-4.1765,-4.2073,-4.2327,-4.2454,-4.2518,-4.2327,-4.2264,-4.2264,-4.2264,-4.2264,-4.2264,-4.2264,-1.447,-1.4617,-1.4399,-1.4755,-1.5243,-1.4608,-1.4746,-1.5664,-1.6649,-1.7208,-1.7484,-1.8121,-1.8616,-1.8901,-1.9047,-1.9407,-1.9825,-2.078,-2.139,-2.2669,-2.2942,-2.3297,-2.3515,-2.3447,-2.3119,-2.3051,-2.3727,-2.4723,-2.5651,-2.7577,-2.9352,-3.0872,-3.2065,-3.1469,-3.0669,-3.0798,-3.0872,-3.0475,-3.0936,-3.0863,-3.006,-3.006,-3.0578,-3.1038,-3.157,-3.2301,-3.2965,-3.3418,-3.367,-3.3607,-3.3733,-3.3985,-3.3922,-3.3922,-3.4047,-3.4173,-3.4235,-3.4423,-3.4667,-3.4921,-3.5207,-3.5848,-3.5702,-3.5644,-3.5931,-3.6162,-3.655,-3.7028,-3.7504,-3.7857,-3.814,-3.835,-3.814,-3.8006,-3.8206,-3.8406,-3.8339,-3.8206,-3.814,-3.8426,-3.8426,-3.8503,-3.8692,-3.9154,-3.9473,-3.9352,-3.922,-3.9022,-3.8824,-3.8769,-3.8702,-3.8901,-3.9099,-3.9418,-3.9604,-3.9735,-3.992,-4.0181,-4.0442,-4.0841,-4.1046,-4.1433,-4.1817,-4.2275,-4.2696,-4.2949,-4.2759,-4.2696,-4.257,-4.2454,-4.2264,-4.2264,-4.2264,-4.2391,-4.2454,-1.5461,-1.6037,-1.5385,-1.5598,-1.6174,-1.6009,-1.6221,-1.7002,-1.8497,-1.9311,-1.9658,-2.0316,-2.0599,-2.0605,-2.015,-2.03,-2.1057,-2.2389,-2.3331,-2.4003,-2.4949,-2.5181,-2.5128,-2.4873,-2.4338,-2.4331,-2.4865,-2.5734,-2.6529,-2.9279,-3.1451,-3.2457,-3.2965,-3.2829,-3.2819,-3.2692,-3.2575,-3.2438,-3.2502,-3.2355,-3.1881,-3.2673,-3.2664,-3.2854,-3.318,-3.365,-3.411,-3.4225,-3.4298,-3.4298,-3.436,-3.4413,-3.4413,-3.4423,-3.4423,-3.4423,-3.4485,-3.4673,-3.489,-3.5115,-3.5842,-3.6604,-3.6686,-3.6343,-3.6459,-3.705,-3.7465,-3.8083,-3.8658,-3.9376,-3.9866,-3.9724,-3.9583,-3.9648,-3.9779,-3.9844,-3.979,-3.9659,-3.9528,-3.9473,-3.9341,-3.9407,-3.967,-4.0062,-4.0257,-4.0333,-4.0268,-4.0388,-4.0192,-3.9735,-3.9735,-3.9735,-3.9931,-4.0203,-4.0388,-4.0517,-4.0777,-4.096,-4.1164,-4.1433,-4.1625,-4.1881,-4.2264,-4.2759,-4.3377,-4.3689,-4.374,-4.3365,-4.2886,-4.2759,-4.3063,-4.2518,-4.2644,-4.2696,-4.2696,-1.5966,-1.6183,-1.6169,-1.7273,-1.8991,-2.0638,-2.065,-1.9837,-2.154,-2.2561,-2.2561,-2.1702,-2.2457,-2.3535,-2.245,-2.2997,-2.401,-2.5219,-2.6231,-2.6831,-2.7089,-2.7503,-2.732,-2.6537,-2.5674,-2.554,-2.6069,-2.7129,-2.8501,-3.1111,-3.281,-3.3544,-3.3733,-3.3922,-3.3985,-3.3994,-3.3796,-3.3733,-3.3859,-3.365,-3.3631,-3.409,-3.4027,-3.4153,-3.4268,-3.4673,-3.4673,-3.4849,-3.4797,-3.4548,-3.4673,-3.4849,-3.5108,-3.4922,-3.4797,-3.5108,-3.5118,-3.518,-3.5345,-3.6029,-3.6706,-3.7249,-3.7583,-3.8284,-3.8285,-3.8242,-3.8434,-3.9078,-3.9725,-4.0344,-4.0582,-4.0453,-4.0377,-4.0506,-4.0571,-4.0571,-4.0506,-4.0312,-4.0257,-4.0192,-3.9997,-4.0247,-4.0571,-4.0841,-4.1046,-4.1122,-4.1251,-4.1433,-4.1368,-4.0906,-4.0636,-4.0636,-4.0777,-4.0982,-4.1175,-4.1368,-4.1625,-4.1817,-4.1945,-4.2073,-4.22,-4.2454,-4.2708,-4.3314,-4.4051,-4.4546,-4.4841,-4.4348,-4.3802,-4.4237,-4.4484,-4.3565,-4.2949,-4.3189,-4.3377,-1.7233,-1.758,-1.8051,-1.9553,-2.1945,-2.4199,-2.4409,-2.3725,-2.468,-2.5233,-2.5301,-2.4694,-2.5039,-2.5771,-2.4882,-2.4875,-2.6224,-2.7156,-2.8089,-2.8755,-2.9091,-2.9426,-2.9165,-2.8443,-2.7718,-2.7453,-2.7908,-2.9091,-3.0393,-3.2282,-3.411,-3.411,-3.436,-3.436,-3.436,-3.4298,-3.4548,-3.461,-3.461,-3.4548,-3.4725,-3.5098,-3.5284,-3.5232,-3.5284,-3.5469,-3.5531,-3.5716,-3.5654,-3.5592,-3.5839,-3.5962,-3.6218,-3.6023,-3.5962,-3.6218,-3.6279,-3.6279,-3.6372,-3.6737,-3.7313,-3.7743,-3.8164,-3.8872,-3.9533,-3.9691,-3.9792,-4.0087,-4.0631,-4.1111,-4.11,-4.1035,-4.1035,-4.1089,-4.11,-4.11,-4.0971,-4.083,-4.0766,-4.0712,-4.083,-4.1024,-4.1293,-4.1561,-4.1701,-4.1765,-4.1829,-4.1945,-4.1881,-4.1625,-4.1486,-4.1421,-4.1561,-4.1701,-4.1893,-4.1956,-4.202,-4.2264,-4.2748,-4.2822,-4.2822,-4.3137,-4.3565,-4.4113,-4.4792,-4.5269,-4.5755,-4.533,-4.4976,-4.5403,-4.5525,-4.478,-4.4237,-4.4237,-4.436,-1.9177,-1.9935,-2.0707,-2.2515,-2.4718,-2.6616,-2.7519,-2.7932,-2.7643,-2.766,-2.7932,-2.8073,-2.799,-2.818,-2.7081,-2.7015,-2.8155,-2.9148,-2.9882,-3.054,-3.1277,-3.1534,-3.1001,-3.0613,-2.9622,-2.9687,-3.0207,-3.0909,-3.2136,-3.3568,-3.4423,-3.4423,-3.4673,-3.4859,-3.4922,-3.5036,-3.5407,-3.5849,-3.5839,-3.5777,-3.5654,-3.6146,-3.6828,-3.6595,-3.6828,-3.7182,-3.7242,-3.7303,-3.7374,-3.7374,-3.7314,-3.7264,-3.7193,-3.7314,-3.7374,-3.7193,-3.7071,-3.7071,-3.7132,-3.7423,-3.7951,-3.8199,-3.8227,-3.9137,-3.9837,-4.0121,-4.0122,-4.0841,-4.1411,-4.1516,-4.1482,-4.1545,-4.1609,-4.1625,-4.1629,-4.1685,-4.1678,-4.155,-4.1486,-4.1486,-4.155,-4.1742,-4.1806,-4.202,-4.22,-4.2275,-4.2402,-4.2518,-4.257,-4.2443,-4.2316,-4.2241,-4.2189,-4.2264,-4.2148,-4.2212,-4.2275,-4.2581,-4.3251,-4.3439,-4.3377,-4.3802,-4.441,-4.5147,-4.5876,-4.6238,-4.6478,-4.6238,-4.613,-4.613,-4.613,-4.5755,-4.5573,-4.5573,-4.5452,-2.1786,-2.2151,-2.4275,-2.5839,-2.7018,-2.9071,-2.9982,-3.0204,-3.0631,-3.0419,-3.0,-2.9248,-2.95,-3.0484,-2.94,-2.9466,-3.0807,-3.1065,-3.1809,-3.2119,-3.2785,-3.2848,-3.2374,-3.1781,-3.1249,-3.124,-3.1689,-3.2527,-3.3631,-3.4403,-3.4859,-3.4922,-3.5356,-3.5788,-3.5849,-3.6156,-3.6574,-3.695,-3.7132,-3.706,-3.6939,-3.6939,-3.7193,-3.7193,-3.7435,-3.7555,-3.7555,-3.7495,-3.7435,-3.7374,-3.7374,-3.7374,-3.7374,-3.7867,-3.7807,-3.7495,-3.7605,-3.7616,-3.7676,-3.7927,-3.8339,-3.859,-3.8743,-3.9442,-3.9924,-4.0033,-4.0508,-4.1371,-4.1926,-4.1885,-4.1902,-4.2015,-4.2061,-4.2074,-4.2172,-4.2287,-4.2327,-4.2264,-4.22,-4.2264,-4.2327,-4.2391,-4.2402,-4.2529,-4.2644,-4.2834,-4.3012,-4.3189,-4.349,-4.3478,-4.3228,-4.3102,-4.2811,-4.2759,-4.2822,-4.2937,-4.324,-4.3302,-4.379,-4.3915,-4.3989,-4.5013,-4.6105,-4.6418,-4.6968,-4.7146,-4.7383,-4.7632,-4.7514,-4.7159,-4.704,-4.6849,-4.7027,-4.7087,-4.6836,-2.3609,-2.389,-2.5884,-2.746,-2.8613,-2.9985,-3.0719,-3.1063,-3.179,-3.2065,-3.184,-3.1121,-3.1277,-3.2393,-3.1579,-3.157,-3.2785,-3.2985,-3.3165,-3.3418,-3.3607,-3.368,-3.3345,-3.3063,-3.3,-3.299,-3.318,-3.3945,-3.4974,-3.5356,-3.5613,-3.5665,-3.6412,-3.6839,-3.69,-3.7264,-3.7555,-3.7796,-3.8167,-3.8227,-3.8107,-3.8216,-3.8036,-3.7976,-3.8036,-3.8156,-3.8216,-3.8216,-3.8216,-3.8216,-3.8335,-3.8741,-3.88,-3.8882,-3.8871,-3.88,-3.8622,-3.8216,-3.8347,-3.8526,-3.8775,-3.8882,-3.9001,-3.957,-4.02,-4.0346,-4.0586,-4.1403,-4.1812,-4.1877,-4.192,-4.2017,-4.2203,-4.2304,-4.2618,-4.2851,-4.2886,-4.2822,-4.2822,-4.2822,-4.2886,-4.2897,-4.2897,-4.2897,-4.3012,-4.3012,-4.3263,-4.3326,-4.374,-4.4682,-4.4374,-4.4412,-4.4485,-4.4596,-4.5,-4.489,-4.462,-4.462,-4.462,-4.5342,-4.6007,-4.6989,-4.7795,-4.7501,-4.7501,-4.788,-4.8114,-4.8185,-4.8185,-4.7821,-4.788,-4.7997,-4.8185,-4.8185,-4.7749,-2.5277,-2.5556,-2.6826,-2.8308,-2.9723,-3.0229,-3.076,-3.1422,-3.2169,-3.2806,-3.3265,-3.3289,-3.3277,-3.3228,-3.3481,-3.3544,-3.367,-3.3922,-3.4235,-3.4423,-3.4548,-3.4548,-3.461,-3.46,-3.4652,-3.4839,-3.5025,-3.5397,-3.6106,-3.6351,-3.6473,-3.6656,-3.7071,-3.7495,-3.7566,-3.7676,-3.7976,-3.8347,-3.8645,-3.8894,-3.9131,-3.9367,-3.8953,-3.8894,-3.906,-3.9356,-3.9414,-3.9414,-3.9356,-3.9521,-3.9568,-3.9919,-4.0257,-4.0211,-4.0211,-4.0199,-3.9814,-3.9521,-3.9344,-3.9344,-3.9414,-3.9414,-3.9414,-3.9646,-4.0277,-4.0605,-4.085,-4.1121,-4.1526,-4.1751,-4.1868,-4.1986,-4.2197,-4.2348,-4.2711,-4.3079,-4.3091,-4.3091,-4.3091,-4.3103,-4.315,-4.315,-4.3158,-4.322,-4.3377,-4.3377,-4.3389,-4.3451,-4.3864,-4.5281,-4.5922,-4.6496,-4.7077,-4.7254,-4.7005,-4.6616,-4.6042,-4.609,-4.621,-4.7175,-4.7964,-4.8469,-4.8437,-4.7723,-4.7854,-4.8276,-4.823,-4.8185,-4.8185,-4.8185,-4.8185,-4.8185,-4.8185,-4.8185,-4.8185,-2.7722,-2.8302,-2.91,-2.9906,-3.0749,-3.1418,-3.1947,-3.2442,-3.3276,-3.3831,-3.4207,-3.5018,-3.5075,-3.4163,-3.4807,-3.4859,-3.4538,-3.4922,-3.5108,-3.5232,-3.5541,-3.5418,-3.5479,-3.5839,-3.6268,-3.6452,-3.6574,-3.695,-3.7021,-3.7132,-3.7193,-3.7253,-3.7807,-3.8167,-3.8227,-3.8466,-3.8823,-3.9072,-3.926,-3.9496,-3.9555,-3.9673,-3.9684,-3.9673,-3.9826,-3.9989,-4.0048,-4.0048,-4.0048,-4.0269,-4.0813,-4.11,-4.1386,-4.1615,-4.1672,-4.1227,-4.0836,-4.0339,-4.0106,-3.9931,-3.9884,-3.9884,-3.9873,-3.9966,-4.0423,-4.0552,-4.0775,-4.0881,-4.1188,-4.1366,-4.1496,-4.1686,-4.1852,-4.1861,-4.2084,-4.2394,-4.2561,-4.2501,-4.2451,-4.2569,-4.2699,-4.2756,-4.2859,-4.3136,-4.363,-4.3716,-4.39,-4.3962,-4.4137,-4.567,-4.7306,-4.8171,-4.9036,-4.8492,-4.7652,-4.7808,-4.7469,-4.7515,-4.7737,-4.8474,-4.9146,-4.9529,-4.9314,-4.8424,-4.8308,-4.8624,-4.8508,-4.8185,-4.8185,-4.8185,-4.8185,-4.8185,-4.8185,-4.8185,-4.8185]},{"header":{"parameterUnit":"m.s-1","parameterCategory":1,"la1":31.0,"la2":29.5877,"lo1":-88.7671,"lo2":-86.6584,"dy":0.0162,"dx":0.0185,"nx":115,"ny":88,"refTime":"2024-09-02T18:00:00:Z","depth":0,"parameterNumber":3,"parameterNumberName":"V-component_of_WINDS"},"data":[0.0,0.0,0.0,0.0,0.0,0.0,0.0,0.0,0.0,0.0,0.0,0.0,0.0,0.0,0.0,0.0,0.0,0.0,0.0,0.0,0.0,0.0,0.0,0.0,0.0,0.0,0.0,0.0,0.0,0.0,0.0,0.0,0.0,0.0,0.0,0.0,0.0,0.0,0.0,0.0,0.0,0.0,0.0,0.0,0.0,0.0,0.0,0.0,0.0,0.0,0.0,0.0,0.0,0.0,0.0,0.0,0.0,0.0,0.0,0.0,0.0,0.0,0.0,0.0,0.0,0.0,0.0,0.0,0.0,0.0,0.0,0.0,0.0,0.0,0.0,0.0,0.0,0.0,0.0,0.0,0.0,0.0,0.0,0.0,0.0,0.0,0.0,0.0,0.0,0.0,0.0,0.0,0.0,0.0,0.0,0.0,0.0,0.0,0.0,0.0,0.0,0.0,0.0,0.0,0.0,0.0,0.0,0.0,0.0,0.0,0.0,0.0,0.0,0.0,0.0,0.0,0.0,0.0,0.0,0.0,0.0,0.0,0.0,0.0,0.0,0.0,0.0,0.0,0.0,0.0,0.0,0.0,0.0,0.0,0.0,0.0,0.0,0.0,0.0,0.0,0.0,0.0,0.0,0.0,0.0,0.0,0.0,0.0,0.0,0.0,0.0,0.0,0.0,0.0,0.0,0.0,0.0,0.0,0.0,0.0,0.0,0.0,0.0,0.0,0.0,0.0,0.0,0.0,0.0,0.0,0.0,0.0,0.0,0.0,0.0,0.0,0.0,0.0,0.0,0.0,0.0,0.0,0.0,0.0,0.0,0.0,0.0,0.0,0.0,0.0,0.0,0.0,0.0,0.0,0.0,0.0,0.0,0.0,0.0,0.0,0.0,0.0,0.0,0.0,0.0,0.0,0.0,0.0,0.0,0.0,0.0,0.0,0.0,0.0,0.0,0.0,0.0,0.0,0.0,0.0,0.0,0.0,0.0,0.0,0.0,0.0,0.0,0.0,0.0,0.0,0.0,0.0,0.0,0.0,0.0,0.0,0.0,0.0,0.0,0.0,0.0,0.0,0.0,0.0,0.0,0.0,0.0,0.0,0.0,0.0,0.0,0.0,0.0,0.0,0.0,0.0,0.0,0.0,0.0,0.0,0.0,0.0,0.0,0.0,0.0,0.0,0.0,0.0,0.0,0.0,0.0,0.0,0.0,0.0,0.0,0.0,0.0,0.0,0.0,0.0,0.0,0.0,0.0,0.0,0.0,0.0,0.0,0.0,0.0,0.0,0.0,0.0,0.0,0.0,0.0,0.0,0.0,0.0,0.0,0.0,0.0,0.0,0.0,0.0,0.0,0.0,0.0,0.0,0.0,0.0,0.0,0.0,0.0,0.0,0.0,0.0,0.0,0.0,0.0,0.0,0.0,0.0,0.0,0.0,0.0,0.0,0.0,0.0,0.0,0.0,0.0,0.0,0.0,0.0,0.0,0.0,0.0,0.0,0.0,0.0,0.0,0.0,0.0,0.0,0.0,0.0,0.0,0.0,0.0,0.0,0.0,0.0,0.0,0.0,0.0,0.0,0.0,0.0,0.0,0.0,0.0,0.0,0.0,0.0,0.0,0.0,0.0,0.0,0.0,0.0,0.0,0.0,0.0,0.0,0.0,0.0,0.0,0.0,0.0,0.0,0.0,0.0,0.0,0.0,0.0,0.0,0.0,0.0,0.0,0.0,0.0,0.0,0.0,0.0,0.0,0.0,0.0,0.0,0.0,0.0,0.0,0.0,0.0,0.0,0.0,0.0,0.0,0.0,0.0,0.0,0.0,0.0,0.0,0.0,0.0,0.0,0.0,0.0,0.0,0.0,0.0,0.0,0.0,0.0,0.0,0.0,0.0,0.0,0.0,0.0,0.0,0.0,0.0,0.0,0.0,0.0,0.0,0.0,0.0,0.0,0.0,0.0,0.0,0.0,0.0,0.0,0.0,0.0,0.0,0.0,0.0,0.0,0.0,0.0,0.0,0.0,0.0,0.0,0.0,0.0,0.0,0.0,0.0,0.0,0.0,0.0,0.0,0.0,0.0,0.0,0.0,0.0,0.0,0.0,0.0,0.0,0.0,0.0,0.0,0.0,0.0,0.0,0.0,0.0,0.0,0.0,0.0,0.0,0.0,0.0,0.0,0.0,0.0,0.0,0.0,0.0,0.0,0.0,0.0,0.0,0.0,0.0,0.0,0.0,0.0,0.0,0.0,0.0,0.0,0.0,0.0,0.0,0.0,0.0,0.0,0.0,0.0,0.0,0.0,0.0,0.0,0.0,0.0,0.0,0.0,0.0,0.0,0.0,0.0,0.0,0.0,0.0,0.0,0.0,0.0,0.0,0.0,0.0,0.0,0.0,0.0,0.0,0.0,0.0,0.0,0.0,0.0,0.0,0.0,0.0,0.0,0.0,0.0,0.0,0.0,0.0,0.0,0.0,0.0,0.0,0.0,0.0,0.0,0.0,0.0,0.0,0.0,0.0,0.0,0.0,0.0,0.0,0.0,0.0,0.0,0.0,0.0,0.0,0.0,0.0,0.0,0.0,0.0,0.0,0.0,0.0,0.0,0.0,0.0,0.0,0.0,0.0,0.0,0.0,0.0,0.0,0.0,0.0,0.0,0.0,0.0,0.0,0.0,0.0,0.0,0.0,0.0,0.0,0.0,0.0,0.0,0.0,0.0,0.0,0.0,0.0,0.0,0.0,0.0,0.0,0.0,0.0,0.0,0.0,0.0,0.0,0.0,0.0,0.0,0.0,0.0,0.0,0.0,0.0,0.0,0.0,0.0,0.0,0.0,0.0,0.0,0.0,0.0,0.0,0.0,0.0,0.0,0.0,0.0,0.0,0.0,0.0,0.0,0.0,0.0,0.0,0.0,0.0,0.0,0.0,0.0,0.0,0.0,0.0,0.0,0.0,0.0,0.0,0.0,0.0,0.0,0.0,0.0,0.0,0.0,0.0,0.0,0.0,0.0,0.0,0.0,0.0,0.0,0.0,0.0,0.0,0.0,0.0,0.0,0.0,0.0,0.0,0.0,0.0,0.0,0.0,0.0,0.0,0.0,0.0,0.0,0.0,0.0,0.0,0.0,0.0,0.0,0.0,0.0,0.0,0.0,0.0,0.0,0.0,0.0,0.0,0.0,0.0,0.0,0.0,0.0,0.0,0.0,0.0,0.0,0.0,0.0,0.0,0.0,0.0,0.0,0.0,0.0,0.0,0.0,0.0,0.0,0.0,0.0,0.0,0.0,0.0,0.0,0.0,0.0,0.0,0.0,0.0,0.0,0.0,0.0,0.0,0.0,0.0,0.0,0.0,0.0,0.0,0.0,0.0,0.0,0.0,0.0,0.0,0.0,0.0,0.0,0.0,0.0,0.0,0.0,0.0,0.0,0.0,0.0,0.0,0.0,0.0,0.0,0.0,0.0,0.0,0.0,0.0,0.0,0.0,0.0,0.0,0.0,0.0,0.0,0.0,0.0,0.0,0.0,0.0,0.0,0.0,0.0,0.0,0.0,0.0,0.0,0.0,0.0,0.0,0.0,0.0,0.0,0.0,0.0,0.0,0.0,0.0,0.0,0.0,0.0,0.0,0.0,0.0,0.0,0.0,0.0,0.0,0.0,0.0,0.0,0.0,0.0,0.0,0.0,0.0,0.0,0.0,0.0,0.0,0.0,0.0,0.0,0.0,0.0,0.0,0.0,0.0,0.0,0.0,0.0,0.0,0.0,0.0,0.0,0.0,0.0,0.0,0.0,0.0,0.0,0.0,0.0,0.0,0.0,0.0,0.0,0.0,0.0,0.0,0.0,0.0,0.0,0.0,0.0,0.0,0.0,0.0,0.0,0.0,0.0,0.0,0.0,0.0,0.0,0.0,0.0,0.0,0.0,0.0,0.0,0.0,0.0,0.0,0.0,0.0,0.0,0.0,0.0,0.0,0.0,0.0,0.0,0.0,0.0,0.0,0.0,0.0,0.0,0.0,0.0,0.0,0.0,0.0,0.0,0.0,0.0,0.0,0.0,0.0,0.0,0.0,0.0,0.0,0.0,0.0,0.0,0.0,0.0,0.0,0.0,0.0,0.0,0.0,0.0,0.0,0.0,0.0,0.0,0.0,0.0,0.0,0.0,0.0,0.0,0.0,0.0,0.0,0.0,0.0,0.0,0.0,0.0,0.0,0.0,0.0,0.0,0.0,0.0,0.0,0.0,0.0,0.0,0.0,0.0,0.0,0.0,0.0,0.0,0.0,2.3376,0.0,0.0,0.0,0.0,0.0,0.0,0.0,0.0,0.0,0.0,0.0,0.0,0.0,0.0,0.0,0.0,0.0,0.0,0.0,0.0,0.0,0.0,0.0,0.0,0.0,0.0,0.0,0.0,0.0,0.0,0.0,0.0,0.0,0.0,0.0,0.0,0.0,0.0,0.0,0.0,0.0,0.0,0.0,0.0,0.0,0.0,0.0,0.0,0.0,0.0,0.0,0.0,0.0,0.0,0.0,0.0,0.0,0.0,0.0,0.0,0.0,0.0,0.0,0.0,0.0,0.0,0.0,0.0,0.0,0.0,0.0,0.0,0.0,0.0,0.0,0.0,0.0,0.0,0.0,0.0,0.0,0.0,0.0,0.0,0.0,0.0,0.0,0.0,0.0,0.0,0.0,0.0,0.0,0.0,0.0,0.0,0.0,0.0,0.0,0.0,0.0,0.0,0.0,0.0,0.0,0.0,0.0,0.0,0.0,0.0,2.6015,2.5609,2.5318,2.4823,2.4156,0.0,0.0,0.0,0.0,0.0,0.0,0.0,0.0,0.0,0.0,0.0,0.0,0.0,0.0,0.0,0.0,0.0,0.0,0.0,0.0,0.0,0.0,0.0,0.0,0.0,0.0,0.0,0.0,0.0,0.0,0.0,0.0,0.0,0.0,0.0,0.0,0.0,0.0,0.0,0.0,0.0,0.0,0.0,0.0,0.0,0.0,0.0,0.0,0.0,0.0,0.0,0.0,0.0,0.0,0.0,0.0,0.0,0.0,0.0,0.0,0.0,0.0,0.0,0.0,0.0,0.0,0.0,0.0,0.0,0.0,0.0,0.0,0.0,0.0,0.0,0.0,0.0,0.0,0.0,0.0,0.0,0.0,0.0,0.0,0.0,0.0,0.0,0.0,0.0,0.0,0.0,0.0,0.0,0.0,0.0,0.0,0.0,0.0,0.0,0.0,0.0,0.0,0.0,0.0,0.0,0.0,0.0,0.0,0.0,0.0,0.0,0.0,2.5927,2.5666,2.5024,0.0,0.0,0.0,0.0,0.0,0.0,0.0,0.0,0.0,0.0,0.0,0.0,0.0,0.0,0.0,0.0,0.0,0.0,0.0,0.0,0.0,0.0,0.0,0.0,0.0,0.0,0.0,0.0,0.0,0.0,0.0,0.0,0.0,0.0,0.0,0.0,0.0,0.0,0.0,0.0,0.0,0.0,0.0,0.0,0.0,0.0,0.0,0.0,0.0,0.0,0.0,0.0,0.0,0.0,0.0,0.0,0.0,0.0,0.0,0.0,0.0,0.0,0.0,0.0,0.0,0.0,0.0,0.0,0.0,0.0,0.0,0.0,0.0,0.0,0.0,0.0,0.0,0.0,0.0,0.0,0.0,0.0,0.0,0.0,0.0,0.0,0.0,0.0,0.0,0.0,0.0,0.0,0.0,0.0,0.0,0.0,0.0,0.0,0.0,0.0,0.0,0.0,0.0,0.0,0.0,0.0,0.0,0.0,0.0,0.0,2.6657,2.659,2.6723,0.0,2.6137,0.0,0.0,0.0,0.0,0.0,0.0,0.0,0.0,0.0,0.0,0.0,0.0,0.0,0.0,0.0,0.0,0.0,0.0,0.0,0.0,0.0,0.0,0.0,0.0,0.0,0.0,0.0,0.0,0.0,0.0,0.0,0.0,0.0,0.0,0.0,0.0,0.0,0.0,0.0,0.0,0.0,0.0,0.0,0.0,0.0,0.0,0.0,0.0,0.0,0.0,0.0,0.0,0.0,0.0,0.0,0.0,0.0,0.0,0.0,0.0,0.0,0.0,0.0,0.0,0.0,0.0,0.0,0.0,0.0,0.0,0.0,0.0,0.0,0.0,0.0,0.0,0.0,0.0,0.0,0.0,0.0,0.0,0.0,0.0,0.0,0.0,0.0,0.0,0.0,0.0,0.0,0.0,0.0,0.0,0.0,0.0,0.0,0.0,0.0,0.0,0.0,0.0,0.0,0.0,0.0,0.0,0.0,0.0,0.0,0.0,2.6708,2.6708,2.6859,2.6491,0.0,0.0,0.0,0.0,0.0,0.0,0.0,0.0,0.0,0.0,0.0,0.0,0.0,0.0,0.0,0.0,0.0,0.0,0.0,0.0,0.0,0.0,0.0,0.0,0.0,0.0,0.0,0.0,0.0,0.0,0.0,0.0,0.0,0.0,0.0,0.0,0.0,0.0,0.0,0.0,0.0,0.0,0.0,0.0,0.0,0.0,0.0,0.0,0.0,0.0,0.0,0.0,0.0,0.0,0.0,0.0,0.0,0.0,0.0,0.0,0.0,0.0,0.0,0.0,0.0,0.0,0.0,0.0,0.0,0.0,0.0,0.0,0.0,0.0,0.0,0.0,0.0,0.0,0.0,0.0,0.0,0.0,0.0,0.0,0.0,0.0,0.0,0.0,0.0,0.0,0.0,0.0,0.0,0.0,0.0,0.0,0.0,0.0,0.0,0.0,0.0,0.0,0.0,0.0,0.0,0.0,0.0,0.0,0.0,0.0,2.6928,2.7063,2.7148,2.7265,2.6576,2.4986,0.0,0.0,0.0,0.0,0.0,0.0,0.0,0.0,0.0,0.0,0.0,0.0,0.0,0.0,0.0,0.0,0.0,0.0,0.0,0.0,0.0,0.0,0.0,0.0,0.0,0.0,0.0,0.0,0.0,0.0,0.0,0.0,0.0,0.0,0.0,0.0,0.0,0.0,0.0,0.0,0.0,0.0,0.0,0.0,0.0,0.0,0.0,0.0,0.0,0.0,0.0,0.0,0.0,0.0,0.0,0.0,0.0,0.0,0.0,0.0,0.0,0.0,0.0,0.0,0.0,0.0,0.0,0.0,0.0,0.0,0.0,0.0,0.0,0.0,0.0,0.0,0.0,0.0,0.0,0.0,0.0,0.0,0.0,0.0,0.0,0.0,0.0,0.0,0.0,0.0,0.0,0.0,0.0,0.0,0.0,0.0,0.0,0.0,0.0,0.0,0.0,0.0,0.0,0.0,0.0,0.0,0.0,0.0,2.6742,2.7521,2.8032,2.8218,2.8235,2.7219,0.0,0.0,0.0,0.0,0.0,0.0,0.0,0.0,0.0,0.0,0.0,0.0,0.0,0.0,0.0,0.0,0.0,0.0,0.0,0.0,0.0,0.0,0.0,0.0,0.0,0.0,0.0,0.0,0.0,0.0,0.0,0.0,0.0,0.0,0.0,0.0,0.0,0.0,0.0,0.0,0.0,0.0,0.0,0.0,0.0,0.0,0.0,0.0,0.0,0.0,0.0,0.0,0.0,0.0,0.0,0.0,0.0,0.0,0.0,0.0,0.0,0.0,0.0,0.0,0.0,0.0,0.0,0.0,0.0,0.0,0.0,0.0,0.0,0.0,0.0,0.0,0.0,0.0,0.0,0.0,0.0,0.0,0.0,0.0,0.0,0.0,0.0,0.0,0.0,0.0,0.0,0.0,0.0,0.0,0.0,0.0,0.0,0.0,0.0,0.0,0.0,0.0,0.0,0.0,0.0,0.0,0.0,0.0,0.0,2.7538,2.839,2.8887,2.8991,2.8544,2.7509,0.0,0.0,0.0,0.0,0.0,0.0,0.0,0.0,0.0,0.0,0.0,0.0,0.0,0.0,0.0,0.0,0.0,0.0,0.0,0.0,0.0,0.0,0.0,0.0,0.0,0.0,0.0,0.0,0.0,0.0,0.0,0.0,0.0,0.0,0.0,0.0,0.0,0.0,0.0,0.0,0.0,0.0,0.0,0.0,0.0,0.0,0.0,0.0,0.0,0.0,0.0,0.0,0.0,0.0,0.0,0.0,0.0,0.0,0.0,0.0,0.0,0.0,0.0,0.0,0.0,0.0,0.0,0.0,0.0,0.0,0.0,0.0,0.0,0.0,0.0,0.0,0.0,0.0,0.0,0.0,0.0,0.0,0.0,0.0,0.0,0.0,0.0,0.0,0.0,0.0,0.0,0.0,0.0,0.0,0.0,0.0,0.0,0.0,0.0,0.0,0.0,0.0,0.0,0.0,0.0,0.0,0.0,0.0,0.0,2.9159,0.0,3.0141,0.0,2.9782,2.8624,0.0,0.0,0.0,0.0,0.0,0.0,0.0,0.0,0.0,0.0,0.0,0.0,0.0,0.0,0.0,0.0,0.0,0.0,0.0,0.0,0.0,0.0,0.0,0.0,0.0,0.0,0.0,0.0,0.0,0.0,0.0,0.0,0.0,0.0,0.0,0.0,0.0,0.0,0.0,0.0,0.0,0.0,0.0,0.0,0.0,0.0,0.0,0.0,0.0,0.0,0.0,0.0,0.0,0.0,0.0,0.0,0.0,0.0,0.0,0.0,0.0,0.0,0.0,0.0,0.0,0.0,0.0,0.0,0.0,0.0,0.0,0.0,0.0,0.0,0.0,0.0,0.0,0.0,0.0,0.0,0.0,0.0,0.0,0.0,0.0,0.0,0.0,0.0,0.0,0.0,0.0,0.0,0.0,0.0,0.0,0.0,0.0,0.0,0.0,0.0,0.0,0.0,0.0,0.0,0.0,0.0,0.0,0.0,2.9244,3.1551,3.18,3.1908,3.1947,3.2002,3.0645,0.0,0.0,0.0,0.0,0.0,0.0,0.0,0.0,0.0,0.0,0.0,0.0,0.0,0.0,0.0,0.0,0.0,0.0,0.0,0.0,0.0,0.0,0.0,0.0,0.0,0.0,0.0,0.0,0.0,0.0,0.0,0.0,0.0,0.0,0.0,0.0,0.0,0.0,0.0,0.0,0.0,0.0,0.0,0.0,0.0,0.0,0.0,0.0,0.0,0.0,0.0,0.0,0.0,0.0,0.0,0.0,0.0,0.0,0.0,0.0,0.0,0.0,0.0,0.0,0.0,0.0,0.0,0.0,0.0,0.0,0.0,0.0,0.0,0.0,0.0,0.0,0.0,0.0,0.0,0.0,0.0,0.0,0.0,0.0,0.0,0.0,0.0,0.0,0.0,0.0,0.0,0.0,0.0,0.0,0.0,0.0,0.0,0.0,0.0,0.0,0.0,0.0,0.0,0.0,0.0,0.0,0.0,0.0,0.0,3.2559,3.375,3.4349,3.4351,3.3449,3.176,0.0,0.0,0.0,0.0,0.0,0.0,0.0,0.0,0.0,0.0,0.0,0.0,0.0,0.0,0.0,0.0,0.0,0.0,0.0,0.0,0.0,0.0,0.0,0.0,0.0,0.0,0.0,0.0,0.0,0.0,0.0,0.0,0.0,0.0,0.0,0.0,0.0,0.0,0.0,0.0,0.0,0.0,0.0,0.0,0.0,0.0,0.0,0.0,0.0,0.0,0.0,0.0,0.0,0.0,0.0,0.0,0.0,0.0,0.0,0.0,0.0,0.0,0.0,0.0,0.0,0.0,0.0,0.0,0.0,0.0,0.0,0.0,0.0,0.0,0.0,0.0,0.0,0.0,0.0,0.0,0.0,0.0,0.0,0.0,0.0,0.0,0.0,0.0,0.0,0.0,0.0,0.0,0.0,0.0,0.0,0.0,0.0,0.0,0.0,0.0,0.0,0.0,0.0,0.0,0.0,0.0,0.0,0.0,0.0,3.589,3.6861,3.7376,3.7434,3.6243,3.4228,3.1339,0.0,0.0,0.0,0.0,0.0,0.0,0.0,0.0,0.0,0.0,0.0,0.0,0.0,0.0,0.0,0.0,0.0,0.0,0.0,0.0,0.0,0.0,0.0,0.0,0.0,0.0,0.0,0.0,0.0,0.0,0.0,0.0,0.0,0.0,0.0,0.0,0.0,0.0,0.0,0.0,0.0,0.0,0.0,0.0,0.0,0.0,0.0,0.0,0.0,0.0,0.0,0.0,0.0,0.0,0.0,0.0,0.0,0.0,0.0,0.0,0.0,0.0,0.0,0.0,0.0,0.0,0.0,0.0,0.0,0.0,0.0,0.0,0.0,0.0,0.0,0.0,0.0,0.0,0.0,0.0,0.0,0.0,0.0,0.0,0.0,0.0,0.0,0.0,0.0,0.0,0.0,0.0,0.0,0.0,0.0,0.0,0.0,0.0,0.0,0.0,0.0,0.0,0.0,0.0,0.0,0.0,0.0,0.0,4.1032,4.0993,4.0908,4.0775,3.9914,3.7633,0.0,0.0,0.0,0.0,0.0,0.0,0.0,0.0,0.0,0.0,0.0,0.0,0.0,0.0,0.0,0.0,0.0,0.0,0.0,0.0,0.0,0.0,0.0,0.0,0.0,0.0,0.0,0.0,0.0,0.0,0.0,0.0,0.0,0.0,0.0,0.0,0.0,0.0,0.0,0.0,0.0,0.0,0.0,0.0,0.0,0.0,0.0,0.0,0.0,0.0,0.0,0.0,0.0,0.0,0.0,0.0,0.0,0.0,0.0,0.0,0.0,0.0,0.0,0.0,0.0,0.0,0.0,0.0,0.0,0.0,0.0,0.0,0.0,0.0,0.0,0.0,0.0,0.0,0.0,0.0,0.0,0.0,0.0,0.0,0.0,0.0,0.0,0.0,0.0,0.0,0.0,0.0,0.0,0.0,0.0,0.0,0.0,0.0,0.0,0.0,0.0,0.0,0.0,0.0,0.0,0.0,0.0,0.0,0.0,4.4149,4.5764,4.5231,4.2486,4.0648,3.8173,0.0,0.0,0.0,0.0,0.0,0.0,0.0,0.0,0.0,0.0,0.0,0.0,0.0,0.0,0.0,0.0,0.0,0.0,0.0,0.0,0.0,0.0,0.0,0.0,0.0,0.0,0.0,0.0,0.0,0.0,0.0,0.0,0.0,0.0,0.0,0.0,0.0,0.0,0.0,0.0,0.0,0.0,0.0,0.0,0.0,0.0,0.0,0.0,0.0,0.0,0.0,0.0,0.0,0.0,0.0,0.0,0.0,0.0,0.0,0.0,0.0,0.0,0.0,0.0,0.0,0.0,0.0,0.0,0.0,0.0,0.0,0.0,0.0,0.0,0.0,0.0,0.0,0.0,0.0,0.0,0.0,0.0,0.0,0.0,0.0,0.0,0.0,0.0,0.0,0.0,0.0,0.0,0.0,0.0,0.0,0.0,0.0,0.0,0.0,0.0,0.0,0.0,0.0,0.0,0.0,0.0,0.0,0.0,4.2738,4.6027,4.8145,4.8111,4.5813,4.3523,4.0552,0.0,0.0,0.0,0.0,0.0,0.0,0.0,0.0,0.0,0.0,0.0,0.0,0.0,0.0,0.0,0.0,0.0,0.0,0.0,0.0,0.0,0.0,0.0,0.0,0.0,0.0,0.0,0.0,0.0,0.0,0.0,0.0,0.0,0.0,0.0,0.0,0.0,0.0,0.0,0.0,0.0,0.0,0.0,0.0,0.0,0.0,0.0,0.0,0.0,0.0,0.0,0.0,0.0,0.0,0.0,0.0,0.0,0.0,0.0,0.0,0.0,0.0,0.0,0.0,0.0,0.0,0.0,0.0,0.0,0.0,0.0,0.0,0.0,0.0,0.0,0.0,0.0,0.0,0.0,0.0,0.0,0.0,0.0,0.0,0.0,0.0,0.0,0.0,0.0,0.0,0.0,0.0,0.0,0.0,0.0,0.0,0.0,0.0,0.0,0.0,0.0,0.0,0.0,0.0,0.0,0.0,0.0,0.0,4.463,4.6952,4.8903,4.984,4.9644,4.6984,4.35,0.0,0.0,0.0,0.0,0.0,0.0,0.0,0.0,0.0,0.0,0.0,0.0,0.0,0.0,0.0,0.0,0.0,0.0,0.0,0.0,0.0,0.0,0.0,0.0,0.0,0.0,0.0,0.0,0.0,0.0,0.0,0.0,0.0,0.0,0.0,0.0,0.0,0.0,0.0,0.0,0.0,0.0,0.0,0.0,0.0,0.0,0.0,0.0,0.0,0.0,0.0,0.0,0.0,0.0,0.0,0.0,0.0,0.0,0.0,0.0,0.0,0.0,0.0,0.0,0.0,0.0,0.0,0.0,0.0,0.0,0.0,0.0,0.0,0.0,0.0,0.0,0.0,0.0,0.0,0.0,0.0,0.0,0.0,0.0,0.0,0.0,0.0,0.0,0.0,0.0,0.0,0.0,0.0,0.0,0.0,0.0,0.0,0.0,0.0,0.0,0.0,0.0,0.0,0.0,0.0,0.0,0.0,0.0,4.5,4.753,4.9124,5.0083,5.0434,4.6491,4.3291,0.0,0.0,0.0,0.0,0.0,0.0,0.0,0.0,0.0,0.0,0.0,0.0,0.0,0.0,0.0,0.0,0.0,0.0,0.0,0.0,0.0,0.0,0.0,0.0,0.0,0.0,0.0,0.0,0.0,0.0,0.0,0.0,0.0,0.0,0.0,0.0,0.0,0.0,0.0,0.0,0.0,0.0,0.0,0.0,0.0,0.0,0.0,0.0,3.4566,0.0,0.0,0.0,0.0,0.0,0.0,0.0,0.0,0.0,0.0,0.0,0.0,0.0,0.0,0.0,0.0,0.0,0.0,0.0,0.0,0.0,0.0,0.0,0.0,0.0,0.0,0.0,0.0,0.0,0.0,0.0,0.0,0.0,0.0,0.0,0.0,0.0,0.0,0.0,0.0,0.0,0.0,0.0,0.0,0.0,0.0,0.0,0.0,0.0,0.0,0.0,0.0,0.0,0.0,0.0,0.0,0.0,0.0,0.0,4.6017,4.8679,5.0029,5.084,5.0981,4.7629,4.4586,0.0,0.0,0.0,0.0,0.0,0.0,0.0,0.0,0.0,0.0,0.0,0.0,0.0,0.0,0.0,0.0,0.0,0.0,0.0,0.0,0.0,0.0,0.0,0.0,0.0,0.0,0.0,0.0,0.0,0.0,0.0,0.0,0.0,0.0,0.0,0.0,0.0,0.0,0.0,0.0,0.0,0.0,0.0,0.0,0.0,0.0,0.0,0.0,0.0,0.0,0.0,0.0,0.0,0.0,0.0,0.0,0.0,0.0,0.0,0.0,0.0,0.0,0.0,0.0,0.0,0.0,0.0,0.0,0.0,0.0,0.0,0.0,0.0,0.0,0.0,0.0,0.0,0.0,0.0,0.0,0.0,0.0,0.0,0.0,0.0,0.0,0.0,0.0,0.0,0.0,0.0,0.0,0.0,0.0,0.0,0.0,0.0,0.0,0.0,0.0,0.0,0.0,0.0,0.0,0.0,0.0,0.0,4.4102,4.7115,4.9862,5.0923,5.1482,5.1558,4.9092,4.6277,4.312,0.0,0.0,0.0,0.0,0.0,0.0,0.0,0.0,0.0,0.0,0.0,0.0,0.0,0.0,0.0,0.0,0.0,0.0,0.0,0.0,0.0,0.0,0.0,0.0,0.0,0.0,0.0,0.0,0.0,0.0,0.0,0.0,0.0,0.0,0.0,0.0,0.0,0.0,2.9068,3.2293,0.0,0.0,0.0,0.0,0.0,0.0,0.0,0.0,3.6723,0.0,0.0,0.0,0.0,0.0,0.0,0.0,0.0,0.0,0.0,0.0,0.0,0.0,0.0,0.0,0.0,0.0,0.0,0.0,0.0,0.0,0.0,0.0,0.0,0.0,0.0,0.0,0.0,0.0,0.0,0.0,0.0,0.0,0.0,0.0,0.0,0.0,0.0,0.0,0.0,0.0,0.0,0.0,0.0,0.0,0.0,0.0,0.0,0.0,0.0,0.0,0.0,0.0,0.0,0.0,0.0,4.2056,4.4649,4.7442,5.0453,5.0735,5.1105,5.1497,4.9166,4.6806,4.4478,0.0,0.0,0.0,0.0,0.0,0.0,0.0,0.0,0.0,0.0,0.0,0.0,0.0,0.0,0.0,0.0,0.0,0.0,0.0,0.0,0.0,0.0,0.0,0.0,0.0,0.0,0.0,0.0,0.0,0.0,0.0,0.0,0.0,0.0,0.0,0.0,0.0,0.0,0.0,3.5518,3.7914,0.0,0.0,0.0,0.0,0.0,0.0,0.0,0.0,3.9166,0.0,0.0,0.0,0.0,0.0,0.0,0.0,0.0,0.0,0.0,0.0,0.0,0.0,0.0,0.0,0.0,0.0,0.0,0.0,0.0,0.0,0.0,0.0,0.0,0.0,0.0,0.0,0.0,0.0,0.0,0.0,0.0,0.0,0.0,0.0,0.0,0.0,0.0,0.0,0.0,0.0,0.0,0.0,0.0,0.0,0.0,0.0,0.0,0.0,0.0,0.0,0.0,0.0,0.0,0.0,4.2911,4.5876,4.8589,5.1059,5.1482,5.1626,5.1565,4.9519,4.7192,0.0,0.0,0.0,0.0,0.0,0.0,0.0,0.0,0.0,0.0,0.0,0.0,0.0,0.0,0.0,0.0,0.0,0.0,0.0,0.0,0.0,0.0,0.0,0.0,0.0,0.0,0.0,0.0,0.0,0.0,0.0,0.0,0.0,0.0,0.0,0.0,0.0,0.0,0.0,0.0,3.7626,3.9804,4.1176,0.0,0.0,0.0,0.0,0.0,0.0,4.222,4.1594,0.0,0.0,0.0,0.0,0.0,0.0,0.0,0.0,0.0,0.0,0.0,0.0,0.0,0.0,0.0,0.0,0.0,0.0,0.0,0.0,0.0,0.0,0.0,0.0,0.0,0.0,0.0,0.0,0.0,0.0,0.0,0.0,0.0,0.0,0.0,0.0,0.0,0.0,0.0,0.0,0.0,0.0,0.0,0.0,0.0,0.0,0.0,0.0,0.0,0.0,0.0,0.0,0.0,0.0,0.0,4.3803,4.7012,4.9629,5.1685,5.2251,5.2203,5.1524,4.9627,4.7147,0.0,0.0,0.0,0.0,0.0,0.0,0.0,0.0,0.0,0.0,0.0,0.0,0.0,0.0,0.0,0.0,0.0,0.0,0.0,0.0,0.0,0.0,0.0,0.0,0.0,0.0,0.0,0.0,0.0,0.0,0.0,0.0,0.0,0.0,0.0,0.0,0.0,0.0,0.0,0.0,0.0,4.1523,4.2648,4.4072,0.0,0.0,0.0,0.0,4.4345,4.4289,0.0,0.0,0.0,0.0,0.0,0.0,0.0,0.0,0.0,0.0,0.0,0.0,0.0,0.0,0.0,0.0,0.0,0.0,0.0,0.0,0.0,0.0,0.0,0.0,0.0,0.0,0.0,0.0,0.0,0.0,0.0,0.0,0.0,0.0,0.0,0.0,0.0,0.0,0.0,0.0,0.0,0.0,0.0,0.0,0.0,0.0,0.0,0.0,0.0,0.0,0.0,0.0,0.0,0.0,0.0,0.0,4.4464,4.7232,4.9848,5.2242,5.2475,5.2113,5.1343,4.8948,4.6194,0.0,0.0,0.0,0.0,0.0,0.0,0.0,0.0,0.0,0.0,0.0,0.0,0.0,0.0,0.0,0.0,0.0,0.0,0.0,0.0,0.0,0.0,0.0,0.0,0.0,0.0,0.0,0.0,0.0,0.0,0.0,0.0,0.0,0.0,0.0,0.0,0.0,0.0,0.0,0.0,0.0,4.3542,4.5205,4.6232,4.6727,0.0,0.0,4.6122,4.7516,4.7149,0.0,0.0,0.0,0.0,0.0,0.0,0.0,0.0,0.0,0.0,0.0,0.0,0.0,0.0,0.0,0.0,0.0,0.0,0.0,0.0,0.0,0.0,0.0,0.0,0.0,0.0,0.0,0.0,0.0,0.0,0.0,0.0,0.0,0.0,0.0,0.0,0.0,0.0,0.0,0.0,0.0,0.0,0.0,0.0,0.0,0.0,0.0,0.0,0.0,0.0,0.0,0.0,0.0,0.0,0.0,4.0423,4.4773,4.7908,5.0466,5.2408,5.2498,5.2118,5.1321,4.8905,4.6094,0.0,0.0,0.0,0.0,0.0,0.0,0.0,0.0,0.0,0.0,0.0,0.0,0.0,0.0,0.0,0.0,0.0,0.0,0.0,0.0,0.0,0.0,0.0,0.0,0.0,0.0,0.0,0.0,0.0,0.0,0.0,0.0,0.0,0.0,0.0,0.0,0.0,0.0,0.0,0.0,0.0,0.0,4.6414,4.8433,0.0,0.0,0.0,4.9426,4.9682,0.0,0.0,0.0,0.0,0.0,0.0,0.0,0.0,0.0,0.0,0.0,0.0,0.0,0.0,0.0,0.0,0.0,0.0,0.0,0.0,0.0,0.0,0.0,0.0,0.0,0.0,0.0,0.0,0.0,0.0,0.0,0.0,0.0,0.0,0.0,0.0,0.0,0.0,0.0,0.0,0.0,0.0,0.0,0.0,0.0,0.0,0.0,0.0,0.0,0.0,0.0,0.0,0.0,0.0,0.0,0.0,0.0,4.5093,4.8487,5.0965,5.2454,5.2521,5.2009,5.0977,4.8659,0.0,0.0,0.0,0.0,0.0,0.0,0.0,0.0,0.0,0.0,0.0,0.0,0.0,0.0,0.0,0.0,0.0,0.0,0.0,0.0,0.0,0.0,0.0,0.0,0.0,0.0,0.0,2.2829,0.0,0.0,0.0,0.0,0.0,0.0,0.0,0.0,0.0,0.0,0.0,0.0,0.0,0.0,4.7827,4.825,5.064,5.2004,0.0,0.0,5.191,5.1463,5.0977,5.0192,0.0,0.0,0.0,0.0,0.0,0.0,0.0,0.0,0.0,0.0,0.0,0.0,0.0,0.0,0.0,0.0,0.0,0.0,0.0,0.0,0.0,0.0,0.0,0.0,0.0,0.0,0.0,0.0,0.0,0.0,0.0,0.0,0.0,0.0,0.0,0.0,0.0,0.0,0.0,0.0,0.0,0.0,0.0,0.0,0.0,0.0,0.0,0.0,0.0,0.0,0.0,0.0,0.0,0.0,4.2068,4.543,4.8592,5.0973,5.2536,5.2531,5.1737,5.0202,4.7844,4.5091,0.0,0.0,0.0,0.0,0.0,0.0,0.0,0.0,0.0,0.0,0.0,0.0,0.0,0.0,0.0,0.0,0.0,0.0,0.0,0.0,0.0,0.0,0.0,0.0,0.0,0.0,0.0,0.0,0.0,0.0,0.0,0.0,0.0,0.0,0.0,0.0,0.0,0.0,0.0,0.0,0.0,5.0098,5.1706,5.2778,5.3566,0.0,5.3042,5.2439,5.2952,5.3303,5.2475,4.941,0.0,0.0,0.0,0.0,0.0,0.0,0.0,0.0,0.0,0.0,0.0,0.0,0.0,0.0,0.0,0.0,0.0,0.0,0.0,0.0,0.0,0.0,0.0,0.0,0.0,0.0,0.0,0.0,0.0,0.0,0.0,0.0,0.0,0.0,0.0,0.0,0.0,0.0,0.0,0.0,0.0,0.0,0.0,0.0,0.0,0.0,0.0,0.0,0.0,0.0,0.0,0.0,0.0,4.2232,4.5547,4.8796,5.1143,5.254,5.2649,5.1863,5.0199,4.8374,4.5688,0.0,0.0,0.0,0.0,0.0,0.0,0.0,0.0,0.0,0.0,0.0,0.0,0.0,0.0,0.0,0.0,0.0,0.0,0.0,0.0,0.0,0.0,0.0,0.0,0.0,0.0,0.0,0.0,2.7498,2.8735,3.068,0.0,0.0,0.0,0.0,0.0,0.0,0.0,0.0,0.0,0.0,5.1781,5.4016,5.5061,0.0,0.0,5.5939,5.5638,5.4801,5.4385,5.357,5.1879,5.076,0.0,0.0,0.0,0.0,0.0,0.0,0.0,0.0,0.0,0.0,0.0,0.0,0.0,0.0,0.0,0.0,0.0,0.0,0.0,0.0,0.0,0.0,0.0,0.0,0.0,0.0,0.0,0.0,0.0,0.0,0.0,0.0,0.0,0.0,0.0,0.0,0.0,0.0,0.0,0.0,0.0,0.0,0.0,0.0,0.0,0.0,0.0,0.0,0.0,0.0,0.0,0.0,4.2828,4.6232,4.9107,5.1203,5.2502,5.2466,5.1613,4.9925,4.8443,4.5986,0.0,0.0,0.0,0.0,0.0,0.0,0.0,0.0,0.0,0.0,0.0,0.0,0.0,0.0,0.0,0.0,0.0,0.0,0.0,0.0,0.0,0.0,0.0,0.0,0.0,0.0,0.0,0.0,2.9059,3.0678,3.2742,0.0,0.0,0.0,0.0,0.0,0.0,0.0,0.0,0.0,0.0,5.4126,5.6172,5.6993,5.7427,5.7622,5.78,5.7567,5.6559,5.5826,5.5015,5.3978,0.0,0.0,0.0,0.0,0.0,0.0,0.0,0.0,0.0,0.0,0.0,0.0,0.0,0.0,0.0,0.0,0.0,0.0,0.0,0.0,0.0,0.0,0.0,0.0,0.0,0.0,0.0,2.336,0.0,0.0,2.4781,0.0,0.0,0.0,0.0,0.0,0.0,0.0,0.0,0.0,0.0,0.0,0.0,0.0,0.0,0.0,0.0,0.0,0.0,0.0,0.0,0.0,0.0,4.3998,4.7683,4.96,5.1156,5.2249,5.1862,5.0897,4.9307,4.7682,4.5676,4.3214,0.0,0.0,0.0,0.0,0.0,0.0,0.0,0.0,0.0,0.0,0.0,0.0,0.0,0.0,0.0,0.0,0.0,0.0,0.0,0.0,0.0,0.0,0.0,0.0,0.0,0.0,2.8962,3.1225,3.3068,0.0,0.0,0.0,0.0,0.0,0.0,0.0,0.0,0.0,5.3182,5.5632,5.7475,5.8309,5.8461,5.8694,5.9252,5.8229,5.757,5.8132,5.7906,5.7019,0.0,0.0,0.0,0.0,0.0,0.0,0.0,0.0,0.0,0.0,0.0,0.0,0.0,0.0,0.0,0.0,0.0,0.0,0.0,0.0,0.0,0.0,0.0,0.0,0.0,0.0,0.0,3.0075,3.0868,0.0,0.0,0.0,0.0,0.0,0.0,0.0,0.0,0.0,0.0,0.0,4.1782,4.1821,0.0,0.0,0.0,0.0,0.0,0.0,0.0,0.0,0.0,0.0,0.0,0.0,4.411,4.7018,4.936,5.0964,5.1801,5.1729,5.1137,5.0024,4.8998,4.6797,4.3308,0.0,0.0,0.0,0.0,0.0,0.0,0.0,0.0,0.0,0.0,0.0,0.0,0.0,0.0,0.0,0.0,0.0,0.0,0.0,0.0,0.0,0.0,0.0,0.0,0.0,2.9743,0.0,0.0,0.0,0.0,0.0,0.0,0.0,0.0,0.0,0.0,0.0,5.2323,5.6032,5.7275,5.8347,5.9764,6.0035,6.0137,0.0,0.0,0.0,0.0,0.0,0.0,0.0,0.0,0.0,0.0,0.0,0.0,0.0,0.0,5.6216,5.1819,5.1097,5.1631,5.3154,0.0,0.0,0.0,0.0,0.0,0.0,0.0,0.0,0.0,0.0,0.0,0.0,0.0,0.0,3.5757,0.0,3.7281,0.0,0.0,0.0,0.0,0.0,0.0,0.0,0.0,4.4025,4.5337,4.6087,4.6239,4.5784,0.0,4.3494,4.1343,0.0,0.0,0.0,0.0,0.0,0.0,0.0,0.0,4.5136,4.7755,4.9568,5.0804,5.1378,5.1332,5.0871,5.0033,4.9024,4.7093,4.4165,4.204,3.9599,0.0,0.0,0.0,0.0,0.0,0.0,0.0,0.0,0.0,0.0,0.0,0.0,0.0,0.0,0.0,0.0,0.0,0.0,0.0,0.0,0.0,0.0,0.0,3.1744,0.0,0.0,0.0,0.0,0.0,0.0,0.0,0.0,0.0,5.1882,5.3281,5.5432,5.8546,5.929,5.9842,6.0681,0.0,0.0,0.0,0.0,0.0,0.0,0.0,6.1331,6.0456,6.1297,6.2239,6.2754,6.3763,6.4538,6.4584,0.0,0.0,5.7355,5.6535,5.6994,5.818,5.8698,5.929,6.0508,6.0994,6.1192,0.0,0.0,0.0,0.0,0.0,0.0,0.0,0.0,4.0005,4.0309,0.0,4.1253,0.0,0.0,0.0,0.0,0.0,4.3028,0.0,0.0,4.8457,4.9669,4.8924,4.9275,4.9421,4.9256,4.7039,4.6187,4.6259,4.0666,0.0,0.0,0.0,0.0,0.0,0.0,4.7048,4.9722,5.0256,5.0693,5.1035,5.0708,5.0125,4.9367,4.7893,4.6685,4.581,4.434,4.2019,3.878,3.7799,0.0,0.0,0.0,0.0,0.0,0.0,0.0,0.0,0.0,0.0,0.0,0.0,0.0,0.0,0.0,0.0,0.0,0.0,0.0,0.0,3.2072,0.0,0.0,0.0,0.0,0.0,0.0,0.0,0.0,0.0,0.0,5.5734,5.7839,5.9777,6.0766,0.0,0.0,0.0,0.0,6.1428,6.2361,6.2549,6.2925,6.3835,6.4668,6.4921,6.4087,0.0,0.0,6.6604,6.6698,6.6805,6.6751,6.681,6.5922,6.3281,6.2697,6.2774,6.2918,6.3543,6.4228,6.4409,6.4926,6.5477,4.3798,0.0,0.0,0.0,0.0,3.9403,4.1772,4.58,4.5497,4.578,4.6398,4.67,0.0,0.0,0.0,0.0,0.0,0.0,4.7302,4.8894,5.0508,5.158,5.2278,5.2395,5.2139,5.1546,5.0324,4.9575,4.919,4.6562,4.4454,4.2922,0.0,0.0,0.0,0.0,4.7688,4.9157,4.9955,5.0412,5.0538,5.0412,5.0241,5.0025,4.9569,4.8947,4.8147,4.7105,4.5483,4.3259,4.1271,0.0,0.0,0.0,0.0,0.0,0.0,0.0,0.0,0.0,0.0,0.0,0.0,0.0,0.0,0.0,0.0,0.0,0.0,0.0,3.2419,3.3859,3.6029,0.0,0.0,0.0,0.0,0.0,0.0,0.0,0.0,0.0,6.1997,6.0851,6.0548,0.0,0.0,6.324,6.3042,6.3064,6.3434,6.427,6.448,0.0,6.5692,6.6064,6.6193,6.6003,6.7341,6.8631,6.9256,6.9845,7.023,7.021,7.0286,7.0024,6.9241,6.709,6.5859,6.6349,6.6737,6.716,6.7825,6.8161,6.8278,5.0276,4.6445,4.3611,4.3328,4.4705,4.4589,4.6376,4.9333,4.8898,4.9018,4.9529,4.9561,4.8553,4.6761,4.7036,0.0,0.0,0.0,4.9978,5.1332,5.2123,5.291,5.3683,5.387,5.37,5.3231,5.2426,5.1975,5.1805,5.0514,4.9155,4.7729,0.0,0.0,4.7624,4.8264,4.9168,5.0361,5.0675,5.0818,5.0818,5.0474,5.0302,5.0283,4.9996,4.9595,4.9129,4.8277,4.6994,4.5241,4.3427,4.1068,0.0,0.0,0.0,0.0,0.0,0.0,0.0,0.0,0.0,0.0,0.0,3.4931,3.4791,0.0,0.0,0.0,3.2886,3.3103,3.5201,3.7191,0.0,0.0,0.0,0.0,0.0,0.0,0.0,5.9279,6.1073,6.3189,6.5899,6.4438,6.3683,6.5197,6.5387,6.5271,6.4948,0.0,6.5333,6.6195,6.6412,6.6759,6.7559,6.803,6.842,6.8806,6.9622,7.0436,7.0997,7.1535,7.1806,7.1814,7.1856,7.1887,7.1887,7.0118,6.8898,6.9459,6.9597,6.9818,7.039,7.0449,7.0448,5.5391,5.4997,5.0458,4.8811,4.919,4.9922,5.0477,5.0867,5.0831,5.0729,5.0637,5.07,5.0222,4.9392,5.001,0.0,4.9738,5.1562,5.2493,5.2661,5.3386,5.3758,5.3814,5.4176,5.4399,5.4425,5.3685,5.361,5.4,5.2907,5.2504,5.2736,4.9754,4.8936,5.0259,5.0385,5.1172,5.2679,5.2054,5.1658,5.1582,5.0741,5.0264,5.0187,4.95,4.9033,4.888,4.8124,4.6959,4.5392,4.4414,4.2427,3.9185,0.0,0.0,0.0,0.0,0.0,0.0,0.0,0.0,0.0,0.0,0.0,0.0,0.0,0.0,0.0,3.5506,0.0,3.8465,4.1699,0.0,0.0,0.0,5.3804,5.6533,5.8958,6.1135,6.3007,0.0,0.0,6.7994,6.8231,6.819,6.813,6.8017,6.7662,6.6943,6.6834,6.7161,6.8086,6.8262,6.8605,6.9452,7.0183,7.0854,7.1542,7.1992,7.1914,7.1932,7.1951,7.1988,7.1986,7.2001,7.1981,7.2001,7.1827,7.1985,7.1855,7.1894,7.1933,7.1873,7.1853,7.1831,5.7041,5.6945,5.5764,5.4635,5.3626,5.3826,5.4062,5.4263,5.3653,5.3449,5.3451,5.2904,5.2559,5.2438,5.2701,5.2766,5.2695,5.3143,5.3535,5.3877,5.4065,5.4313,5.4613,5.4711,5.4788,5.4825,5.467,5.4691,5.4884,5.4602,5.4255,5.3828,5.3085,5.2544,5.2176,5.2169,5.2396,5.2846,5.2686,5.2272,5.162,5.076,5.0015,4.9404,4.9186,4.8468,4.7169,4.692,4.6347,4.5326,4.3892,4.2372,4.0863,3.9223,0.0,0.0,0.0,0.0,0.0,0.0,0.0,0.0,0.0,4.1686,4.1895,0.0,4.4011,0.0,4.0635,4.1426,4.4684,4.6413,0.0,0.0,5.5142,5.7712,6.0953,6.2457,6.4154,6.6561,6.7199,6.8107,6.9834,7.0069,7.0303,7.0868,6.9848,6.8944,6.8758,6.8735,6.9039,6.9845,7.0032,7.0388,7.1151,7.1543,7.1738,7.1971,7.1989,7.1985,7.1984,7.1984,7.2002,7.2001,7.1999,7.1999,7.1999,7.1999,7.2001,7.1985,7.1985,7.1985,7.1984,7.2002,7.1982,5.8369,5.8348,5.826,5.7703,5.6854,5.6161,5.5727,5.5474,5.5119,5.5004,5.5036,5.4221,5.3744,5.3529,5.3758,5.3906,5.3979,5.4158,5.4347,5.4565,5.4584,5.468,5.4901,5.4931,5.4971,5.5038,5.5164,5.5249,5.5288,5.5454,5.5285,5.4829,5.4953,5.4744,5.4232,5.3758,5.3721,5.4131,5.3445,5.267,5.1826,5.0961,5.0287,4.9822,4.9094,4.822,4.7209,4.6482,4.5898,4.5448,4.4547,4.3464,4.222,4.1315,4.0082,0.0,0.0,0.0,0.0,0.0,0.0,0.0,0.0,0.0,0.0,0.0,4.7586,4.6203,4.5739,4.6931,5.0397,5.2222,5.4507,5.7673,5.9237,6.1274,6.4308,6.5438,6.6838,6.8993,6.9585,7.0193,7.1152,7.1288,7.1445,7.1933,7.1188,7.0555,7.0555,7.056,7.0719,7.1208,7.1288,7.1426,7.1953,7.1989,7.1986,7.1986,7.1984,7.1999,7.1994,7.1994,7.1993,7.1989,7.1989,7.1961,7.1901,7.1872,7.1845,7.1792,7.1779,7.1831,7.1965,7.1922,7.1861,5.9494,5.9344,5.9178,5.9083,5.8969,5.7664,5.6688,5.6,5.608,5.6091,5.5963,5.5275,5.461,5.4037,5.4367,5.4578,5.47,5.4953,5.5072,5.5053,5.4988,5.496,5.4956,5.5038,5.5116,5.5191,5.5439,5.5504,5.5458,5.574,5.5826,5.5661,5.5825,5.5949,5.5982,5.5113,5.5006,5.5698,5.4236,5.3093,5.2268,5.1397,5.0839,5.0497,4.9125,4.8204,4.7866,4.6518,4.5727,4.5612,4.562,4.4917,4.3384,4.3393,4.2814,0.0,4.215,0.0,0.0,0.0,0.0,0.0,0.0,0.0,0.0,5.039,5.0678,5.0972,5.103,5.2455,5.5788,5.8156,6.0196,6.1904,6.2942,6.4464,6.6836,6.7962,6.9119,7.0681,7.1523,7.1992,7.1972,7.1992,7.1992,7.1992,7.1914,7.1836,7.1953,7.1894,7.1875,7.1992,7.1992,7.1932,7.1989,7.1984,7.1977,7.1973,7.1948,7.1946,7.192,7.192,7.1937,7.1924,7.1916,7.1858,7.1714,7.1677,7.1641,7.1556,7.154,7.1601,7.1815,7.1792,7.1691,6.0431,5.9789,5.9738,5.9647,5.9463,5.9364,5.904,5.8558,5.8107,5.759,5.7085,5.6951,5.6781,5.6665,5.673,5.6781,5.6778,5.6197,5.5962,5.5925,5.5389,5.5164,5.5244,5.5416,5.5555,5.5663,5.5731,5.5779,5.5798,5.5852,5.5915,5.5915,5.602,5.6094,5.6158,0.0,0.0,0.0,5.4875,5.3973,5.3149,5.2306,5.1161,4.979,4.9423,0.0,4.7262,4.6896,4.6402,4.5727,4.5688,0.0,0.0,0.0,0.0,0.0,0.0,0.0,0.0,0.0,0.0,0.0,5.2559,5.2537,5.299,5.4295,5.5731,5.7104,5.7338,5.8506,6.1235,6.1914,6.2945,6.4638,6.5579,6.6818,6.8685,6.9684,7.0643,7.1621,7.1894,7.1992,7.1992,7.1992,7.1992,7.1992,7.1992,7.1992,7.1992,7.1992,7.1992,7.1991,7.1988,7.1985,7.2002,7.1994,7.1912,7.1815,7.1759,7.1716,7.1628,7.1621,7.1594,7.1626,7.1612,7.1593,7.1536,7.1529,7.1513,7.1501,7.1492,7.1525,7.1573,7.1566,7.1536,6.1621,6.0828,6.0738,6.0387,0.0,6.0015,5.9924,5.9717,5.9313,5.8724,5.8047,5.8047,5.782,5.7418,5.7502,5.7528,5.7543,5.722,5.7085,5.7061,5.6773,5.6635,5.6675,5.6449,5.6377,5.6423,5.614,5.5962,5.5924,5.61,5.6168,5.6093,5.622,5.6308,5.6345,5.6342,5.6283,5.6141,5.5287,5.4666,5.4252,5.3028,5.1897,5.0959,5.0158,0.0,0.0,0.0,0.0,0.0,0.0,0.0,0.0,0.0,0.0,4.8555,4.9433,5.0307,5.1252,5.249,5.3787,5.5123,5.638,5.6725,5.5853,5.7368,5.8903,6.0204,6.113,6.2371,6.4062,6.4635,6.5403,6.6662,6.7213,6.8157,6.9743,7.0428,7.1054,7.1816,7.1992,7.1992,7.1992,7.1992,7.1992,7.1992,7.1992,7.1991,7.1991,7.1991,7.199,7.1987,7.1999,7.1967,7.1884,7.1845,7.1803,7.1646,7.1595,7.1573,7.1517,7.1501,7.1501,7.1501,7.1445,7.1392,7.13,7.129,7.1239,7.1184,7.1142,7.1173,7.1195,7.1289,7.1339,6.2919,6.2138,6.1946,6.1349,6.0524,6.0543,6.0433,6.0231,0.0,0.0,0.0,5.9022,5.8623,5.7992,5.8125,5.8203,5.8203,5.8215,5.8244,5.8261,5.8176,5.8156,5.8159,5.7678,5.7428,5.7415,5.677,5.6388,5.6234,5.64,5.6407,5.6269,5.6407,5.6487,5.6487,5.6487,5.6446,5.631,5.5701,5.5293,5.5173,5.379,5.2907,5.2649,5.1371,5.0564,5.0278,4.9805,4.9459,4.9307,4.9467,4.9783,5.0333,5.0587,5.1031,5.1737,5.2581,5.3208,5.3535,5.5516,5.689,5.7252,5.9341,6.002,5.8602,5.9939,6.1291,6.2308,6.3696,6.4872,6.5741,6.6405,6.7092,6.7823,6.8198,6.8982,7.0252,7.08,7.123,7.1855,7.1992,7.1992,7.1992,7.1972,7.1931,7.1953,7.19,7.1895,7.1915,7.1915,7.1936,7.1926,7.1881,7.1827,7.1731,7.1669,7.1595,7.1473,7.1458,7.1422,7.1386,7.1367,7.1387,7.132,7.1262,7.116,7.105,7.0985,7.0902,7.0796,7.0791,7.0806,7.0857,7.0985,7.1112,6.421,6.3418,6.3408,6.2791,6.1824,6.1824,6.1317,6.0469,6.0411,6.0359,6.0244,6.0244,6.0187,6.0072,6.0098,6.0105,6.0067,5.9403,5.9144,5.9165,5.8634,5.841,5.8541,5.8616,5.8671,5.8661,5.7878,5.7493,5.7386,5.6801,5.6479,5.647,5.6479,5.6487,5.6487,5.6487,5.6483,5.6479,5.6342,5.5953,5.5212,5.494,5.4444,5.3638,5.3427,5.2959,5.2154,5.2741,5.2797,5.2119,5.2758,5.2866,5.2301,5.2955,5.3476,5.3652,5.4445,5.5548,5.6933,5.7424,5.8269,5.9741,6.0895,6.1399,6.123,6.2069,6.3306,6.4857,6.5249,6.576,6.6589,6.6805,6.6945,6.7204,6.8376,6.9373,6.9746,7.0937,7.1797,7.1953,7.1992,7.1992,7.1953,7.1836,7.1747,7.1738,7.167,7.1568,7.1613,7.1677,7.1744,7.1711,7.164,7.1566,7.1536,7.1521,7.1448,7.126,7.1238,7.1162,7.0998,7.0947,7.0953,7.0852,7.0841,7.0785,7.0767,7.0758,7.0729,7.0703,7.0703,7.0718,7.0748,7.0767,7.0815,6.516,6.4425,6.4416,6.3873,6.2922,6.2478,6.1992,6.1492,6.1029,6.0704,6.0489,6.0476,6.0476,6.0508,6.0621,6.0669,6.0649,6.0434,6.0364,6.0345,6.0165,6.0116,6.0119,5.9827,5.9679,5.9639,5.8821,5.8412,5.8314,5.7559,5.7166,5.7157,5.6737,5.6491,5.6492,5.648,5.6484,5.648,5.6492,5.6297,5.5915,5.5447,5.498,5.4578,5.4156,5.3735,5.3325,5.3725,5.3771,5.337,5.3747,5.3986,5.4064,5.4467,5.5096,5.5994,5.6448,5.7192,5.8421,5.8955,5.9759,6.0975,6.1488,6.2112,6.3046,6.3456,6.422,6.5474,6.6021,6.6452,6.685,6.6836,6.6971,6.7454,6.8572,6.9413,7.001,7.1061,7.1822,7.1822,7.1797,7.179,7.1771,7.1662,7.1594,7.1588,7.1524,7.1493,7.1486,7.145,7.1463,7.1568,7.1544,7.1467,7.1377,7.1329,7.1229,7.1053,7.0998,7.094,7.0801,7.0758,7.0733,7.0703,7.0678,7.0647,7.0647,7.0582,7.0582,7.0632,7.0647,7.0647,7.0673,7.0658,7.0678,6.5837,6.5257,6.5257,6.4773,6.3922,6.3052,6.2588,6.2336,6.1689,6.1115,6.0657,6.0633,6.0633,6.0657,6.0814,6.0869,6.0901,6.1106,6.1217,6.1248,6.1428,6.149,6.1468,6.0867,6.0594,6.0482,5.9715,5.9276,5.9198,5.8433,5.7931,5.7751,5.7115,5.6678,5.6485,5.647,5.6472,5.6485,5.6496,5.6488,5.648,5.5817,5.5473,5.5451,5.4869,5.441,5.4306,5.4484,5.4509,5.4322,5.4478,5.4888,5.5532,5.5767,5.6452,5.7645,5.7996,5.8467,5.9347,6.0212,6.0978,6.1645,6.1885,6.2652,6.4022,6.4432,6.4921,6.576,6.6444,6.6835,6.6813,6.6756,6.7024,6.7868,6.8654,6.946,7.0302,7.1174,7.1669,7.1669,7.1626,7.1589,7.1557,7.1483,7.1416,7.1359,7.1372,7.1356,7.1368,7.1227,7.1216,7.131,7.1377,7.131,7.1158,7.1124,7.1048,7.0898,7.0829,7.0791,7.0748,7.0703,7.0658,7.0609,7.0582,7.0554,7.0538,7.0467,7.0451,7.0519,7.0534,7.0569,7.0593,7.0582,7.0585,6.6147,6.6089,6.605,6.5624,6.4812,6.3952,6.3168,6.2491,6.2298,6.1805,6.1099,6.1032,6.106,6.1061,6.1041,6.1051,6.106,6.1159,6.1268,6.1381,6.1473,6.1532,6.1578,6.149,6.1471,6.1348,6.0581,6.0171,6.0135,5.9371,5.8582,5.7862,5.7654,5.7226,5.6541,5.6439,5.6433,5.6412,5.645,5.6498,5.6482,5.6423,5.6384,5.6384,5.6283,5.5881,5.5165,5.5916,5.5979,5.5337,5.5903,5.6372,5.6528,5.7153,5.7627,5.7849,5.8574,5.9358,6.0224,6.1103,6.1575,6.1754,6.2401,6.3163,6.4058,6.4833,6.5657,6.6367,6.6644,6.6702,6.6642,6.6619,6.6941,6.774,6.8572,6.944,7.0275,7.1112,7.1601,7.1601,7.1517,7.1504,7.1454,7.1344,7.1169,7.1034,7.1029,7.1016,7.1011,7.0992,7.0959,7.0966,7.0972,7.0985,7.0933,7.0885,7.0838,7.0801,7.0762,7.0688,7.0647,7.0616,7.0569,7.0499,7.0451,7.0454,7.0435,7.04,7.0419,7.0435,7.0435,7.0435,7.0416,7.0419,7.0451,6.6205,6.6205,6.6205,6.6011,6.5605,6.4822,6.4271,6.3922,6.34,6.2685,6.193,6.1872,6.1601,6.1118,6.1099,6.1126,6.1169,6.126,6.1361,6.1447,6.1532,6.1573,6.1584,6.1588,6.1586,6.1573,6.1239,6.105,6.092,6.0215,5.9374,5.8594,5.8476,5.8269,5.7864,5.7393,5.716,5.7165,5.668,5.6445,5.6464,5.6495,5.6523,5.655,5.6555,5.6402,5.6111,5.6409,5.643,5.6118,5.6411,5.6823,5.7299,5.7631,5.8259,5.9245,6.0163,6.0776,6.1093,6.1444,6.1614,6.1532,6.232,6.3159,6.3987,6.4837,6.5658,6.6361,6.6579,6.6627,6.659,6.6528,6.6808,6.7631,6.8424,6.9203,7.0,7.0816,7.131,7.131,7.1241,7.122,7.1188,7.1097,7.0979,7.0893,7.0898,7.0898,7.0898,7.0898,7.0885,7.0843,7.0843,7.0848,7.0848,7.0815,7.0772,7.0729,7.0673,7.0616,7.0585,7.0503,7.047,7.0419,7.0419,7.0402,7.0419,7.0402,7.0402,7.0386,7.0402,7.0402,7.0402,7.03,7.0266,6.6281,6.6264,6.6215,6.6205,6.6147,6.5586,6.5199,6.4938,6.4319,6.3574,6.28,6.2548,6.2102,6.152,6.125,6.1169,6.1268,6.1369,6.1439,6.1509,6.1576,6.1586,6.1579,6.1579,6.1594,6.1591,6.1596,6.16,6.1543,6.1001,6.0228,5.9488,5.9354,5.9198,5.885,5.8289,5.8019,5.798,5.7408,5.712,5.7143,5.7148,5.6981,5.6613,5.6535,5.6555,5.6536,5.6555,5.6673,5.6888,5.6889,5.7262,5.8026,5.83,5.9101,6.0488,6.1268,6.1595,6.1551,6.1542,6.1595,6.1814,6.2567,6.3399,6.4254,6.51,6.5771,6.622,6.6395,6.6451,6.6478,6.6384,6.6769,6.7799,6.8439,6.9073,7.0116,7.0778,7.1093,7.1068,7.103,7.0979,7.0979,7.0933,7.0912,7.0898,7.0898,7.0898,7.0898,7.0885,7.0843,7.0801,7.0791,7.0777,7.0777,7.0748,7.0718,7.0673,7.0601,7.0554,7.0538,7.0451,7.0419,7.0419,7.0402,7.0402,7.0402,7.0402,7.0264,7.0213,7.0142,7.0016,6.9833,6.9796,6.9702,6.651,6.6388,6.6254,6.6215,6.6195,6.6137,6.5693,6.5093,6.4957,6.4483,6.3684,6.2945,6.254,6.2422,6.1652,6.1287,6.1401,6.1441,6.1498,6.1514,6.1583,6.1588,6.1591,6.159,6.1612,6.1597,6.166,6.1666,6.1595,6.1524,6.1112,6.0272,6.018,5.9744,5.9118,5.8939,5.8841,5.8834,5.8734,5.8802,5.8783,5.8809,5.8016,5.6727,5.6456,5.6559,5.6518,5.6456,5.6807,5.7625,5.7601,5.796,5.8811,5.9563,6.0373,6.1214,6.1389,6.1415,6.1407,6.1461,6.1763,6.2547,6.3383,6.4237,6.4865,6.5705,6.6148,6.6135,6.6136,6.6157,6.6216,6.6186,6.684,6.8317,6.8598,6.9331,7.0836,7.0928,7.0985,7.1005,7.0952,7.0912,7.0893,7.0898,7.0898,7.0898,7.0898,7.0898,7.0885,7.0862,7.0801,7.0777,7.0748,7.0703,7.0688,7.0678,7.0635,7.0554,7.047,7.0402,7.0419,7.0419,7.0367,7.0367,7.0334,7.0317,7.0386,7.0264,7.0054,6.9853,6.9508,6.9328,6.925,6.8891,6.8825,6.6569,6.6528,6.6478,6.6457,6.6443,6.6364,6.6159,6.5898,6.58,6.5335,6.4679,6.4276,6.3638,6.2707,6.2372,6.1938,6.149,6.149,6.1532,6.1566,6.1585,6.1617,6.166,6.166,6.1659,6.1651,6.1653,6.1598,6.1541,6.1544,6.1378,6.1137,6.1006,6.0793,6.045,5.9944,5.9664,5.9612,5.9185,5.887,5.8934,5.887,5.8539,5.7999,5.8029,5.8065,5.8065,5.8068,5.82,5.846,5.8435,5.8812,5.963,6.0449,6.106,6.1348,6.1398,6.1383,6.1394,6.1868,6.2244,6.2556,6.3804,6.4651,6.5035,6.5654,6.6105,6.6069,6.6036,6.6047,6.6058,6.6047,6.673,6.8235,6.8613,6.918,7.0549,7.0959,7.0939,7.0939,7.0931,7.0898,7.0898,7.0898,7.0898,7.0898,7.0898,7.0871,7.0829,7.0801,7.0729,7.0673,7.0647,7.0519,7.0125,7.0435,7.0554,7.0422,7.03,7.0249,7.0249,6.9815,6.9663,7.0071,7.0125,6.9926,6.9852,6.9529,6.9369,6.9146,6.8844,6.8709,6.8713,6.836,6.8312,6.6642,6.6618,6.6605,6.6581,6.6556,6.6464,6.6426,6.6426,6.6334,6.6042,6.5635,6.5333,6.4592,6.3683,6.3119,6.2576,6.1988,6.1697,6.1593,6.1619,6.1621,6.1659,6.1671,6.1666,6.1674,6.1668,6.1615,6.1556,6.1485,6.1501,6.1491,6.1467,6.144,6.1393,6.1296,6.0798,6.0526,6.039,5.9924,5.9671,5.9632,5.9625,5.9645,5.9633,5.9703,5.9459,5.8995,5.8933,5.9077,5.9235,5.9236,5.9601,6.0375,6.098,6.1292,6.1266,6.1259,6.1401,6.1636,6.2159,6.268,6.3197,6.417,6.493,6.5219,6.5727,6.5963,6.6009,6.6017,6.5998,6.5955,6.5962,6.6668,6.8164,6.852,6.9156,7.0696,7.0925,7.0898,7.0898,7.0871,7.0871,7.0857,7.0843,7.0829,7.0829,7.0848,7.0787,7.0601,7.0505,7.041,7.0194,7.0091,6.9909,6.9682,6.9816,6.9909,6.9778,6.9797,6.9853,6.9816,6.9344,6.9221,6.9644,6.9702,6.945,6.9143,6.878,6.8553,6.8389,6.8191,6.8055,6.798,6.7852,6.7793,6.6697,6.6712,6.6622,6.659,6.6549,6.6516,6.6505,6.6498,6.649,6.6479,6.6388,6.5794,6.5419,6.507,6.3867,6.3084,6.2752,6.2127,6.1756,6.1696,6.1701,6.1707,6.1703,6.1624,6.1602,6.1588,6.1532,6.15,6.1503,6.1491,6.146,6.1414,6.14,6.1393,6.1393,6.1296,6.1315,6.1257,6.116,6.1237,6.1373,6.1199,6.114,6.1192,6.1153,6.0461,5.9024,5.8958,5.9371,5.999,5.9968,6.0291,6.0911,6.1086,6.1079,6.1051,6.1032,6.1428,6.2113,6.2295,6.3136,6.4303,6.4831,6.5211,6.5751,6.5963,6.5986,6.5989,6.5996,6.5984,6.5903,6.5903,6.6551,6.8129,6.836,6.9123,7.0341,7.0879,7.0898,7.0885,7.0829,7.0806,7.0758,7.0665,7.0605,7.0559,7.054,7.0407,7.0066,6.996,6.9721,6.9427,6.9385,6.9383,6.9219,6.9112,6.9091,6.905,6.9134,6.9198,6.924,6.8981,6.8833,6.912,6.8956,6.8713,6.8576,6.824,6.8005,6.7819,6.7594,6.7442,6.7387,6.7295,6.7136,6.6832,6.6832,6.6805,6.6802,6.6761,6.6675,6.6622,6.6622,6.6549,6.6588,6.6628,6.6426,6.6031,6.5508,6.495,6.4136,6.3023,6.2691,6.2281,6.183,6.1725,6.1698,6.1693,6.1631,6.1584,6.1549,6.1523,6.1478,6.1441,6.1428,6.1414,6.14,6.1393,6.1393,6.1386,6.1393,6.1393,6.1393,6.1393,6.1393,6.1393,6.1352,6.1337,6.1337,6.1299,6.1,6.0562,6.0527,6.0646,6.0827,6.0812,6.0893,6.106,6.1061,6.1002,6.1002,6.1,6.1366,6.2176,6.2811,6.3582,6.4654,6.5315,6.5685,6.5943,6.5946,6.5928,6.5935,6.5916,6.5923,6.5891,6.5878,6.6385,6.7404,6.8065,6.884,7.0,7.0536,7.0791,7.0815,7.0777,7.0605,7.0342,7.0224,7.0103,6.9832,6.9795,6.9702,6.9509,6.943,6.9387,6.9158,6.9091,6.8889,6.873,6.8567,6.8496,6.8472,6.852,6.8572,6.86,6.853,6.844,6.8374,6.8191,6.8068,6.7911,6.7741,6.7505,6.7295,6.7136,6.7001,6.6903,6.6834,6.6804,6.6893,6.6893,6.6893,6.6873,6.6853,6.6756,6.6734,6.6715,6.6646,6.6664,6.6715,6.6719,6.648,6.6004,6.5733,6.4999,6.4004,6.3652,6.3179,6.2547,6.1871,6.1713,6.166,6.1596,6.1529,6.1466,6.1467,6.1401,6.1295,6.1295,6.1271,6.1212,6.1223,6.1195,6.1203,6.1223,6.1203,6.1223,6.1267,6.1291,6.1255,6.1175,6.1103,6.1085,6.1012,6.1002,6.1099,6.1079,6.1137,6.1164,6.1155,6.1099,6.107,6.1041,6.1116,6.1366,6.1488,6.1929,6.299,6.3681,6.4297,6.5126,6.5688,6.5953,6.5928,6.5808,6.5722,6.5865,6.5603,6.5513,6.5603,6.5513,6.5834,6.6604,6.7739,6.8839,6.9838,7.033,7.0478,7.0439,7.0274,7.0014,6.9796,6.9664,6.9548,6.9269,6.9227,6.9101,6.901,6.8881,6.8807,6.8688,6.8472,6.8297,6.8166,6.8033,6.7897,6.7897,6.7897,6.797,6.8035,6.7841,6.7684,6.7692,6.7549,6.7432,6.7305,6.7174,6.6972,6.6804,6.6804,6.6804,6.6834,6.6834,6.6775,6.6904,6.6904,6.6904,6.6862,6.6817,6.6799,6.6799,6.6807,6.6787,6.6772,6.6787,6.6789,6.6763,6.6583,6.6056,6.5624,6.5429,6.4701,6.42,6.366,6.2727,6.1943,6.1635,6.1544,6.1466,6.1421,6.1373,6.1275,6.1148,6.1113,6.1021,6.0963,6.0953,6.0892,6.0913,6.0892,6.0902,6.0883,6.0983,6.1022,6.1022,6.0855,6.0764,6.0773,6.0524,6.054,6.09,6.1023,6.104,6.1166,6.1157,6.1224,6.1108,6.1095,6.1602,6.2147,6.2163,6.301,6.4193,6.4446,6.4852,6.5634,6.5769,6.584,6.5709,6.5456,6.5359,6.5616,6.5153,6.4907,6.5105,6.4973,6.5205,6.6095,6.7499,6.8925,7.0354,7.0282,7.0045,6.9905,6.9529,6.9183,6.9183,6.9096,6.9047,6.8937,6.8896,6.8688,6.8496,6.8327,6.8141,6.8033,6.8,6.7923,6.7863,6.781,6.7669,6.7488,6.7488,6.7533,6.755,6.7359,6.7172,6.7154,6.7107,6.6943,6.6834,6.6775,6.6775,6.6804,6.6804,6.6804,6.6715,6.6656,6.6518,6.6888,6.6904,6.6904,6.6883,6.688,6.688,6.6878,6.6877,6.683,6.6807,6.6807,6.68,6.6795,6.6776,6.658,6.617,6.5675,6.5345,6.4785,6.4205,6.3767,6.2669,6.1753,6.152,6.148,6.1425,6.1255,6.1167,6.1094,6.0974,6.0913,6.0911,6.0839,6.0798,6.0696,6.0662,6.0627,6.0537,6.0549,6.0592,6.058,6.0488,6.0438,6.0425,6.0319,6.0603,6.1264,6.1788,6.1659,6.1137,6.1679,6.1928,6.1915,6.2373,6.2741,6.2949,6.3029,6.3409,6.4332,6.4615,6.4904,6.5379,6.5485,6.5314,6.5022,6.494,6.4923,6.4954,6.4697,6.4572,6.4662,6.4612,6.5143,6.6409,6.7579,6.8671,6.9546,6.9607,6.9431,6.9371,6.9223,6.8941,6.8693,6.8572,6.849,6.8241,6.8141,6.8134,6.8026,6.7948,6.7863,6.781,6.7749,6.7687,6.7624,6.757,6.7433,6.72,6.7172,6.721,6.722,6.7182,6.7019,6.6932,6.6943,6.6863,6.6697,6.6608,6.6668,6.6697,6.6457,6.6274,6.6305,6.6256,6.6101,6.6859,6.6854,6.6854,6.6854,6.6854,6.6854,6.6873,6.6854,6.6828,6.6805,6.6805,6.68,6.6809,6.6798,6.6798,6.6532,6.6108,6.6022,6.5689,6.5108,6.4556,6.3646,6.2631,6.2152,6.1826,6.1623,6.1138,6.0884,6.077,6.0646,6.0526,6.0463,6.0476,6.0405,6.0311,6.0305,6.0278,6.0227,6.0236,6.0278,6.0226,6.0146,6.0336,6.0429,6.0444,6.0711,6.1571,6.218,6.2094,6.1685,6.2082,6.2552,6.2728,6.3095,6.3455,6.3604,6.3596,6.3913,6.4451,6.4628,6.4749,6.4975,6.5057,6.494,6.4716,6.4556,6.4426,6.4609,6.4217,6.4078,6.4269,6.4597,6.5502,6.6656,6.7576,6.8425,6.9272,6.9082,6.8925,6.8852,6.8665,6.8442,6.8134,6.8134,6.7974,6.7802,6.7784,6.7776,6.7722,6.7669,6.7642,6.7633,6.7579,6.7524,6.7414,6.7331,6.7293,6.7076,6.6961,6.6972,6.6896,6.6896,6.6903,6.6804,6.6804,6.6745,6.6608,6.647,6.647,6.6348,6.6025,6.5867,6.5945,6.5863,6.5722,6.6798,6.6798,6.6798,6.6798,6.6798,6.6798,6.68,6.6798,6.6798,6.6798,6.6798,6.6798,6.6804,6.681,6.6805,6.6748,6.6659,6.6526,6.6393,6.5885,6.5306,6.4502,6.393,6.2904,6.2453,6.2135,6.1239,6.0968,6.0897,6.0552,6.0213,6.0269,6.0191,6.0069,6.0269,6.0221,6.0153,6.0302,6.0459,6.0488,6.0434,6.0375,6.0594,6.0944,6.1017,6.1131,6.1768,6.2265,6.2424,6.2059,6.259,6.3017,6.3347,6.3361,6.3658,6.3981,6.4077,6.4254,6.4594,6.4689,6.466,6.4682,6.4646,6.4592,6.4407,6.4115,6.4052,6.4216,6.3609,6.3565,6.4008,6.4911,6.5847,6.6735,6.7446,6.8228,6.8743,6.8655,6.8387,6.8303,6.7948,6.7749,6.7669,6.7669,6.7696,6.7741,6.766,6.7633,6.7606,6.7552,6.7506,6.7451,6.7414,6.7387,6.7229,6.7115,6.7076,6.6961,6.6892,6.6815,6.6602,6.6602,6.6727,6.6745,6.6608,6.6548,6.6488,6.6379,6.6207,6.6021,6.5722,6.569,6.569,6.551,6.5346,6.6805,6.6798,6.6798,6.6798,6.6798,6.6798,6.6798,6.6798,6.6798,6.6798,6.6795,6.6795,6.6787,6.6801,6.6766,6.6732,6.6583,6.6491,6.6314,6.6056,6.5895,6.5577,6.4999,6.3857,6.3102,6.2808,6.2567,6.2256,6.1949,6.122,6.0863,6.0816,6.0785,6.0749,6.0686,6.1159,6.1541,6.1431,6.1374,6.1335,6.1297,6.1242,6.13,6.1506,6.1929,6.1924,6.1926,6.2825,6.3253,6.3065,6.3173,6.3422,6.3613,6.4051,6.4348,6.4398,6.4497,6.456,6.4642,6.4628,6.4575,6.4311,6.4272,6.4113,6.369,6.362,6.3523,6.3486,6.3223,6.3357,6.4101,6.498,6.5874,6.6669,6.7395,6.7915,6.8007,6.7974,6.7923,6.7863,6.7802,6.7669,6.7669,6.7669,6.7687,6.7687,6.7633,6.7552,6.7497,6.7442,6.7368,6.7313,6.7257,6.72,6.682,6.6655,6.6536,6.6494,6.6482,6.6282,6.611,6.6092,6.6092,6.6251,6.6379,6.6269,6.6034,6.5846,6.5604,6.5525,6.5412,6.5295,6.5163,6.508,6.508,6.6802,6.6798,6.6798,6.6798,6.6798,6.6798,6.6798,6.6798,6.6798,6.6798,6.6768,6.672,6.6646,6.66,6.648,6.6379,6.6306,6.6147,6.6058,6.5928,6.5731,6.5545,6.546,6.4656,6.391,6.3466,6.2765,6.2496,6.2212,6.1831,6.1408,6.1426,6.1445,6.1354,6.128,6.177,6.1808,6.1769,6.1787,6.1787,6.1806,6.1729,6.1872,6.2124,6.275,6.295,6.2699,6.3196,6.351,6.346,6.3495,6.3766,6.404,6.4416,6.4609,6.4482,6.4445,6.435,6.4253,6.4173,6.407,6.3878,6.3835,6.3636,6.3382,6.3242,6.3194,6.3117,6.3113,6.3339,6.4538,6.5445,6.6234,6.6951,6.7492,6.7749,6.7696,6.7669,6.7669,6.7669,6.7696,6.7669,6.7669,6.7687,6.7687,6.766,6.7597,6.7497,6.747,6.7414,6.7229,6.7172,6.7126,6.6936,6.6476,6.6166,6.5931,6.5837,6.5742,6.5468,6.5156,6.5237,6.5368,6.5501,6.5633,6.5551,6.5338,6.5125,6.4942,6.4841,6.4722,6.4688,6.4636,6.4498,6.4619,6.6768,6.6798,6.6798,6.6798,6.6798,6.6798,6.6798,6.6795,6.6765,6.673,6.6723,6.6546,6.6413,6.631,6.6161,6.601,6.5924,6.5795,6.5744,6.5711,6.5378,6.5257,6.5168,6.4862,6.4461,6.3907,6.3208,6.2726,6.256,6.2146,6.2071,6.2032,6.2013,6.2052,6.2013,6.2182,6.2407,6.2444,6.2425,6.2368,6.231,6.2231,6.2367,6.2782,6.3218,6.3565,6.3405,6.3569,6.3583,6.3557,6.3557,6.3902,6.4273,6.4463,6.4389,6.4048,6.3988,6.3881,6.3661,6.3606,6.3538,6.3359,6.34,6.3331,6.3189,6.3099,6.3026,6.3045,6.3137,6.3704,6.5136,6.5925,6.6759,6.7438,6.7677,6.7669,6.7669,6.7669,6.7669,6.7669,6.7687,6.7687,6.7687,6.766,6.766,6.7633,6.7524,6.7414,6.7359,6.7126,6.682,6.6488,6.6319,6.6118,6.5693,6.545,6.5255,6.5072,6.4972,6.4617,6.4218,6.4096,6.4236,6.4634,6.472,6.4634,6.4497,6.4323,6.42,6.4077,6.3987,6.3897,6.3897,6.3914,6.4075,6.6705,6.6798,6.6798,6.6795,6.6795,6.6795,6.679,6.6765,6.6614,6.6551,6.6516,6.6278,6.6157,6.6142,6.6114,6.5992,6.5799,6.5624,6.5446,6.5352,6.5101,6.5071,6.4938,6.4761,6.4576,6.4501,6.4068,6.386,6.365,6.329,6.2875,6.2857,6.2838,6.2856,6.3044,6.3458,6.3607,6.3473,6.3452,6.3448,6.3428,6.3364,6.3275,6.3441,6.3598,6.3606,6.3602,6.3598,6.3557,6.3447,6.3442,6.3451,6.3554,6.3624,6.3576,6.3523,6.3478,6.341,6.3331,6.3284,6.326,6.3237,6.3237,6.3189,6.3093,6.3002,6.2929,6.31,6.3546,6.4292,6.5209,6.6127,6.6861,6.743,6.7687,6.7642,6.7615,6.7569,6.7469,6.7314,6.746,6.7633,6.7579,6.7552,6.7506,6.735,6.7136,6.7022,6.6954,6.6488,6.5963,6.5629,6.5305,6.5057,6.4788,6.4634,6.4462,6.4253,6.4078,6.3686,6.3302,6.2946,6.3001,6.3373,6.361,6.3556,6.3464,6.3462,6.3368,6.3294,6.3199,6.3104,6.3254,6.3348,6.3237,6.6495,6.6551,6.6551,6.6551,6.6531,6.6551,6.6551,6.6521,6.6432,6.64,6.6317,6.6126,6.5992,6.594,6.5793,6.5692,6.5572,6.5397,6.5232,6.5104,6.4919,6.4815,6.4726,6.4539,6.4462,6.4404,6.4346,6.4306,6.4166,6.3828,6.3544,6.3501,6.3501,6.352,6.3557,6.3819,6.4083,6.4081,6.404,6.3979,6.3979,6.3891,6.3802,6.3691,6.3647,6.3602,6.3579,6.3534,6.3488,6.34,6.3331,6.3237,6.3147,6.3147,6.3194,6.3189,6.3189,6.3189,6.3213,6.3213,6.3189,6.3099,6.3099,6.3026,6.2947,6.288,6.2855,6.308,6.4071,6.4861,6.5301,6.6366,6.7183,6.7478,6.7606,6.7387,6.7053,6.6996,6.6816,6.6682,6.7043,6.7266,6.7368,6.7341,6.7322,6.7136,6.6765,6.6577,6.6428,6.5806,6.5141,6.4788,6.4445,6.4165,6.3952,6.3809,6.3574,6.3373,6.3225,6.2833,6.2467,6.2127,6.1963,6.2082,6.2223,6.2595,6.2728,6.2821,6.2646,6.2491,6.2453,6.2453,6.2685,6.2762,6.2608,6.6256,6.6295,6.6295,6.6295,6.6295,6.6295,6.6302,6.6287,6.6259,6.6206,6.6181,6.5945,6.5779,6.5724,6.555,6.5409,6.5379,6.5201,6.5104,6.5006,6.4761,6.4577,6.4501,6.4384,6.4264,6.4264,6.4125,6.4081,6.4102,6.3988,6.396,6.3864,6.3878,6.3894,6.3897,6.3899,6.3894,6.3894,6.3891,6.3873,6.3826,6.378,6.3732,6.362,6.3602,6.3579,6.3515,6.347,6.3359,6.3289,6.3194,6.3099,6.2978,6.2953,6.3002,6.3075,6.3117,6.3117,6.3117,6.3117,6.3045,6.2978,6.2978,6.2904,6.2873,6.2823,6.2823,6.3099,6.4255,6.5209,6.5485,6.6688,6.7277,6.7248,6.722,6.7024,6.6289,6.5935,6.5793,6.5966,6.6541,6.6571,6.6404,6.6765,6.6689,6.6174,6.5784,6.5738,6.5533,6.4889,6.4288,6.397,6.3662,6.3348,6.3124,6.2956,6.2651,6.2341,6.2262,6.2026,6.1699,6.1359,6.1318,6.1383,6.1547,6.1917,6.2037,6.2116,6.1974,6.1854,6.1773,6.1797,6.1957,6.186,6.1659,6.6193,6.6287,6.6287,6.6295,6.6279,6.6272,6.6279,6.6248,6.6041,6.5945,6.5934,6.5626,6.5489,6.5446,6.5435,6.5394,6.5314,6.5136,6.5006,6.4869,6.4671,6.4481,6.4344,6.4203,6.4123,6.4102,6.4,6.4,6.404,6.3958,6.3915,6.3891,6.3873,6.3894,6.3851,6.3851,6.3894,6.3873,6.3826,6.3736,6.3647,6.3643,6.362,6.3579,6.3557,6.347,6.3359,6.3289,6.3242,6.3008,6.3026,6.2953,6.2855,6.2823,6.283,6.283,6.283,6.283,6.2873,6.2898,6.2898,6.2873,6.283,6.2805,6.278,6.278,6.2798,6.2879,6.4259,6.5061,6.5311,6.6537,6.6945,6.6736,6.6386,6.5948,6.5311,6.5068,6.4902,6.4751,6.5169,6.5136,6.5004,6.5558,6.5922,6.535,6.4888,6.4838,6.4652,6.4041,6.357,6.3291,6.3049,6.2762,6.2569,6.2335,6.2059,6.1611,6.1506,6.1424,6.1276,6.1144,6.1061,6.1169,6.1252,6.1194,6.1219,6.126,6.1252,6.1194,6.1036,6.1094,6.1169,6.0986,6.0769,6.6027,6.6086,6.6067,6.6067,6.6076,6.6024,6.6014,6.597,6.5806,6.5737,6.5698,6.5547,6.544,6.5379,6.5298,6.5236,6.5169,6.4972,6.4798,6.4708,6.4539,6.4344,6.4224,6.4142,6.4081,6.3958,6.3913,6.3867,6.391,6.3888,6.3823,6.3739,6.3739,6.3717,6.3739,6.3717,6.3717,6.3695,6.3628,6.3492,6.34,6.3396,6.3373,6.3373,6.3354,6.3152,6.2898,6.3056,6.2892,6.2668,6.2712,6.2873,6.278,6.273,6.2679,6.2679,6.2622,6.2672,6.2773,6.2755,6.2755,6.278,6.2755,6.2755,6.273,6.2672,6.2622,6.2589,6.3657,6.4347,6.4605,6.5436,6.5648,6.5621,6.5476,6.4919,6.4444,6.4323,6.4096,6.3917,6.3755,6.3827,6.3953,6.4462,6.4903,6.4685,6.4218,6.4024,6.3754,6.3311,6.291,6.2637,6.2408,6.2234,6.2076,6.1917,6.1756,6.1424,6.1293,6.1252,6.1186,6.1061,6.0977,6.0793,6.0734,6.0607,6.0437,6.0565,6.0734,6.0565,6.0335,6.0394,6.0437,6.0308,6.012,6.584,6.5872,6.5897,6.5878,6.5897,6.5846,6.582,6.5793,6.5668,6.5594,6.5566,6.5494,6.5405,6.5314,6.5169,6.5104,6.5021,6.4744,6.4634,6.452,6.4384,6.4224,6.4102,6.4061,6.3955,6.3851,6.378,6.3732,6.3691,6.3691,6.3647,6.3579,6.3579,6.3579,6.3579,6.3534,6.3511,6.3488,6.34,6.3307,6.3237,6.3213,6.3099,6.3008,6.2892,6.2657,6.2164,6.2261,6.2182,6.1996,6.2237,6.236,6.2139,6.2139,6.2032,6.1933,6.1769,6.1842,6.2014,6.2166,6.2412,6.2412,6.2245,6.1942,6.1978,6.215,6.2295,6.2139,6.326,6.3687,6.3911,6.4564,6.4771,6.4785,6.4581,6.3971,6.3516,6.3498,6.3371,6.3219,6.3028,6.2876,6.3087,6.3498,6.3736,6.3809,6.3589,6.3291,6.2969,6.2642,6.2425,6.2206,6.2087,6.1894,6.1733,6.1571,6.1424,6.1318,6.1169,6.1102,6.1061,6.0919,6.0734,6.0522,6.0292,6.0179,6.0049,6.0179,6.0206,6.0076,5.9903,5.9772,5.9728,5.9568,5.9612,6.5701,6.5807,6.5872,6.5878,6.5878,6.5897,6.5846,6.5767,6.5641,6.5571,6.5494,6.544,6.5279,6.5153,6.5071,6.4989,6.4888,6.4671,6.4577,6.4462,6.4286,6.4123,6.4019,6.3891,6.3802,6.3758,6.3647,6.3534,6.3424,6.3336,6.3447,6.3557,6.3424,6.3488,6.3424,6.3265,6.3218,6.3194,6.3147,6.3147,6.3123,6.3099,6.291,6.2486,6.2313,6.2004,6.1275,6.1332,6.1275,6.1062,6.1454,6.1556,6.1293,6.1368,6.1283,6.1003,6.0855,6.0855,6.0956,6.1311,6.1536,6.1358,6.1192,6.1058,6.1129,6.1404,6.1543,6.176,6.2793,6.348,6.3821,6.4237,6.4043,6.39,6.3647,6.3277,6.2893,6.2757,6.2642,6.2481,6.2403,6.2347,6.2251,6.2706,6.2804,6.288,6.288,6.2586,6.2414,6.2156,6.2014,6.1854,6.179,6.1669,6.1506,6.1359,6.1276,6.1252,6.1144,6.1061,6.1019,6.0776,6.0548,6.0163,5.9903,5.9788,5.9656,5.9552,5.9552,5.958,5.9492,5.9286,5.9197,5.9168,5.9286,6.5641,6.5688,6.5696,6.5728,6.5709,6.5688,6.5627,6.5618,6.5513,6.545,6.544,6.5283,6.5169,6.5052,6.4849,6.478,6.469,6.4501,6.4403,6.4286,6.4143,6.4058,6.3931,6.3758,6.3643,6.3557,6.3424,6.3331,6.3284,6.2965,6.2757,6.2849,6.3014,6.3284,6.3237,6.2874,6.28,6.2843,6.2743,6.2643,6.2929,6.2929,6.2668,6.2112,6.2041,6.1454,6.0663,6.0766,6.0537,6.0414,6.0676,6.0615,6.0445,6.0585,6.0463,6.0184,6.009,6.0027,6.0139,6.0547,6.0944,6.1376,6.1246,6.0945,6.072,6.1221,6.128,6.1659,6.2261,6.2962,6.2944,6.2964,6.2884,6.2821,6.2685,6.2469,6.2386,6.2285,6.2206,6.2127,6.2127,6.2093,6.1991,6.1894,6.1934,6.1934,6.1911,6.1911,6.1854,6.1813,6.1733,6.1611,6.1547,6.1523,6.14,6.1293,6.1186,6.1144,6.1061,6.0935,6.0835,6.0607,6.0335,5.9903,5.9435,5.9257,5.9033,5.8898,5.8943,5.9107,5.8972,5.8671,5.8671,5.8717,5.8882,6.5552,6.5566,6.5552,6.5566,6.5594,6.5552,6.5523,6.5475,6.5469,6.5409,6.5379,6.5185,6.5071,6.4972,6.4762,6.4558,6.4481,6.4344,6.4205,6.4102,6.4019,6.391,6.3758,6.3602,6.3488,6.3354,6.326,6.3213,6.3099,6.253,6.235,6.2305,6.2313,6.2391,6.2468,6.219,6.2031,6.2103,6.1942,6.1906,6.2271,6.2094,6.1933,6.1386,6.1196,6.0555,5.9856,5.9709,5.9691,5.9594,5.9724,5.9867,5.9835,5.9739,5.9674,5.9561,5.9447,5.938,5.9497,6.0039,6.0273,6.0152,6.0469,6.0472,6.0661,6.0819,6.0843,6.1137,6.1796,6.2278,6.2186,6.222,6.2257,6.2274,6.2195,6.2014,6.203,6.2007,6.1911,6.183,6.183,6.1854,6.1669,6.1547,6.1588,6.1588,6.1669,6.1669,6.1628,6.1588,6.1547,6.1424,6.1359,6.1334,6.1293,6.1169,6.1044,6.1061,6.0935,6.0708,6.0565,6.0351,5.999,5.9464,5.9033,5.8687,5.8596,5.858,5.8626,5.8717,5.855,5.8413,5.8397,5.8489,5.8443,6.5435,6.5494,6.544,6.5465,6.5566,6.5594,6.5552,6.5465,6.5435,6.539,6.5318,6.5155,6.4989,6.4853,6.4615,6.4443,6.4284,6.4143,6.4021,6.3915,6.3826,6.3714,6.3557,6.34,6.3307,6.3237,6.3141,6.3051,6.2867,6.2174,6.1933,6.1482,6.1084,6.1055,6.1279,6.1066,6.0867,6.0766,6.0646,6.0915,6.1254,6.1033,6.0814,6.0494,6.0153,5.9578,5.908,5.8806,5.8789,5.8806,5.896,5.896,5.8598,5.8806,5.8685,5.8227,5.8137,5.8046,5.808,5.9335,5.9474,5.8846,5.9293,5.9422,5.9389,5.9739,6.0428,6.0823,6.1714,6.2026,6.1963,6.1843,6.1813,6.183,6.179,6.1709,6.175,6.179,6.175,6.1588,6.1628,6.1628,6.1441,6.1276,6.1359,6.14,6.1424,6.1424,6.14,6.14,6.1359,6.1235,6.1127,6.0986,6.1002,6.1002,6.0919,6.0935,6.075,6.0394,6.0033,5.9728,5.9331,5.8988,5.8717,5.8459,5.8367,5.8305,5.8397,5.8489,5.8397,5.8305,5.8305,5.8305,5.8305,6.5409,6.544,6.5409,6.5345,6.5295,6.544,6.5375,6.5232,6.5139,6.5076,6.5025,6.4869,6.4708,6.4539,6.4385,6.4205,6.4061,6.3931,6.3823,6.3331,6.3368,6.3223,6.3056,6.3032,6.3075,6.3051,6.2953,6.2548,6.2031,6.1464,6.076,6.0211,5.9835,5.9867,6.0304,6.0304,6.0041,6.0322,6.0135,6.0041,6.0615,6.0445,6.0135,5.9771,5.9445,5.8994,5.8473,5.8224,5.8135,5.8188,5.8369,5.8101,5.7954,5.8209,5.7957,5.7698,5.7625,5.7514,5.785,5.8721,5.9224,5.8644,5.8556,5.8993,5.929,5.9492,6.0041,6.0617,6.1371,6.1666,6.1773,6.1611,6.1588,6.1669,6.1628,6.1547,6.1547,6.1669,6.1669,6.1441,6.1359,6.1276,6.1111,6.0818,6.0802,6.0902,6.0928,6.1069,6.1069,6.1127,6.1169,6.1044,6.0877,6.0708,6.0607,6.0522,6.0437,6.0335,6.012,5.9816,5.9464,5.9197,5.8943,5.8687,5.8443,5.8259,5.8166,5.812,5.8259,5.8305,5.8305,5.8305,5.8305,5.8305,5.8305,6.5271,6.5258,6.5286,6.5207,6.5054,6.522,6.5169,6.4934,6.4668,6.4502,6.4407,6.4251,6.413,6.4067,6.4044,6.3977,6.3848,6.3482,6.3238,6.2708,6.2608,6.2519,6.2479,6.2504,6.2668,6.2693,6.242,6.1969,6.1548,6.0688,5.985,5.9146,5.8597,5.8875,5.923,5.9163,5.9146,5.933,5.9113,5.9129,5.9476,5.9476,5.9211,5.8993,5.8755,5.8423,5.8118,5.7881,5.7735,5.7772,5.7698,5.7551,5.7588,5.7588,5.7514,5.7439,5.7402,5.7289,5.7553,5.7833,5.8162,5.793,5.8547,5.9176,5.9505,5.9593,5.9791,6.0277,6.0902,6.1028,6.1036,6.0928,6.1036,6.1119,6.0994,6.0869,6.0911,6.0994,6.1036,6.0902,6.0902,6.0877,6.0734,6.0437,6.0206,6.0308,6.0394,6.0522,6.0649,6.0708,6.075,6.0623,6.0496,6.0265,6.012,6.0033,5.9887,5.9712,5.9536,5.9286,5.9168,5.8898,5.8626,5.8321,5.7965,5.7778,5.7918,5.7965,5.8058,5.8166,5.8305,5.8305,5.8305,5.8212,5.8166,6.5023,6.4924,6.5021,6.497,6.4869,6.481,6.4757,6.4577,6.3981,6.3659,6.3553,6.3468,6.3397,6.3416,6.3665,6.3658,6.3391,6.2788,6.2402,6.2126,6.1752,6.1742,6.1806,6.1951,6.2184,6.2166,6.1933,6.1556,6.1196,5.9864,5.8841,5.8403,5.8118,5.8173,5.8156,5.8227,5.8315,5.8369,5.8334,5.837,5.8564,5.8193,5.8176,5.8069,5.7906,5.7701,5.7476,5.7385,5.7364,5.7364,5.7327,5.7273,5.7273,5.7289,5.7289,5.7289,5.7252,5.7139,5.7075,5.7303,5.7359,5.7595,5.8996,5.9598,5.9641,5.9437,5.9523,5.9779,6.0245,6.0059,5.9946,6.0017,6.0087,6.0044,5.9957,5.9914,5.9973,6.006,6.0147,6.0206,6.0292,6.0249,6.0076,5.9816,5.9684,5.9656,5.97,5.9596,5.9728,6.0033,6.0033,6.0033,5.9903,5.9744,5.9596,5.9508,5.9331,5.9181,5.9062,5.8898,5.8762,5.858,5.8305,5.7918,5.7433,5.7195,5.7132,5.7417,5.7825,5.7918,5.7668,5.812,5.8027,5.7965,5.7965,6.4941,6.4907,6.485,6.4464,6.3857,6.3282,6.3319,6.364,6.3002,6.2622,6.2622,6.3028,6.2763,6.2325,6.2745,6.2547,6.2144,6.1642,6.1239,6.0979,6.0843,6.07,6.0826,6.1214,6.1602,6.1658,6.1415,6.0933,6.026,5.8977,5.8139,5.7808,5.7698,5.7588,5.7551,5.7567,5.7662,5.7698,5.7625,5.7701,5.7668,5.7443,5.748,5.7406,5.7314,5.7139,5.7139,5.7008,5.7063,5.7214,5.7139,5.7008,5.6872,5.6987,5.7063,5.6872,5.6889,5.6851,5.684,5.6965,5.7066,5.7086,5.8011,5.8533,5.8673,5.8887,5.9042,5.932,5.9594,5.9531,5.9464,5.9552,5.958,5.9492,5.9448,5.9448,5.9492,5.9624,5.9684,5.9728,5.9859,5.9668,5.9448,5.9286,5.9168,5.9139,5.9049,5.8898,5.8943,5.9241,5.9403,5.9403,5.9331,5.9213,5.9078,5.8943,5.8762,5.8626,5.8534,5.8443,5.8351,5.8166,5.798,5.748,5.6892,5.6506,5.6247,5.6636,5.7084,5.6748,5.6554,5.729,5.7778,5.7574,5.7433,6.4596,6.4482,6.4271,6.3707,6.2841,6.2028,6.1967,6.2211,6.186,6.1678,6.1651,6.1896,6.1779,6.1456,6.1779,6.1761,6.1221,6.0814,6.041,6.0117,5.9977,5.9835,5.9963,6.0309,6.0646,6.0766,6.0537,5.9977,5.9328,5.8389,5.7476,5.7476,5.7327,5.7327,5.7327,5.7364,5.7214,5.7176,5.7176,5.7214,5.7084,5.6856,5.6741,5.6796,5.6741,5.6625,5.6586,5.6469,5.6508,5.6547,5.6391,5.6313,5.6172,5.6274,5.6313,5.6172,5.6132,5.6132,5.6142,5.6301,5.6507,5.662,5.6714,5.7226,5.7791,5.8157,5.8442,5.8738,5.898,5.9123,5.9107,5.9152,5.9152,5.9091,5.9107,5.9107,5.9197,5.927,5.9314,5.9375,5.927,5.9136,5.8972,5.8808,5.8733,5.8687,5.8642,5.8534,5.858,5.8762,5.8837,5.8882,5.8808,5.8733,5.8596,5.855,5.8504,5.8305,5.7902,5.7871,5.7871,5.7637,5.729,5.6844,5.6311,5.5903,5.5506,5.5853,5.6164,5.5819,5.572,5.6296,5.6748,5.6748,5.6651,6.3719,6.3466,6.326,6.2494,6.1761,6.1031,6.0736,6.059,6.0658,6.0694,6.059,6.0547,6.0542,6.0432,6.0826,6.0855,6.0379,5.9928,5.9609,5.9297,5.8978,5.8841,5.9079,5.9281,5.9739,5.9706,5.9445,5.9061,5.8425,5.7704,5.7289,5.7289,5.7139,5.7025,5.6987,5.6894,5.6663,5.6408,5.6391,5.643,5.6508,5.6195,5.5774,5.595,5.5774,5.5515,5.5475,5.5434,5.5409,5.5409,5.545,5.5507,5.5531,5.545,5.5409,5.5531,5.5612,5.5612,5.5572,5.5612,5.5608,5.558,5.549,5.6023,5.663,5.7432,5.7836,5.8192,5.8459,5.8337,5.8289,5.8244,5.8199,5.8355,5.8496,5.8576,5.8701,5.8792,5.8837,5.8837,5.8792,5.8655,5.861,5.8504,5.8351,5.8321,5.8228,5.812,5.8058,5.815,5.8243,5.8273,5.8335,5.8305,5.8413,5.8367,5.8321,5.8073,5.7527,5.7385,5.7433,5.7084,5.6588,5.6001,5.5406,5.5104,5.4902,5.5104,5.522,5.522,5.522,5.5506,5.5655,5.5655,5.5754,6.0888,6.086,6.0654,6.0324,5.9977,5.977,5.9646,5.96,5.9315,5.938,5.9681,5.9966,5.9821,5.9347,5.9783,5.9751,5.918,5.9045,5.8737,5.8545,5.8243,5.8207,5.8405,5.8685,5.8926,5.8909,5.8668,5.823,5.7668,5.7256,5.7025,5.6987,5.6719,5.6447,5.6408,5.6211,5.5917,5.5693,5.5572,5.5596,5.5677,5.5677,5.5531,5.5531,5.5369,5.5287,5.5287,5.5328,5.5369,5.5409,5.5409,5.5409,5.5409,5.5097,5.5138,5.5328,5.523,5.5246,5.5205,5.5056,5.5008,5.4857,5.482,5.5042,5.5586,5.6515,5.7184,5.76,5.7706,5.7518,5.7409,5.7302,5.7365,5.7645,5.7912,5.807,5.8259,5.8305,5.8351,5.8305,5.8259,5.8212,5.8228,5.8136,5.8027,5.7887,5.7731,5.7574,5.7322,5.7307,5.7496,5.759,5.7856,5.7918,5.7871,5.7762,5.7511,5.7464,5.7069,5.6973,5.694,5.6085,5.519,5.4953,5.4509,5.4355,5.4149,5.3956,5.406,5.437,5.4473,5.4611,5.4458,5.4406,5.4597,5.9553,5.9504,5.9176,5.8721,5.8342,5.822,5.8079,5.7963,5.7946,5.7996,5.8186,5.8839,5.8978,5.8439,5.8772,5.8755,5.8243,5.8152,5.8027,5.7881,5.7772,5.7752,5.7901,5.7995,5.8031,5.8014,5.7906,5.7483,5.6932,5.6719,5.658,5.6525,5.607,5.579,5.575,5.5507,5.5287,5.5122,5.489,5.4848,5.4931,5.4832,5.4957,5.4998,5.4957,5.4874,5.4832,5.4832,5.4832,5.4832,5.4749,5.4438,5.4396,5.4386,5.437,5.4396,5.4523,5.4832,5.4765,5.4639,5.4486,5.4386,5.4301,5.4589,5.4951,5.5787,5.6119,5.6467,5.6505,5.6336,5.6522,5.6524,5.6775,5.704,5.7464,5.7777,5.7825,5.7871,5.7871,5.7871,5.7825,5.784,5.784,5.784,5.7731,5.7731,5.7543,5.7495,5.7132,5.6299,5.6541,5.6462,5.6429,5.6317,5.5944,5.6057,5.6347,5.6347,5.6347,5.5743,5.5195,5.4413,5.3785,5.4045,5.4045,5.3762,5.3553,5.3515,5.3515,5.3815,5.3762,5.3658,5.3515,5.3515,5.3852,5.8482,5.8425,5.8024,5.7403,5.6794,5.6703,5.6506,5.6252,5.6571,5.6679,5.6614,5.7369,5.7782,5.7991,5.7845,5.7808,5.7735,5.7588,5.7402,5.7289,5.7214,5.7214,5.7176,5.716,5.7105,5.6992,5.6877,5.6647,5.6267,5.6109,5.603,5.591,5.5612,5.5328,5.5303,5.5205,5.4998,5.4765,5.4555,5.4401,5.4231,5.406,5.4359,5.4401,5.4258,5.4044,5.4001,5.4001,5.4044,5.3899,5.384,5.358,5.3302,5.3362,5.3362,5.3346,5.3683,5.3899,5.4028,5.4028,5.4001,5.4001,5.4001,5.4195,5.4555,5.475,5.5079,5.5194,5.5232,5.5405,5.5561,5.5717,5.5998,5.6325,5.6809,5.7168,5.7183,5.7183,5.7183,5.7199,5.7261,5.7261,5.7402,5.7355,5.7433,5.7433,5.7448,5.7401,5.7036,5.5793,5.5215,5.4681,5.4156,5.4002,5.4193,5.458,5.5115,5.505,5.4949,5.4149,5.3504,5.3126,5.3208,5.3823,5.3733,5.3381,5.3448,5.3515,5.3515,5.3515,5.3515,5.3515,5.3515,5.3515,5.3515,5.5601,5.5396,5.5753,5.5658,5.533,5.5672,5.5754,5.549,5.5108,5.5342,5.5684,5.5501,5.5996,5.7422,5.708,5.7025,5.7197,5.6987,5.6872,5.6796,5.6603,5.668,5.6641,5.6391,5.6116,5.5997,5.5917,5.5693,5.5669,5.5572,5.5531,5.5491,5.5138,5.489,5.4848,5.4681,5.4428,5.4274,5.4162,5.399,5.3947,5.386,5.3876,5.386,5.3699,5.3552,5.3509,5.3509,5.3509,5.3318,5.2829,5.2606,5.2381,5.22,5.2154,5.2531,5.286,5.329,5.3465,5.3596,5.3655,5.3655,5.364,5.3643,5.3765,5.3692,5.3866,5.3883,5.4043,5.4399,5.457,5.4572,5.4789,5.5175,5.5594,5.5751,5.5845,5.5891,5.5953,5.6109,5.628,5.6482,5.6747,5.6855,5.7117,5.7101,5.7083,5.7035,5.6875,5.5525,5.4061,5.3265,5.247,5.292,5.3625,5.3564,5.3891,5.3824,5.3602,5.3016,5.2473,5.2193,5.2423,5.3194,5.3299,5.3064,5.317,5.3515,5.3515,5.3515,5.3515,5.3515,5.3515,5.3515,5.3515]}]]